[[{"header":{"parameterUnit":"m.s-1","parameterCategory":1,"la1":31.0,"la2":29.5877,"lo1":-88.7671,"lo2":-86.6584,"dy":0.0162,"dx":0.0185,"nx":115,"ny":88,"refTime":"2024-07-29T06:00:00:Z","depth":0,"parameterNumber":2,"parameterNumberName":"U-component_of_WINDS"},"data":[0.0,0.0,0.0,0.0,0.0,0.0,0.0,0.0,0.0,0.0,0.0,0.0,0.0,0.0,0.0,0.0,0.0,0.0,0.0,0.0,0.0,0.0,0.0,0.0,0.0,0.0,0.0,0.0,0.0,0.0,0.0,0.0,0.0,0.0,0.0,0.0,0.0,0.0,0.0,0.0,0.0,0.0,0.0,0.0,0.0,0.0,0.0,0.0,0.0,0.0,0.0,0.0,0.0,0.0,0.0,0.0,0.0,0.0,0.0,0.0,0.0,0.0,0.0,0.0,0.0,0.0,0.0,0.0,0.0,0.0,0.0,0.0,0.0,0.0,0.0,0.0,0.0,0.0,0.0,0.0,0.0,0.0,0.0,0.0,0.0,0.0,0.0,0.0,0.0,0.0,0.0,0.0,0.0,0.0,0.0,0.0,0.0,0.0,0.0,0.0,0.0,0.0,0.0,0.0,0.0,0.0,0.0,0.0,0.0,0.0,0.0,0.0,0.0,0.0,0.0,0.0,0.0,0.0,0.0,0.0,0.0,0.0,0.0,0.0,0.0,0.0,0.0,0.0,0.0,0.0,0.0,0.0,0.0,0.0,0.0,0.0,0.0,0.0,0.0,0.0,0.0,0.0,0.0,0.0,0.0,0.0,0.0,0.0,0.0,0.0,0.0,0.0,0.0,0.0,0.0,0.0,0.0,0.0,0.0,0.0,0.0,0.0,0.0,0.0,0.0,0.0,0.0,0.0,0.0,0.0,0.0,0.0,0.0,0.0,0.0,0.0,0.0,0.0,0.0,0.0,0.0,0.0,0.0,0.0,0.0,0.0,0.0,0.0,0.0,0.0,0.0,0.0,0.0,0.0,0.0,0.0,0.0,0.0,0.0,0.0,0.0,0.0,0.0,0.0,0.0,0.0,0.0,0.0,0.0,0.0,0.0,0.0,0.0,0.0,0.0,0.0,0.0,0.0,0.0,0.0,0.0,0.0,0.0,0.0,0.0,0.0,0.0,0.0,0.0,0.0,0.0,0.0,0.0,0.0,0.0,0.0,0.0,0.0,0.0,0.0,0.0,0.0,0.0,0.0,0.0,0.0,0.0,0.0,0.0,0.0,0.0,0.0,0.0,0.0,0.0,0.0,0.0,0.0,0.0,0.0,0.0,0.0,0.0,0.0,0.0,0.0,0.0,0.0,0.0,0.0,0.0,0.0,0.0,0.0,0.0,0.0,0.0,0.0,0.0,0.0,0.0,0.0,0.0,0.0,0.0,0.0,0.0,0.0,0.0,0.0,0.0,0.0,0.0,0.0,0.0,0.0,0.0,0.0,0.0,0.0,0.0,0.0,0.0,0.0,0.0,0.0,0.0,0.0,0.0,0.0,0.0,0.0,0.0,0.0,0.0,0.0,0.0,0.0,0.0,0.0,0.0,0.0,0.0,0.0,0.0,0.0,0.0,0.0,0.0,0.0,0.0,0.0,0.0,0.0,0.0,0.0,0.0,0.0,0.0,0.0,0.0,0.0,0.0,0.0,0.0,0.0,0.0,0.0,0.0,0.0,0.0,0.0,0.0,0.0,0.0,0.0,0.0,0.0,0.0,0.0,0.0,0.0,0.0,0.0,0.0,0.0,0.0,0.0,0.0,0.0,0.0,0.0,0.0,0.0,0.0,0.0,0.0,0.0,0.0,0.0,0.0,0.0,0.0,0.0,0.0,0.0,0.0,0.0,0.0,0.0,0.0,0.0,0.0,0.0,0.0,0.0,0.0,0.0,0.0,0.0,0.0,0.0,0.0,0.0,0.0,0.0,0.0,0.0,0.0,0.0,0.0,0.0,0.0,0.0,0.0,0.0,0.0,0.0,0.0,0.0,0.0,0.0,0.0,0.0,0.0,0.0,0.0,0.0,0.0,0.0,0.0,0.0,0.0,0.0,0.0,0.0,0.0,0.0,0.0,0.0,0.0,0.0,0.0,0.0,0.0,0.0,0.0,0.0,0.0,0.0,0.0,0.0,0.0,0.0,0.0,0.0,0.0,0.0,0.0,0.0,0.0,0.0,0.0,0.0,0.0,0.0,0.0,0.0,0.0,0.0,0.0,0.0,0.0,0.0,0.0,0.0,0.0,0.0,0.0,0.0,0.0,0.0,0.0,0.0,0.0,0.0,0.0,0.0,0.0,0.0,0.0,0.0,0.0,0.0,0.0,0.0,0.0,0.0,0.0,0.0,0.0,0.0,0.0,0.0,0.0,0.0,0.0,0.0,0.0,0.0,0.0,0.0,0.0,0.0,0.0,0.0,0.0,0.0,0.0,0.0,0.0,0.0,0.0,0.0,0.0,0.0,0.0,0.0,0.0,0.0,0.0,0.0,0.0,0.0,0.0,0.0,0.0,0.0,0.0,0.0,0.0,0.0,0.0,0.0,0.0,0.0,0.0,0.0,0.0,0.0,0.0,0.0,0.0,0.0,0.0,0.0,0.0,0.0,0.0,0.0,0.0,0.0,0.0,0.0,0.0,0.0,0.0,0.0,0.0,0.0,0.0,0.0,0.0,0.0,0.0,0.0,0.0,0.0,0.0,0.0,0.0,0.0,0.0,0.0,0.0,0.0,0.0,0.0,0.0,0.0,0.0,0.0,0.0,0.0,0.0,0.0,0.0,0.0,0.0,0.0,0.0,0.0,0.0,0.0,0.0,0.0,0.0,0.0,0.0,0.0,0.0,0.0,0.0,0.0,0.0,0.0,0.0,0.0,0.0,0.0,0.0,0.0,0.0,0.0,0.0,0.0,0.0,0.0,0.0,0.0,0.0,0.0,0.0,0.0,0.0,0.0,0.0,0.0,0.0,0.0,0.0,0.0,0.0,0.0,0.0,0.0,0.0,0.0,0.0,0.0,0.0,0.0,0.0,0.0,0.0,0.0,0.0,0.0,0.0,0.0,0.0,0.0,0.0,0.0,0.0,0.0,0.0,0.0,0.0,0.0,0.0,0.0,0.0,0.0,0.0,0.0,0.0,0.0,0.0,0.0,0.0,0.0,0.0,0.0,0.0,0.0,0.0,0.0,0.0,0.0,0.0,0.0,0.0,0.0,0.0,0.0,0.0,0.0,0.0,0.0,0.0,0.0,0.0,0.0,0.0,0.0,0.0,0.0,0.0,0.0,0.0,0.0,0.0,0.0,0.0,0.0,0.0,0.0,0.0,0.0,0.0,0.0,0.0,0.0,0.0,0.0,0.0,0.0,0.0,0.0,0.0,0.0,0.0,0.0,0.0,0.0,0.0,0.0,0.0,0.0,0.0,0.0,0.0,0.0,0.0,0.0,0.0,0.0,0.0,0.0,0.0,0.0,0.0,0.0,0.0,0.0,0.0,0.0,0.0,0.0,0.0,0.0,0.0,0.0,0.0,0.0,0.0,0.0,0.0,0.0,0.0,0.0,0.0,0.0,0.0,0.0,0.0,0.0,0.0,0.0,0.0,0.0,0.0,0.0,0.0,0.0,0.0,0.0,0.0,0.0,0.0,0.0,0.0,0.0,0.0,0.0,0.0,0.0,0.0,0.0,0.0,0.0,0.0,0.0,0.0,0.0,0.0,0.0,0.0,0.0,0.0,0.0,0.0,0.0,0.0,0.0,0.0,0.0,0.0,0.0,0.0,0.0,0.0,0.0,0.0,0.0,0.0,0.0,0.0,0.0,0.0,0.0,0.0,0.0,0.0,0.0,0.0,0.0,0.0,0.0,0.0,0.0,0.0,0.0,0.0,0.0,0.0,0.0,0.0,0.0,0.0,0.0,0.0,0.0,0.0,0.0,0.0,0.0,0.0,0.0,0.0,0.0,0.0,0.0,0.0,0.0,0.0,0.0,0.0,0.0,0.0,0.0,0.0,0.0,0.0,0.0,0.0,0.0,0.0,0.0,0.0,0.0,0.0,0.0,0.0,0.0,0.0,0.0,0.0,0.0,0.0,0.0,0.0,0.0,0.0,0.0,0.0,0.0,0.0,0.0,0.0,0.0,0.0,0.0,0.0,0.0,0.0,0.0,0.0,0.0,0.0,0.0,0.0,0.0,0.0,0.0,0.0,0.0,0.0,0.0,0.0,0.0,0.0,0.0,0.0,0.0,0.0,0.0,0.0,0.0,0.0,0.0,0.0,0.0,0.0,0.0,0.0,0.0,0.0,0.0,0.0,0.0,0.0,0.0,0.0,0.0,0.0,0.0,0.0,0.0,0.0,0.0,0.0,0.0,0.0,0.0,0.0,0.0,0.0,0.0,0.0,0.0,0.0,0.0,0.0,0.0,-1.3998,0.0,0.0,0.0,0.0,0.0,0.0,0.0,0.0,0.0,0.0,0.0,0.0,0.0,0.0,0.0,0.0,0.0,0.0,0.0,0.0,0.0,0.0,0.0,0.0,0.0,0.0,0.0,0.0,0.0,0.0,0.0,0.0,0.0,0.0,0.0,0.0,0.0,0.0,0.0,0.0,0.0,0.0,0.0,0.0,0.0,0.0,0.0,0.0,0.0,0.0,0.0,0.0,0.0,0.0,0.0,0.0,0.0,0.0,0.0,0.0,0.0,0.0,0.0,0.0,0.0,0.0,0.0,0.0,0.0,0.0,0.0,0.0,0.0,0.0,0.0,0.0,0.0,0.0,0.0,0.0,0.0,0.0,0.0,0.0,0.0,0.0,0.0,0.0,0.0,0.0,0.0,0.0,0.0,0.0,0.0,0.0,0.0,0.0,0.0,0.0,0.0,0.0,0.0,0.0,0.0,0.0,0.0,0.0,0.0,0.0,-1.3204,-1.3005,-1.2867,-1.3045,-1.351,0.0,0.0,0.0,0.0,0.0,0.0,0.0,0.0,0.0,0.0,0.0,0.0,0.0,0.0,0.0,0.0,0.0,0.0,0.0,0.0,0.0,0.0,0.0,0.0,0.0,0.0,0.0,0.0,0.0,0.0,0.0,0.0,0.0,0.0,0.0,0.0,0.0,0.0,0.0,0.0,0.0,0.0,0.0,0.0,0.0,0.0,0.0,0.0,0.0,0.0,0.0,0.0,0.0,0.0,0.0,0.0,0.0,0.0,0.0,0.0,0.0,0.0,0.0,0.0,0.0,0.0,0.0,0.0,0.0,0.0,0.0,0.0,0.0,0.0,0.0,0.0,0.0,0.0,0.0,0.0,0.0,0.0,0.0,0.0,0.0,0.0,0.0,0.0,0.0,0.0,0.0,0.0,0.0,0.0,0.0,0.0,0.0,0.0,0.0,0.0,0.0,0.0,0.0,0.0,0.0,0.0,0.0,0.0,0.0,0.0,0.0,0.0,-1.2079,-1.2299,-1.2773,0.0,0.0,0.0,0.0,0.0,0.0,0.0,0.0,0.0,0.0,0.0,0.0,0.0,0.0,0.0,0.0,0.0,0.0,0.0,0.0,0.0,0.0,0.0,0.0,0.0,0.0,0.0,0.0,0.0,0.0,0.0,0.0,0.0,0.0,0.0,0.0,0.0,0.0,0.0,0.0,0.0,0.0,0.0,0.0,0.0,0.0,0.0,0.0,0.0,0.0,0.0,0.0,0.0,0.0,0.0,0.0,0.0,0.0,0.0,0.0,0.0,0.0,0.0,0.0,0.0,0.0,0.0,0.0,0.0,0.0,0.0,0.0,0.0,0.0,0.0,0.0,0.0,0.0,0.0,0.0,0.0,0.0,0.0,0.0,0.0,0.0,0.0,0.0,0.0,0.0,0.0,0.0,0.0,0.0,0.0,0.0,0.0,0.0,0.0,0.0,0.0,0.0,0.0,0.0,0.0,0.0,0.0,0.0,0.0,0.0,-1.1496,-1.259,-1.2622,0.0,-1.1926,0.0,0.0,0.0,0.0,0.0,0.0,0.0,0.0,0.0,0.0,0.0,0.0,0.0,0.0,0.0,0.0,0.0,0.0,0.0,0.0,0.0,0.0,0.0,0.0,0.0,0.0,0.0,0.0,0.0,0.0,0.0,0.0,0.0,0.0,0.0,0.0,0.0,0.0,0.0,0.0,0.0,0.0,0.0,0.0,0.0,0.0,0.0,0.0,0.0,0.0,0.0,0.0,0.0,0.0,0.0,0.0,0.0,0.0,0.0,0.0,0.0,0.0,0.0,0.0,0.0,0.0,0.0,0.0,0.0,0.0,0.0,0.0,0.0,0.0,0.0,0.0,0.0,0.0,0.0,0.0,0.0,0.0,0.0,0.0,0.0,0.0,0.0,0.0,0.0,0.0,0.0,0.0,0.0,0.0,0.0,0.0,0.0,0.0,0.0,0.0,0.0,0.0,0.0,0.0,0.0,0.0,0.0,0.0,0.0,0.0,-1.0619,-1.1717,-1.2519,-1.2542,0.0,0.0,0.0,0.0,0.0,0.0,0.0,0.0,0.0,0.0,0.0,0.0,0.0,0.0,0.0,0.0,0.0,0.0,0.0,0.0,0.0,0.0,0.0,0.0,0.0,0.0,0.0,0.0,0.0,0.0,0.0,0.0,0.0,0.0,0.0,0.0,0.0,0.0,0.0,0.0,0.0,0.0,0.0,0.0,0.0,0.0,0.0,0.0,0.0,0.0,0.0,0.0,0.0,0.0,0.0,0.0,0.0,0.0,0.0,0.0,0.0,0.0,0.0,0.0,0.0,0.0,0.0,0.0,0.0,0.0,0.0,0.0,0.0,0.0,0.0,0.0,0.0,0.0,0.0,0.0,0.0,0.0,0.0,0.0,0.0,0.0,0.0,0.0,0.0,0.0,0.0,0.0,0.0,0.0,0.0,0.0,0.0,0.0,0.0,0.0,0.0,0.0,0.0,0.0,0.0,0.0,0.0,0.0,0.0,0.0,-0.9512,-1.027,-1.1669,-1.2938,-1.2997,-1.1747,0.0,0.0,0.0,0.0,0.0,0.0,0.0,0.0,0.0,0.0,0.0,0.0,0.0,0.0,0.0,0.0,0.0,0.0,0.0,0.0,0.0,0.0,0.0,0.0,0.0,0.0,0.0,0.0,0.0,0.0,0.0,0.0,0.0,0.0,0.0,0.0,0.0,0.0,0.0,0.0,0.0,0.0,0.0,0.0,0.0,0.0,0.0,0.0,0.0,0.0,0.0,0.0,0.0,0.0,0.0,0.0,0.0,0.0,0.0,0.0,0.0,0.0,0.0,0.0,0.0,0.0,0.0,0.0,0.0,0.0,0.0,0.0,0.0,0.0,0.0,0.0,0.0,0.0,0.0,0.0,0.0,0.0,0.0,0.0,0.0,0.0,0.0,0.0,0.0,0.0,0.0,0.0,0.0,0.0,0.0,0.0,0.0,0.0,0.0,0.0,0.0,0.0,0.0,0.0,0.0,0.0,0.0,0.0,-1.0067,-0.9799,-1.075,-1.3105,-1.4236,-1.3834,0.0,0.0,0.0,0.0,0.0,0.0,0.0,0.0,0.0,0.0,0.0,0.0,0.0,0.0,0.0,0.0,0.0,0.0,0.0,0.0,0.0,0.0,0.0,0.0,0.0,0.0,0.0,0.0,0.0,0.0,0.0,0.0,0.0,0.0,0.0,0.0,0.0,0.0,0.0,0.0,0.0,0.0,0.0,0.0,0.0,0.0,0.0,0.0,0.0,0.0,0.0,0.0,0.0,0.0,0.0,0.0,0.0,0.0,0.0,0.0,0.0,0.0,0.0,0.0,0.0,0.0,0.0,0.0,0.0,0.0,0.0,0.0,0.0,0.0,0.0,0.0,0.0,0.0,0.0,0.0,0.0,0.0,0.0,0.0,0.0,0.0,0.0,0.0,0.0,0.0,0.0,0.0,0.0,0.0,0.0,0.0,0.0,0.0,0.0,0.0,0.0,0.0,0.0,0.0,0.0,0.0,0.0,0.0,0.0,-0.9181,-1.0526,-1.2041,-1.3584,-1.3036,-1.2542,0.0,0.0,0.0,0.0,0.0,0.0,0.0,0.0,0.0,0.0,0.0,0.0,0.0,0.0,0.0,0.0,0.0,0.0,0.0,0.0,0.0,0.0,0.0,0.0,0.0,0.0,0.0,0.0,0.0,0.0,0.0,0.0,0.0,0.0,0.0,0.0,0.0,0.0,0.0,0.0,0.0,0.0,0.0,0.0,0.0,0.0,0.0,0.0,0.0,0.0,0.0,0.0,0.0,0.0,0.0,0.0,0.0,0.0,0.0,0.0,0.0,0.0,0.0,0.0,0.0,0.0,0.0,0.0,0.0,0.0,0.0,0.0,0.0,0.0,0.0,0.0,0.0,0.0,0.0,0.0,0.0,0.0,0.0,0.0,0.0,0.0,0.0,0.0,0.0,0.0,0.0,0.0,0.0,0.0,0.0,0.0,0.0,0.0,0.0,0.0,0.0,0.0,0.0,0.0,0.0,0.0,0.0,0.0,0.0,-0.9666,0.0,-1.3538,-1.3958,-1.2945,-1.2172,0.0,0.0,0.0,0.0,0.0,0.0,0.0,0.0,0.0,0.0,0.0,0.0,0.0,0.0,0.0,0.0,0.0,0.0,0.0,0.0,0.0,0.0,0.0,0.0,0.0,0.0,0.0,0.0,0.0,0.0,0.0,0.0,0.0,0.0,0.0,0.0,0.0,0.0,0.0,0.0,0.0,0.0,0.0,0.0,0.0,0.0,0.0,0.0,0.0,0.0,0.0,0.0,0.0,0.0,0.0,0.0,0.0,0.0,0.0,0.0,0.0,0.0,0.0,0.0,0.0,0.0,0.0,0.0,0.0,0.0,0.0,0.0,0.0,0.0,0.0,0.0,0.0,0.0,0.0,0.0,0.0,0.0,0.0,0.0,0.0,0.0,0.0,0.0,0.0,0.0,0.0,0.0,0.0,0.0,0.0,0.0,0.0,0.0,0.0,0.0,0.0,0.0,0.0,0.0,0.0,0.0,0.0,0.0,-0.8769,-1.1748,-1.4207,-1.5058,-1.4319,-1.4175,-1.2931,0.0,0.0,0.0,0.0,0.0,0.0,0.0,0.0,0.0,0.0,0.0,0.0,0.0,0.0,0.0,0.0,0.0,0.0,0.0,0.0,0.0,0.0,0.0,0.0,0.0,0.0,0.0,0.0,0.0,0.0,0.0,0.0,0.0,0.0,0.0,0.0,0.0,0.0,0.0,0.0,0.0,0.0,0.0,0.0,0.0,0.0,0.0,0.0,0.0,0.0,0.0,0.0,0.0,0.0,0.0,0.0,0.0,0.0,0.0,0.0,0.0,0.0,0.0,0.0,0.0,0.0,0.0,0.0,0.0,0.0,0.0,0.0,0.0,0.0,0.0,0.0,0.0,0.0,0.0,0.0,0.0,0.0,0.0,0.0,0.0,0.0,0.0,0.0,0.0,0.0,0.0,0.0,0.0,0.0,0.0,0.0,0.0,0.0,0.0,0.0,0.0,0.0,0.0,0.0,0.0,0.0,0.0,0.0,0.0,-1.0569,-1.3399,-1.4726,-1.4291,-1.3313,-1.254,0.0,0.0,0.0,0.0,0.0,0.0,0.0,0.0,0.0,0.0,0.0,0.0,0.0,0.0,0.0,0.0,0.0,0.0,0.0,0.0,0.0,0.0,0.0,0.0,0.0,0.0,0.0,0.0,0.0,0.0,0.0,0.0,0.0,0.0,0.0,0.0,0.0,0.0,0.0,0.0,0.0,0.0,0.0,0.0,0.0,0.0,0.0,0.0,0.0,0.0,0.0,0.0,0.0,0.0,0.0,0.0,0.0,0.0,0.0,0.0,0.0,0.0,0.0,0.0,0.0,0.0,0.0,0.0,0.0,0.0,0.0,0.0,0.0,0.0,0.0,0.0,0.0,0.0,0.0,0.0,0.0,0.0,0.0,0.0,0.0,0.0,0.0,0.0,0.0,0.0,0.0,0.0,0.0,0.0,0.0,0.0,0.0,0.0,0.0,0.0,0.0,0.0,0.0,0.0,0.0,0.0,0.0,0.0,0.0,-1.1309,-1.3905,-1.5082,-1.4568,-1.3438,-1.2697,-1.2369,0.0,0.0,0.0,0.0,0.0,0.0,0.0,0.0,0.0,0.0,0.0,0.0,0.0,0.0,0.0,0.0,0.0,0.0,0.0,0.0,0.0,0.0,0.0,0.0,0.0,0.0,0.0,0.0,0.0,0.0,0.0,0.0,0.0,0.0,0.0,0.0,0.0,0.0,0.0,0.0,0.0,0.0,0.0,0.0,0.0,0.0,0.0,0.0,0.0,0.0,0.0,0.0,0.0,0.0,0.0,0.0,0.0,0.0,0.0,0.0,0.0,0.0,0.0,0.0,0.0,0.0,0.0,0.0,0.0,0.0,0.0,0.0,0.0,0.0,0.0,0.0,0.0,0.0,0.0,0.0,0.0,0.0,0.0,0.0,0.0,0.0,0.0,0.0,0.0,0.0,0.0,0.0,0.0,0.0,0.0,0.0,0.0,0.0,0.0,0.0,0.0,0.0,0.0,0.0,0.0,0.0,0.0,0.0,-1.3325,-1.5371,-1.5953,-1.5016,-1.4384,-1.3324,0.0,0.0,0.0,0.0,0.0,0.0,0.0,0.0,0.0,0.0,0.0,0.0,0.0,0.0,0.0,0.0,0.0,0.0,0.0,0.0,0.0,0.0,0.0,0.0,0.0,0.0,0.0,0.0,0.0,0.0,0.0,0.0,0.0,0.0,0.0,0.0,0.0,0.0,0.0,0.0,0.0,0.0,0.0,0.0,0.0,0.0,0.0,0.0,0.0,0.0,0.0,0.0,0.0,0.0,0.0,0.0,0.0,0.0,0.0,0.0,0.0,0.0,0.0,0.0,0.0,0.0,0.0,0.0,0.0,0.0,0.0,0.0,0.0,0.0,0.0,0.0,0.0,0.0,0.0,0.0,0.0,0.0,0.0,0.0,0.0,0.0,0.0,0.0,0.0,0.0,0.0,0.0,0.0,0.0,0.0,0.0,0.0,0.0,0.0,0.0,0.0,0.0,0.0,0.0,0.0,0.0,0.0,0.0,0.0,-1.3717,-1.4313,-1.4727,-1.497,-1.4406,-1.3722,0.0,0.0,0.0,0.0,0.0,0.0,0.0,0.0,0.0,0.0,0.0,0.0,0.0,0.0,0.0,0.0,0.0,0.0,0.0,0.0,0.0,0.0,0.0,0.0,0.0,0.0,0.0,0.0,0.0,0.0,0.0,0.0,0.0,0.0,0.0,0.0,0.0,0.0,0.0,0.0,0.0,0.0,0.0,0.0,0.0,0.0,0.0,0.0,0.0,0.0,0.0,0.0,0.0,0.0,0.0,0.0,0.0,0.0,0.0,0.0,0.0,0.0,0.0,0.0,0.0,0.0,0.0,0.0,0.0,0.0,0.0,0.0,0.0,0.0,0.0,0.0,0.0,0.0,0.0,0.0,0.0,0.0,0.0,0.0,0.0,0.0,0.0,0.0,0.0,0.0,0.0,0.0,0.0,0.0,0.0,0.0,0.0,0.0,0.0,0.0,0.0,0.0,0.0,0.0,0.0,0.0,0.0,0.0,-1.3086,-1.3899,-1.4249,-1.4524,-1.4659,-1.4057,-1.362,0.0,0.0,0.0,0.0,0.0,0.0,0.0,0.0,0.0,0.0,0.0,0.0,0.0,0.0,0.0,0.0,0.0,0.0,0.0,0.0,0.0,0.0,0.0,0.0,0.0,0.0,0.0,0.0,0.0,0.0,0.0,0.0,0.0,0.0,0.0,0.0,0.0,0.0,0.0,0.0,0.0,0.0,0.0,0.0,0.0,0.0,0.0,0.0,0.0,0.0,0.0,0.0,0.0,0.0,0.0,0.0,0.0,0.0,0.0,0.0,0.0,0.0,0.0,0.0,0.0,0.0,0.0,0.0,0.0,0.0,0.0,0.0,0.0,0.0,0.0,0.0,0.0,0.0,0.0,0.0,0.0,0.0,0.0,0.0,0.0,0.0,0.0,0.0,0.0,0.0,0.0,0.0,0.0,0.0,0.0,0.0,0.0,0.0,0.0,0.0,0.0,0.0,0.0,0.0,0.0,0.0,0.0,0.0,-1.3206,-1.371,-1.4442,-1.4551,-1.4039,-1.3569,-1.3362,0.0,0.0,0.0,0.0,0.0,0.0,0.0,0.0,0.0,0.0,0.0,0.0,0.0,0.0,0.0,0.0,0.0,0.0,0.0,0.0,0.0,0.0,0.0,0.0,0.0,0.0,0.0,0.0,0.0,0.0,0.0,0.0,0.0,0.0,0.0,0.0,0.0,0.0,0.0,0.0,0.0,0.0,0.0,0.0,0.0,0.0,0.0,0.0,0.0,0.0,0.0,0.0,0.0,0.0,0.0,0.0,0.0,0.0,0.0,0.0,0.0,0.0,0.0,0.0,0.0,0.0,0.0,0.0,0.0,0.0,0.0,0.0,0.0,0.0,0.0,0.0,0.0,0.0,0.0,0.0,0.0,0.0,0.0,0.0,0.0,0.0,0.0,0.0,0.0,0.0,0.0,0.0,0.0,0.0,0.0,0.0,0.0,0.0,0.0,0.0,0.0,0.0,0.0,0.0,0.0,0.0,0.0,0.0,-1.2255,-1.247,-1.24,-1.2494,-1.2784,-1.3784,-1.4015,0.0,0.0,0.0,0.0,0.0,0.0,0.0,0.0,0.0,0.0,0.0,0.0,0.0,0.0,0.0,0.0,0.0,0.0,0.0,0.0,0.0,0.0,0.0,0.0,0.0,0.0,0.0,0.0,0.0,0.0,0.0,0.0,0.0,0.0,0.0,0.0,0.0,0.0,0.0,0.0,0.0,0.0,0.0,0.0,0.0,0.0,0.0,0.0,-1.4178,0.0,0.0,0.0,0.0,0.0,0.0,0.0,0.0,0.0,0.0,0.0,0.0,0.0,0.0,0.0,0.0,0.0,0.0,0.0,0.0,0.0,0.0,0.0,0.0,0.0,0.0,0.0,0.0,0.0,0.0,0.0,0.0,0.0,0.0,0.0,0.0,0.0,0.0,0.0,0.0,0.0,0.0,0.0,0.0,0.0,0.0,0.0,0.0,0.0,0.0,0.0,0.0,0.0,0.0,0.0,0.0,0.0,0.0,0.0,-1.1878,-1.1827,-1.2081,-1.2317,-1.258,-1.4009,-1.435,0.0,0.0,0.0,0.0,0.0,0.0,0.0,0.0,0.0,0.0,0.0,0.0,0.0,0.0,0.0,0.0,0.0,0.0,0.0,0.0,0.0,0.0,0.0,0.0,0.0,0.0,0.0,0.0,0.0,0.0,0.0,0.0,0.0,0.0,0.0,0.0,0.0,0.0,0.0,0.0,0.0,0.0,0.0,0.0,0.0,0.0,0.0,0.0,0.0,0.0,0.0,0.0,0.0,0.0,0.0,0.0,0.0,0.0,0.0,0.0,0.0,0.0,0.0,0.0,0.0,0.0,0.0,0.0,0.0,0.0,0.0,0.0,0.0,0.0,0.0,0.0,0.0,0.0,0.0,0.0,0.0,0.0,0.0,0.0,0.0,0.0,0.0,0.0,0.0,0.0,0.0,0.0,0.0,0.0,0.0,0.0,0.0,0.0,0.0,0.0,0.0,0.0,0.0,0.0,0.0,0.0,0.0,-1.1549,-1.1692,-1.1542,-1.2331,-1.2773,-1.2739,-1.4211,-1.4473,-1.3386,0.0,0.0,0.0,0.0,0.0,0.0,0.0,0.0,0.0,0.0,0.0,0.0,0.0,0.0,0.0,0.0,0.0,0.0,0.0,0.0,0.0,0.0,0.0,0.0,0.0,0.0,0.0,0.0,0.0,0.0,0.0,0.0,0.0,0.0,0.0,0.0,0.0,0.0,-1.4021,-1.5219,0.0,0.0,0.0,0.0,0.0,0.0,0.0,0.0,-1.6597,0.0,0.0,0.0,0.0,0.0,0.0,0.0,0.0,0.0,0.0,0.0,0.0,0.0,0.0,0.0,0.0,0.0,0.0,0.0,0.0,0.0,0.0,0.0,0.0,0.0,0.0,0.0,0.0,0.0,0.0,0.0,0.0,0.0,0.0,0.0,0.0,0.0,0.0,0.0,0.0,0.0,0.0,0.0,0.0,0.0,0.0,0.0,0.0,0.0,0.0,0.0,0.0,0.0,0.0,0.0,0.0,-1.1496,-1.1367,-1.1366,-1.1511,-1.2028,-1.2473,-1.2815,-1.4217,-1.4402,-1.3163,0.0,0.0,0.0,0.0,0.0,0.0,0.0,0.0,0.0,0.0,0.0,0.0,0.0,0.0,0.0,0.0,0.0,0.0,0.0,0.0,0.0,0.0,0.0,0.0,0.0,0.0,0.0,0.0,0.0,0.0,0.0,0.0,0.0,0.0,0.0,0.0,0.0,0.0,0.0,-1.6185,-1.7107,0.0,0.0,0.0,0.0,0.0,0.0,0.0,0.0,-1.7019,0.0,0.0,0.0,0.0,0.0,0.0,0.0,0.0,0.0,0.0,0.0,0.0,0.0,0.0,0.0,0.0,0.0,0.0,0.0,0.0,0.0,0.0,0.0,0.0,0.0,0.0,0.0,0.0,0.0,0.0,0.0,0.0,0.0,0.0,0.0,0.0,0.0,0.0,0.0,0.0,0.0,0.0,0.0,0.0,0.0,0.0,0.0,0.0,0.0,0.0,0.0,0.0,0.0,0.0,0.0,-1.1631,-1.1326,-1.1477,-1.2144,-1.2188,-1.257,-1.3357,-1.4117,-1.3997,0.0,0.0,0.0,0.0,0.0,0.0,0.0,0.0,0.0,0.0,0.0,0.0,0.0,0.0,0.0,0.0,0.0,0.0,0.0,0.0,0.0,0.0,0.0,0.0,0.0,0.0,0.0,0.0,0.0,0.0,0.0,0.0,0.0,0.0,0.0,0.0,0.0,0.0,0.0,0.0,-1.6177,-1.6832,-1.7514,0.0,0.0,0.0,0.0,0.0,0.0,-1.6783,-1.7005,0.0,0.0,0.0,0.0,0.0,0.0,0.0,0.0,0.0,0.0,0.0,0.0,0.0,0.0,0.0,0.0,0.0,0.0,0.0,0.0,0.0,0.0,0.0,0.0,0.0,0.0,0.0,0.0,0.0,0.0,0.0,0.0,0.0,0.0,0.0,0.0,0.0,0.0,0.0,0.0,0.0,0.0,0.0,0.0,0.0,0.0,0.0,0.0,0.0,0.0,0.0,0.0,0.0,0.0,0.0,-1.1858,-1.1504,-1.178,-1.2744,-1.2489,-1.2857,-1.3899,-1.404,-1.3657,0.0,0.0,0.0,0.0,0.0,0.0,0.0,0.0,0.0,0.0,0.0,0.0,0.0,0.0,0.0,0.0,0.0,0.0,0.0,0.0,0.0,0.0,0.0,0.0,0.0,0.0,0.0,0.0,0.0,0.0,0.0,0.0,0.0,0.0,0.0,0.0,0.0,0.0,0.0,0.0,0.0,-1.6825,-1.7974,-1.791,0.0,0.0,0.0,0.0,-1.6989,-1.6939,0.0,0.0,0.0,0.0,0.0,0.0,0.0,0.0,0.0,0.0,0.0,0.0,0.0,0.0,0.0,0.0,0.0,0.0,0.0,0.0,0.0,0.0,0.0,0.0,0.0,0.0,0.0,0.0,0.0,0.0,0.0,0.0,0.0,0.0,0.0,0.0,0.0,0.0,0.0,0.0,0.0,0.0,0.0,0.0,0.0,0.0,0.0,0.0,0.0,0.0,0.0,0.0,0.0,0.0,0.0,0.0,-1.2265,-1.2045,-1.2206,-1.2748,-1.2794,-1.3218,-1.4046,-1.4102,-1.3627,0.0,0.0,0.0,0.0,0.0,0.0,0.0,0.0,0.0,0.0,0.0,0.0,0.0,0.0,0.0,0.0,0.0,0.0,0.0,0.0,0.0,0.0,0.0,0.0,0.0,0.0,0.0,0.0,0.0,0.0,0.0,0.0,0.0,0.0,0.0,0.0,0.0,0.0,0.0,0.0,0.0,-1.8146,-1.8262,-1.8037,-1.7867,0.0,0.0,-1.7175,-1.7159,-1.7316,0.0,0.0,0.0,0.0,0.0,0.0,0.0,0.0,0.0,0.0,0.0,0.0,0.0,0.0,0.0,0.0,0.0,0.0,0.0,0.0,0.0,0.0,0.0,0.0,0.0,0.0,0.0,0.0,0.0,0.0,0.0,0.0,0.0,0.0,0.0,0.0,0.0,0.0,0.0,0.0,0.0,0.0,0.0,0.0,0.0,0.0,0.0,0.0,0.0,0.0,0.0,0.0,0.0,0.0,0.0,-1.1078,-1.2396,-1.2105,-1.2427,-1.3382,-1.3086,-1.3262,-1.4011,-1.3713,-1.3039,0.0,0.0,0.0,0.0,0.0,0.0,0.0,0.0,0.0,0.0,0.0,0.0,0.0,0.0,0.0,0.0,0.0,0.0,0.0,0.0,0.0,0.0,0.0,0.0,0.0,0.0,0.0,0.0,0.0,0.0,0.0,0.0,0.0,0.0,0.0,0.0,0.0,0.0,0.0,0.0,0.0,0.0,-1.818,-1.7888,0.0,0.0,0.0,-1.7031,-1.7035,0.0,0.0,0.0,0.0,0.0,0.0,0.0,0.0,0.0,0.0,0.0,0.0,0.0,0.0,0.0,0.0,0.0,0.0,0.0,0.0,0.0,0.0,0.0,0.0,0.0,0.0,0.0,0.0,0.0,0.0,0.0,0.0,0.0,0.0,0.0,0.0,0.0,0.0,0.0,0.0,0.0,0.0,0.0,0.0,0.0,0.0,0.0,0.0,0.0,0.0,0.0,0.0,0.0,0.0,0.0,0.0,0.0,-1.2375,-1.2222,-1.2693,-1.3786,-1.3211,-1.3156,-1.3742,-1.3197,0.0,0.0,0.0,0.0,0.0,0.0,0.0,0.0,0.0,0.0,0.0,0.0,0.0,0.0,0.0,0.0,0.0,0.0,0.0,0.0,0.0,0.0,0.0,0.0,0.0,0.0,0.0,-1.1884,0.0,0.0,0.0,0.0,0.0,0.0,0.0,0.0,0.0,0.0,0.0,0.0,0.0,0.0,-1.7783,-1.8398,-1.7996,-1.7607,0.0,0.0,-1.6909,-1.6985,-1.6985,-1.7051,0.0,0.0,0.0,0.0,0.0,0.0,0.0,0.0,0.0,0.0,0.0,0.0,0.0,0.0,0.0,0.0,0.0,0.0,0.0,0.0,0.0,0.0,0.0,0.0,0.0,0.0,0.0,0.0,0.0,0.0,0.0,0.0,0.0,0.0,0.0,0.0,0.0,0.0,0.0,0.0,0.0,0.0,0.0,0.0,0.0,0.0,0.0,0.0,0.0,0.0,0.0,0.0,0.0,0.0,-1.1339,-1.2109,-1.2534,-1.3043,-1.3679,-1.3116,-1.2916,-1.3144,-1.2588,-1.1756,0.0,0.0,0.0,0.0,0.0,0.0,0.0,0.0,0.0,0.0,0.0,0.0,0.0,0.0,0.0,0.0,0.0,0.0,0.0,0.0,0.0,0.0,0.0,0.0,0.0,0.0,0.0,0.0,0.0,0.0,0.0,0.0,0.0,0.0,0.0,0.0,0.0,0.0,0.0,0.0,0.0,-1.9095,-1.9214,-1.8725,-1.817,0.0,-1.7187,-1.6892,-1.7142,-1.7328,-1.7451,-1.7471,0.0,0.0,0.0,0.0,0.0,0.0,0.0,0.0,0.0,0.0,0.0,0.0,0.0,0.0,0.0,0.0,0.0,0.0,0.0,0.0,0.0,0.0,0.0,0.0,0.0,0.0,0.0,0.0,0.0,0.0,0.0,0.0,0.0,0.0,0.0,0.0,0.0,0.0,0.0,0.0,0.0,0.0,0.0,0.0,0.0,0.0,0.0,0.0,0.0,0.0,0.0,0.0,0.0,-1.1422,-1.2278,-1.2683,-1.3195,-1.3802,-1.2849,-1.2375,-1.2467,-1.1935,-1.1229,0.0,0.0,0.0,0.0,0.0,0.0,0.0,0.0,0.0,0.0,0.0,0.0,0.0,0.0,0.0,0.0,0.0,0.0,0.0,0.0,0.0,0.0,0.0,0.0,0.0,0.0,0.0,0.0,-1.3109,-1.3269,-1.3244,0.0,0.0,0.0,0.0,0.0,0.0,0.0,0.0,0.0,0.0,-1.9636,-1.9192,-1.8671,0.0,0.0,-1.724,-1.707,-1.6806,-1.723,-1.7411,-1.702,-1.7093,0.0,0.0,0.0,0.0,0.0,0.0,0.0,0.0,0.0,0.0,0.0,0.0,0.0,0.0,0.0,0.0,0.0,0.0,0.0,0.0,0.0,0.0,0.0,0.0,0.0,0.0,0.0,0.0,0.0,0.0,0.0,0.0,0.0,0.0,0.0,0.0,0.0,0.0,0.0,0.0,0.0,0.0,0.0,0.0,0.0,0.0,0.0,0.0,0.0,0.0,0.0,0.0,-1.1751,-1.2388,-1.2751,-1.3293,-1.3937,-1.2493,-1.1749,-1.1785,-1.1302,-1.0629,0.0,0.0,0.0,0.0,0.0,0.0,0.0,0.0,0.0,0.0,0.0,0.0,0.0,0.0,0.0,0.0,0.0,0.0,0.0,0.0,0.0,0.0,0.0,0.0,0.0,0.0,0.0,0.0,-1.3063,-1.2887,-1.2862,0.0,0.0,0.0,0.0,0.0,0.0,0.0,0.0,0.0,0.0,-2.0011,-1.9426,-1.8747,-1.8084,-1.7534,-1.7239,-1.7132,-1.7233,-1.7551,-1.775,-1.7561,0.0,0.0,0.0,0.0,0.0,0.0,0.0,0.0,0.0,0.0,0.0,0.0,0.0,0.0,0.0,0.0,0.0,0.0,0.0,0.0,0.0,0.0,0.0,0.0,0.0,0.0,0.0,-1.0767,0.0,0.0,-0.9241,0.0,0.0,0.0,0.0,0.0,0.0,0.0,0.0,0.0,0.0,0.0,0.0,0.0,0.0,0.0,0.0,0.0,0.0,0.0,0.0,0.0,0.0,-1.2417,-1.2423,-1.2855,-1.3363,-1.3845,-1.2089,-1.1148,-1.1122,-1.0664,-0.9984,-0.9085,0.0,0.0,0.0,0.0,0.0,0.0,0.0,0.0,0.0,0.0,0.0,0.0,0.0,0.0,0.0,0.0,0.0,0.0,0.0,0.0,0.0,0.0,0.0,0.0,0.0,0.0,-1.3168,-1.2602,-1.2213,0.0,0.0,0.0,0.0,0.0,0.0,0.0,0.0,0.0,-1.9423,-1.9975,-2.0194,-2.0161,-1.9059,-1.8266,-1.8254,-1.7253,-1.7029,-1.8634,-1.8551,-1.8593,0.0,0.0,0.0,0.0,0.0,0.0,0.0,0.0,0.0,0.0,0.0,0.0,0.0,0.0,0.0,0.0,0.0,0.0,0.0,0.0,0.0,0.0,0.0,0.0,0.0,0.0,0.0,-1.2477,-1.2875,0.0,0.0,0.0,0.0,0.0,0.0,0.0,0.0,0.0,0.0,0.0,-0.9973,-1.0301,0.0,0.0,0.0,0.0,0.0,0.0,0.0,0.0,0.0,0.0,0.0,0.0,-1.2474,-1.2441,-1.2889,-1.334,-1.3653,-1.205,-1.107,-1.0842,-1.0074,-0.9599,-0.9481,0.0,0.0,0.0,0.0,0.0,0.0,0.0,0.0,0.0,0.0,0.0,0.0,0.0,0.0,0.0,0.0,0.0,0.0,0.0,0.0,0.0,0.0,0.0,0.0,0.0,-1.2444,0.0,0.0,0.0,0.0,0.0,0.0,0.0,0.0,0.0,0.0,0.0,-1.7653,-1.853,-1.9383,-2.0095,-2.0538,-1.9911,-1.9215,0.0,0.0,0.0,0.0,0.0,0.0,0.0,0.0,0.0,0.0,0.0,0.0,0.0,0.0,-2.1166,-1.9837,-1.9189,-1.8955,-1.9306,0.0,0.0,0.0,0.0,0.0,0.0,0.0,0.0,0.0,0.0,0.0,0.0,0.0,0.0,-1.3729,-1.4163,-1.2881,0.0,0.0,0.0,0.0,0.0,0.0,0.0,0.0,-1.0539,-1.0582,-1.0471,-1.0761,-1.09,0.0,-1.0968,-1.0807,0.0,0.0,0.0,0.0,0.0,0.0,0.0,0.0,-1.2811,-1.2777,-1.3044,-1.3228,-1.3255,-1.1938,-1.095,-1.0421,-0.9486,-0.9239,-0.9784,-1.028,-1.0441,0.0,0.0,0.0,0.0,0.0,0.0,0.0,0.0,0.0,0.0,0.0,0.0,0.0,0.0,0.0,0.0,0.0,0.0,0.0,0.0,0.0,0.0,0.0,-1.1689,0.0,0.0,0.0,0.0,0.0,0.0,0.0,0.0,0.0,-1.4585,-1.6035,-1.723,-1.7773,-1.8898,-1.9801,-2.0216,0.0,0.0,0.0,0.0,0.0,0.0,0.0,-1.9633,-1.9703,-1.9996,-2.0497,-2.1256,-2.1905,-2.231,-2.2347,0.0,0.0,-2.0738,-2.0111,-1.9926,-2.0315,-2.0067,-1.994,-2.0376,-2.0505,-2.059,0.0,0.0,0.0,0.0,0.0,0.0,0.0,0.0,-1.5341,-1.4786,0.0,-1.3488,0.0,0.0,0.0,0.0,0.0,-1.1767,0.0,0.0,-1.1591,-1.1369,-1.0936,-1.0916,-1.09,-1.09,-1.109,-1.1095,-1.0914,-1.1301,0.0,0.0,0.0,0.0,0.0,0.0,-1.3459,-1.3331,-1.3237,-1.3063,-1.2812,-1.1782,-1.0797,-0.9892,-0.8923,-0.8881,-0.9864,-1.0036,-1.0244,-1.0559,-1.0397,0.0,0.0,0.0,0.0,0.0,0.0,0.0,0.0,0.0,0.0,0.0,0.0,0.0,0.0,0.0,0.0,0.0,0.0,0.0,0.0,-1.1343,0.0,0.0,0.0,0.0,0.0,0.0,0.0,0.0,0.0,0.0,-1.4579,-1.5752,-1.6835,-1.7339,0.0,0.0,0.0,0.0,-1.9135,-1.9816,-1.8975,-1.8754,-2.0139,-2.0112,-2.0154,-2.0847,0.0,0.0,-2.22,-2.2274,-2.2302,-2.2394,-2.2399,-2.2399,-2.2357,-2.1615,-2.1324,-2.19,-2.1504,-2.138,-2.1914,-2.2135,-2.23,-1.8891,0.0,0.0,0.0,0.0,-1.7699,-1.7889,-1.811,-1.6721,-1.6384,-1.6747,-1.5359,0.0,0.0,0.0,0.0,0.0,0.0,-1.211,-1.2089,-1.1742,-1.1519,-1.1405,-1.105,-1.09,-1.09,-1.0962,-1.0962,-1.0916,-1.1342,-1.1869,-1.2431,0.0,0.0,0.0,0.0,-1.2931,-1.2855,-1.3064,-1.3168,-1.3078,-1.2187,-1.0919,-0.9309,-0.8703,-0.846,-0.8566,-0.9509,-0.9996,-0.9969,-1.0264,0.0,0.0,0.0,0.0,0.0,0.0,0.0,0.0,0.0,0.0,0.0,0.0,0.0,0.0,0.0,0.0,0.0,0.0,0.0,-1.1338,-1.1316,-1.1341,0.0,0.0,0.0,0.0,0.0,0.0,0.0,0.0,0.0,-1.5082,-1.5293,-1.5937,0.0,0.0,-1.7988,-1.9768,-1.9307,-1.9175,-2.0356,-1.9654,0.0,-2.0001,-2.0167,-2.0335,-2.078,-2.1222,-2.1616,-2.1957,-2.2009,-2.2092,-2.2279,-2.2372,-2.2399,-2.2382,-2.2099,-2.1964,-2.2253,-2.2029,-2.1883,-2.2278,-2.2382,-2.2293,-1.9933,-1.9538,-1.953,-1.9296,-1.8936,-1.894,-1.9178,-1.948,-1.7767,-1.7374,-1.7827,-1.6074,-1.5121,-1.4746,-1.3967,0.0,0.0,0.0,-1.2523,-1.253,-1.2079,-1.1788,-1.1571,-1.1112,-1.09,-1.09,-1.1066,-1.1199,-1.1335,-1.177,-1.2293,-1.2827,0.0,0.0,-1.2632,-1.3009,-1.2991,-1.2626,-1.2995,-1.3091,-1.2883,-1.1767,-1.071,-0.971,-0.9011,-0.8715,-0.8868,-0.9661,-1.0183,-1.0281,-1.0531,-1.0735,0.0,0.0,0.0,0.0,0.0,0.0,0.0,0.0,0.0,0.0,0.0,-1.1077,-1.0607,0.0,0.0,0.0,-1.0502,-1.1134,-1.1577,-1.1578,0.0,0.0,0.0,0.0,0.0,0.0,0.0,-1.4692,-1.5204,-1.5554,-1.5493,-1.5398,-1.5652,-1.6583,-1.6773,-1.7524,-1.9443,0.0,-1.9423,-2.0549,-2.0093,-1.9699,-1.9887,-2.0096,-2.034,-2.072,-2.1047,-2.1401,-2.1796,-2.1884,-2.1957,-2.2141,-2.2212,-2.2226,-2.2178,-2.2067,-2.2093,-2.2407,-2.2245,-2.213,-2.2396,-2.2372,-2.2217,-2.081,-2.081,-2.0811,-2.0803,-2.0802,-2.0819,-2.0811,-2.0645,-1.8635,-1.7951,-1.8135,-1.6158,-1.5233,-1.513,-1.4069,0.0,-1.424,-1.3407,-1.3002,-1.293,-1.2545,-1.211,-1.169,-1.124,-1.1014,-1.1009,-1.1378,-1.1738,-1.2062,-1.2456,-1.2981,-1.3631,-1.3559,-1.3106,-1.2413,-1.3258,-1.3374,-1.2663,-1.3014,-1.2935,-1.2397,-1.0987,-1.0384,-1.0686,-0.9695,-0.9467,-1.0109,-1.0291,-1.0606,-1.1091,-1.0996,-1.1025,-1.1272,0.0,0.0,0.0,0.0,0.0,0.0,0.0,0.0,0.0,0.0,0.0,0.0,0.0,0.0,-1.0386,-1.0357,0.0,-1.2039,-1.2022,0.0,0.0,0.0,-1.365,-1.3686,-1.4499,-1.5073,-1.5067,0.0,0.0,-1.5814,-1.5778,-1.5788,-1.5808,-1.6611,-1.753,-1.8476,-1.8994,-1.9615,-2.035,-2.0222,-1.9971,-1.9846,-1.999,-2.0229,-2.0662,-2.0861,-2.1135,-2.1601,-2.1766,-2.1845,-2.1932,-2.1961,-2.1926,-2.1796,-2.1759,-2.1886,-2.2318,-2.2195,-2.2056,-2.2307,-2.2293,-2.2115,-2.081,-2.081,-2.081,-2.081,-2.081,-2.081,-2.081,-2.0742,-2.0246,-1.9371,-1.8261,-1.775,-1.6676,-1.5264,-1.5085,-1.4715,-1.4216,-1.4106,-1.3829,-1.34,-1.2979,-1.271,-1.2586,-1.2151,-1.197,-1.1965,-1.2063,-1.222,-1.2472,-1.291,-1.314,-1.322,-1.3993,-1.4042,-1.3367,-1.3155,-1.3027,-1.2986,-1.3081,-1.2912,-1.2474,-1.1759,-1.1208,-1.0859,-1.0543,-1.0215,-0.9932,-1.0609,-1.0841,-1.054,-1.0864,-1.1106,-1.1217,-1.1117,0.0,0.0,0.0,0.0,0.0,0.0,0.0,0.0,0.0,-1.184,-1.0882,0.0,-1.1675,0.0,-1.0906,-1.136,-1.245,-1.2522,0.0,0.0,-1.4577,-1.4785,-1.5202,-1.5472,-1.5606,-1.5628,-1.589,-1.6013,-1.582,-1.5617,-1.5584,-1.578,-1.6011,-1.6358,-1.6965,-1.7589,-1.8418,-1.9491,-1.9651,-1.9597,-1.9902,-1.9998,-2.0146,-2.0441,-2.0526,-2.0687,-2.1126,-2.1213,-2.1299,-2.1553,-2.1622,-2.1591,-2.1569,-2.1472,-2.1449,-2.1698,-2.1882,-2.2004,-2.2079,-2.2052,-2.1796,-2.0202,-2.0803,-2.081,-2.081,-2.081,-2.081,-2.081,-2.0719,-1.9792,-1.8847,-1.7917,-1.6953,-1.5971,-1.5045,-1.4903,-1.4634,-1.4298,-1.4111,-1.3876,-1.3589,-1.3116,-1.2899,-1.2884,-1.2488,-1.234,-1.243,-1.2537,-1.2818,-1.3275,-1.3619,-1.3834,-1.3947,-1.4564,-1.4687,-1.4317,-1.3622,-1.3182,-1.2977,-1.2992,-1.2979,-1.2894,-1.2355,-1.1935,-1.1699,-1.1418,-1.1168,-1.0873,-1.1526,-1.1579,-1.0978,-1.1347,-1.1465,-1.122,-1.1167,-1.1261,0.0,0.0,0.0,0.0,0.0,0.0,0.0,0.0,0.0,0.0,0.0,-1.2295,-1.1861,-1.1862,-1.2342,-1.3454,-1.3651,-1.4183,-1.5235,-1.5333,-1.5474,-1.5762,-1.5814,-1.5814,-1.5814,-1.5925,-1.5969,-1.5802,-1.5671,-1.5441,-1.5202,-1.5316,-1.5795,-1.6726,-1.7428,-1.8249,-1.9274,-1.9672,-1.9877,-2.011,-2.0043,-2.0076,-2.0295,-2.0381,-2.0526,-2.0845,-2.0966,-2.1055,-2.1229,-2.1331,-2.1324,-2.1222,-2.1119,-2.1095,-2.1284,-2.1255,-2.1328,-2.169,-2.1749,-2.1515,-1.936,-2.05,-2.0517,-2.0404,-2.0249,-2.0448,-2.0517,-2.0385,-1.8325,-1.7391,-1.7185,-1.5181,-1.4433,-1.464,-1.4276,-1.4194,-1.4326,-1.3905,-1.3658,-1.3589,-1.3173,-1.2961,-1.2889,-1.2578,-1.2493,-1.2627,-1.2811,-1.3288,-1.3979,-1.4242,-1.4569,-1.4999,-1.5073,-1.5051,-1.4982,-1.4243,-1.349,-1.2781,-1.2866,-1.3058,-1.3361,-1.2821,-1.264,-1.2769,-1.2376,-1.219,-1.2252,-1.2597,-1.2444,-1.1829,-1.2034,-1.1961,-1.1445,-1.1395,-1.1611,0.0,-1.2112,0.0,0.0,0.0,0.0,0.0,0.0,0.0,0.0,-1.2826,-1.2925,-1.3006,-1.3104,-1.3606,-1.4629,-1.4949,-1.5259,-1.5776,-1.5814,-1.5814,-1.5814,-1.5814,-1.5814,-1.5814,-1.5814,-1.5802,-1.569,-1.5642,-1.5247,-1.4528,-1.4586,-1.5229,-1.6598,-1.746,-1.818,-1.896,-1.9696,-1.9855,-1.9811,-1.9733,-1.9656,-1.9911,-1.9942,-2.0233,-2.0506,-2.0575,-2.0679,-2.0767,-2.0775,-2.0727,-2.0558,-2.0494,-2.0567,-2.0726,-2.0331,-2.0245,-2.1009,-2.1143,-2.107,-1.8758,-1.9007,-1.9008,-1.8322,-1.7332,-1.8518,-1.9016,-1.8909,-1.7318,-1.6324,-1.5742,-1.4757,-1.4363,-1.4547,-1.4554,-1.4438,-1.4222,-1.4251,-1.4017,-1.3615,-1.3504,-1.3261,-1.291,-1.299,-1.2869,-1.2637,-1.2811,-1.3049,-1.3379,-1.384,-1.424,-1.454,-1.4918,-1.4907,-1.4517,0.0,0.0,0.0,-1.2887,-1.3123,-1.324,-1.3276,-1.3282,-1.3276,-1.3432,0.0,-1.2653,-1.2924,-1.2784,-1.2156,-1.2159,0.0,0.0,0.0,0.0,0.0,0.0,0.0,0.0,0.0,0.0,0.0,-1.3283,-1.3448,-1.3362,-1.4016,-1.4543,-1.4709,-1.4607,-1.4782,-1.5433,-1.5383,-1.5535,-1.6055,-1.5931,-1.5814,-1.5814,-1.5814,-1.5814,-1.5814,-1.5808,-1.5624,-1.5205,-1.4832,-1.453,-1.4315,-1.4006,-1.4097,-1.4768,-1.6044,-1.6876,-1.7109,-1.8029,-1.8452,-1.8296,-1.824,-1.8332,-1.836,-1.8504,-1.887,-1.9463,-1.924,-1.9202,-1.9696,-1.9452,-1.9144,-1.9128,-1.9096,-1.9183,-1.918,-1.9084,-1.9254,-2.0158,-1.9927,-1.9407,-1.6776,0.0,-1.7226,-1.667,0.0,-1.5868,-1.6003,-1.6207,-1.6487,-1.5674,-1.4147,-1.3783,-1.3668,-1.381,-1.3902,-1.3891,-1.3795,-1.3947,-1.3858,-1.3576,-1.3359,-1.3173,-1.3047,-1.2959,-1.2915,-1.2895,-1.28,-1.2874,-1.3088,-1.3172,-1.3493,-1.4102,-1.435,-1.4432,-1.4373,-1.3642,-1.3006,-1.252,-1.2656,-1.2832,-1.2994,-1.3058,-1.3076,-1.3071,-1.335,0.0,0.0,0.0,0.0,0.0,0.0,0.0,0.0,0.0,0.0,-1.312,-1.2997,-1.3053,-1.3405,-1.3197,-1.3248,-1.3772,-1.4482,-1.4737,-1.4351,-1.477,-1.5223,-1.564,-1.545,-1.5545,-1.6113,-1.6021,-1.5993,-1.6253,-1.6188,-1.6094,-1.6076,-1.5726,-1.5504,-1.5474,-1.5254,-1.4941,-1.4694,-1.445,-1.418,-1.3933,-1.368,-1.3493,-1.3641,-1.4955,-1.6196,-1.6962,-1.7668,-1.8146,-1.8192,-1.809,-1.7989,-1.8114,-1.8231,-1.8424,-1.8708,-1.8571,-1.8563,-1.8921,-1.8741,-1.8552,-1.8597,-1.8612,-1.8627,-1.861,-1.8352,-1.8262,-1.8787,-1.8869,-1.881,-1.4635,-1.532,-1.5315,-1.4982,-1.4364,-1.3481,-1.331,-1.3764,0.0,0.0,0.0,-1.2881,-1.2978,-1.3118,-1.3118,-1.3199,-1.3314,-1.3377,-1.3355,-1.3263,-1.2891,-1.2722,-1.2729,-1.2477,-1.2456,-1.268,-1.2438,-1.2402,-1.2582,-1.2367,-1.2648,-1.3346,-1.3499,-1.3667,-1.384,-1.3072,-1.2513,-1.2233,-1.2342,-1.2514,-1.2733,-1.2726,-1.2739,-1.2721,-1.2914,-1.299,-1.2873,-1.3446,-1.3477,-1.2868,-1.3156,-1.3091,-1.2586,-1.2574,-1.2789,-1.3271,-1.3234,-1.3417,-1.3911,-1.3801,-1.3979,-1.4616,-1.5421,-1.5735,-1.5383,-1.5453,-1.573,-1.6299,-1.6069,-1.6136,-1.6667,-1.6534,-1.6426,-1.6414,-1.6377,-1.6331,-1.6114,-1.5541,-1.5088,-1.4874,-1.4483,-1.4161,-1.4077,-1.4093,-1.3951,-1.3487,-1.333,-1.3222,-1.3031,-1.4126,-1.5623,-1.688,-1.7311,-1.7753,-1.8066,-1.7965,-1.7967,-1.7746,-1.7942,-1.8089,-1.8015,-1.7969,-1.8022,-1.8191,-1.8174,-1.8064,-1.8109,-1.8039,-1.8155,-1.8199,-1.7746,-1.7318,-1.7429,-1.7856,-1.8193,-1.3662,-1.3473,-1.3481,-1.2725,-1.1592,-1.2656,-1.3241,-1.3406,-1.3216,-1.2972,-1.2749,-1.2856,-1.3007,-1.3175,-1.2881,-1.2876,-1.3045,-1.2779,-1.2469,-1.2122,-1.2083,-1.1677,-1.1003,-1.1197,-1.11,-1.0749,-1.1007,-1.1094,-1.1086,-1.1487,-1.1781,-1.1952,-1.2362,-1.2399,-1.2027,-1.1812,-1.1507,-1.1137,-1.2029,-1.2508,-1.2544,-1.275,-1.2849,-1.2785,-1.282,-1.2803,-1.2739,-1.3048,-1.3102,-1.2906,-1.3264,-1.3486,-1.3507,-1.3595,-1.3816,-1.4078,-1.3812,-1.3647,-1.3712,-1.3465,-1.3743,-1.4759,-1.5242,-1.5576,-1.5875,-1.6369,-1.6704,-1.6802,-1.6735,-1.6771,-1.6854,-1.6629,-1.6457,-1.6457,-1.6312,-1.5923,-1.5187,-1.4934,-1.4529,-1.3794,-1.381,-1.3646,-1.3298,-1.3419,-1.3402,-1.2969,-1.2908,-1.2794,-1.2869,-1.3395,-1.4474,-1.5586,-1.5818,-1.5991,-1.6649,-1.6549,-1.6607,-1.6477,-1.6584,-1.6864,-1.7335,-1.6939,-1.678,-1.7334,-1.7041,-1.6731,-1.6746,-1.67,-1.6811,-1.6834,-1.6694,-1.6616,-1.6638,-1.6782,-1.6805,-1.2107,-1.1739,-1.1653,-1.117,-1.0477,-1.1371,-1.1845,-1.1996,-1.193,-1.21,-1.2425,-1.2472,-1.2618,-1.2793,-1.2744,-1.2561,-1.2287,-1.2216,-1.194,-1.1563,-1.1308,-1.1058,-1.0778,-1.0699,-1.0587,-1.0477,-1.0448,-1.0438,-1.0385,-1.0508,-1.0805,-1.1262,-1.1732,-1.1844,-1.1595,-1.1313,-1.1081,-1.0921,-1.1603,-1.1951,-1.1951,-1.2084,-1.2228,-1.2425,-1.255,-1.2603,-1.2538,-1.2797,-1.2897,-1.2803,-1.2978,-1.3151,-1.3374,-1.3435,-1.3577,-1.3788,-1.3632,-1.351,-1.3442,-1.3596,-1.391,-1.4425,-1.5018,-1.5569,-1.6064,-1.6784,-1.7094,-1.6825,-1.6884,-1.6926,-1.6803,-1.6442,-1.6213,-1.6228,-1.5935,-1.5437,-1.4794,-1.4279,-1.3745,-1.308,-1.2743,-1.2573,-1.2513,-1.2644,-1.2775,-1.2663,-1.2692,-1.2692,-1.2692,-1.2945,-1.3618,-1.4861,-1.5363,-1.5802,-1.6333,-1.6474,-1.6436,-1.6336,-1.6382,-1.6491,-1.6747,-1.6331,-1.6298,-1.6533,-1.6285,-1.6107,-1.6131,-1.6131,-1.6151,-1.6234,-1.6205,-1.6213,-1.6262,-1.6297,-1.6303,-1.0537,-1.0151,-1.0068,-0.9899,-0.9742,-1.0038,-1.0254,-1.0395,-1.0719,-1.1183,-1.1683,-1.1899,-1.2052,-1.2124,-1.2191,-1.1936,-1.1538,-1.15,-1.1291,-1.0899,-1.053,-1.0414,-1.0441,-1.0168,-1.0118,-1.0215,-1.0049,-0.9951,-0.9883,-0.9669,-0.9811,-1.0367,-1.0702,-1.0914,-1.1005,-1.0748,-1.0601,-1.0659,-1.1029,-1.1268,-1.1367,-1.1362,-1.1566,-1.1944,-1.2162,-1.2288,-1.2324,-1.2603,-1.2697,-1.265,-1.2703,-1.2784,-1.2824,-1.2969,-1.3045,-1.308,-1.3162,-1.3203,-1.3136,-1.3509,-1.3862,-1.4061,-1.4742,-1.5369,-1.5865,-1.6764,-1.7158,-1.6822,-1.6877,-1.6835,-1.6463,-1.6132,-1.5885,-1.579,-1.5378,-1.4847,-1.428,-1.361,-1.2889,-1.231,-1.1786,-1.1638,-1.1829,-1.1944,-1.2089,-1.2329,-1.2431,-1.2431,-1.2425,-1.2425,-1.2949,-1.3955,-1.492,-1.5642,-1.6267,-1.6586,-1.6635,-1.6463,-1.6535,-1.6525,-1.6398,-1.6204,-1.5983,-1.5925,-1.5678,-1.5572,-1.5653,-1.5714,-1.5795,-1.5942,-1.5997,-1.5944,-1.5831,-1.5685,-1.5887,-0.9266,-0.8897,-0.8921,-0.8851,-0.8866,-0.8956,-0.9034,-0.9083,-0.9167,-0.9603,-1.0291,-1.101,-1.1216,-1.0948,-1.0822,-1.0768,-1.075,-1.0439,-1.0103,-0.9805,-0.9705,-0.9515,-0.9268,-0.9274,-0.9252,-0.9217,-0.943,-0.9457,-0.9344,-0.9152,-0.8891,-0.8582,-0.8582,-0.888,-0.9236,-0.9576,-0.976,-0.9808,-1.021,-1.0582,-1.0935,-1.0954,-1.1137,-1.1547,-1.1566,-1.1761,-1.2113,-1.2372,-1.249,-1.2467,-1.2709,-1.2625,-1.2169,-1.253,-1.2596,-1.2143,-1.2513,-1.2745,-1.2751,-1.2799,-1.3161,-1.3852,-1.4412,-1.4773,-1.4909,-1.6003,-1.6811,-1.6793,-1.6856,-1.6537,-1.5828,-1.5611,-1.5426,-1.5139,-1.4704,-1.4148,-1.3287,-1.2691,-1.2046,-1.1162,-1.1201,-1.1255,-1.1367,-1.151,-1.1638,-1.1761,-1.1774,-1.1774,-1.1756,-1.1744,-1.1933,-1.2761,-1.384,-1.4941,-1.561,-1.627,-1.6353,-1.6418,-1.6457,-1.6394,-1.6246,-1.5818,-1.5327,-1.551,-1.489,-1.4684,-1.5058,-1.5196,-1.53,-1.5612,-1.569,-1.5632,-1.5075,-1.4777,-1.4956,-0.903,-0.8869,-0.8804,-0.8768,-0.8768,-0.8853,-0.8994,-0.909,-0.9144,-0.928,-0.9433,-0.9678,-1.0077,-1.0588,-1.0535,-1.0339,-1.0053,-0.9891,-0.9602,-0.926,-0.9243,-0.9154,-0.9008,-0.8834,-0.8744,-0.8683,-0.8744,-0.872,-0.8651,-0.8622,-0.848,-0.832,-0.8296,-0.8402,-0.8602,-0.8756,-0.8837,-0.887,-0.9019,-0.9339,-0.977,-1.0283,-1.0731,-1.1081,-1.1137,-1.133,-1.17,-1.1878,-1.2072,-1.2276,-1.2425,-1.2466,-1.2367,-1.253,-1.2566,-1.2442,-1.2594,-1.2692,-1.2692,-1.2692,-1.2835,-1.3173,-1.354,-1.3896,-1.4262,-1.4957,-1.5498,-1.5964,-1.6177,-1.6089,-1.5561,-1.4899,-1.4428,-1.4216,-1.3603,-1.2908,-1.2243,-1.2004,-1.1583,-1.0972,-1.0918,-1.104,-1.1199,-1.1468,-1.1664,-1.1664,-1.1608,-1.1529,-1.1547,-1.1529,-1.1609,-1.1935,-1.2779,-1.3708,-1.4546,-1.4926,-1.5221,-1.5461,-1.5776,-1.5985,-1.5931,-1.5704,-1.5345,-1.5316,-1.46,-1.4353,-1.4954,-1.4681,-1.46,-1.5072,-1.5216,-1.5137,-1.5222,-1.5155,-1.5295,-0.8378,-0.837,-0.8374,-0.8362,-0.8382,-0.85,-0.8639,-0.8748,-0.8703,-0.8635,-0.8545,-0.8398,-0.8855,-0.9634,-0.9724,-0.9471,-0.9134,-0.9071,-0.8931,-0.8659,-0.8639,-0.8643,-0.8618,-0.8439,-0.8337,-0.8316,-0.8243,-0.8157,-0.8091,-0.8099,-0.8086,-0.7963,-0.7946,-0.8008,-0.8127,-0.8131,-0.8214,-0.83,-0.8296,-0.8484,-0.885,-0.9423,-1.0069,-1.0654,-1.0736,-1.0935,-1.1311,-1.1407,-1.1568,-1.1849,-1.2,-1.2128,-1.2218,-1.2336,-1.2473,-1.2591,-1.2567,-1.2544,-1.2544,-1.2538,-1.252,-1.2514,-1.2696,-1.3007,-1.3423,-1.3902,-1.4398,-1.4845,-1.5303,-1.5453,-1.5094,-1.4349,-1.3751,-1.3434,-1.2643,-1.2022,-1.1669,-1.1514,-1.1266,-1.0884,-1.0841,-1.085,-1.104,-1.1255,-1.1394,-1.1386,-1.1362,-1.1324,-1.1324,-1.1255,-1.1239,-1.1217,-1.1634,-1.2359,-1.3419,-1.4071,-1.4191,-1.4514,-1.505,-1.5398,-1.537,-1.5166,-1.4902,-1.4471,-1.4116,-1.4172,-1.4632,-1.4413,-1.4405,-1.4807,-1.4886,-1.4771,-1.4984,-1.5186,-1.4929,-0.6807,-0.687,-0.7136,-0.7314,-0.7297,-0.7458,-0.7499,-0.7593,-0.7294,-0.728,-0.7562,-0.7496,-0.7615,-0.7885,-0.7935,-0.7859,-0.7823,-0.7876,-0.7889,-0.7827,-0.7807,-0.7762,-0.7758,-0.7863,-0.7916,-0.7953,-0.8037,-0.7968,-0.7724,-0.7724,-0.7492,-0.7129,-0.7147,-0.7314,-0.7641,-0.7703,-0.7914,-0.8131,-0.8152,-0.8275,-0.8337,-0.8374,-0.9039,-1.0093,-1.0283,-1.0448,-1.0845,-1.0957,-1.1038,-1.107,-1.1542,-1.1596,-1.1238,-1.1801,-1.2156,-1.2126,-1.2108,-1.2126,-1.2119,-1.2095,-1.2053,-1.1976,-1.2103,-1.2169,-1.215,-1.3008,-1.3593,-1.3688,-1.4303,-1.4564,-1.4275,-1.4068,-1.3622,-1.2802,-1.2253,-1.185,-1.1621,-1.1257,-1.0957,-1.0867,-1.0808,-1.0741,-1.0649,-1.0635,-1.0755,-1.0755,-1.0697,-1.0717,-1.0774,-1.0717,-1.0673,-1.0597,-1.0693,-1.1013,-1.2306,-1.2983,-1.367,-1.3959,-1.4055,-1.4659,-1.4478,-1.4254,-1.3951,-1.3747,-1.3614,-1.3775,-1.4274,-1.4636,-1.4891,-1.4998,-1.4655,-1.4576,-1.479,-1.4108,-1.4023,-0.6707,-0.6707,-0.6834,-0.6877,-0.6904,-0.7034,-0.716,-0.7252,-0.7262,-0.7381,-0.7523,-0.7276,-0.7192,-0.7227,-0.6985,-0.7171,-0.7662,-0.7682,-0.7682,-0.7682,-0.7682,-0.7731,-0.7804,-0.7663,-0.7621,-0.7614,-0.7502,-0.7419,-0.7384,-0.7363,-0.7349,-0.728,-0.7241,-0.7265,-0.7199,-0.7196,-0.7178,-0.708,-0.7076,-0.7199,-0.7485,-0.7669,-0.8174,-0.8889,-0.9014,-0.9231,-0.9653,-0.9841,-1.0157,-1.0647,-1.0955,-1.1129,-1.1218,-1.143,-1.1505,-1.1407,-1.1492,-1.146,-1.1362,-1.1375,-1.1351,-1.1263,-1.1332,-1.1345,-1.1392,-1.189,-1.2386,-1.2732,-1.3165,-1.3292,-1.3092,-1.3193,-1.3086,-1.2461,-1.1929,-1.161,-1.1548,-1.1381,-1.1177,-1.0855,-1.064,-1.052,-1.0525,-1.0655,-1.0713,-1.0549,-1.0621,-1.0697,-1.0697,-1.0664,-1.0577,-1.052,-1.0456,-1.0571,-1.0962,-1.1576,-1.2094,-1.2483,-1.2817,-1.3312,-1.3385,-1.3426,-1.3211,-1.3325,-1.3224,-1.333,-1.38,-1.401,-1.4416,-1.4277,-1.3974,-1.4325,-1.4615,-1.431,-1.432,-0.5932,-0.5932,-0.6057,-0.6188,-0.6322,-0.6492,-0.6704,-0.6933,-0.6894,-0.6933,-0.6962,-0.6568,-0.6359,-0.6316,-0.6069,-0.6258,-0.6878,-0.7158,-0.7311,-0.7308,-0.736,-0.7423,-0.7454,-0.7185,-0.7024,-0.7017,-0.6807,-0.6771,-0.6921,-0.6942,-0.6999,-0.7065,-0.7083,-0.6886,-0.659,-0.6656,-0.6575,-0.6279,-0.6322,-0.656,-0.6798,-0.7031,-0.7301,-0.7565,-0.7676,-0.8079,-0.8849,-0.8993,-0.9304,-0.9871,-1.0171,-1.0517,-1.1022,-1.0909,-1.0895,-1.1027,-1.1014,-1.0989,-1.0992,-1.0995,-1.0924,-1.0745,-1.0725,-1.0711,-1.0766,-1.1148,-1.1578,-1.2011,-1.2458,-1.2525,-1.2178,-1.2309,-1.2266,-1.1767,-1.1404,-1.1199,-1.1124,-1.1086,-1.0921,-1.063,-1.0462,-1.039,-1.039,-1.054,-1.0496,-1.0307,-1.0525,-1.0659,-1.0654,-1.0703,-1.0683,-1.0669,-1.0597,-1.0529,-1.0677,-1.0992,-1.1233,-1.1544,-1.1897,-1.2286,-1.2499,-1.2551,-1.2653,-1.2813,-1.2949,-1.3043,-1.3189,-1.3379,-1.3395,-1.3338,-1.3579,-1.3938,-1.4338,-1.4799,-1.4741,-0.4316,-0.4399,-0.465,-0.5041,-0.5418,-0.5594,-0.6006,-0.6255,-0.5892,-0.5755,-0.5709,-0.5284,-0.5221,-0.5094,-0.5161,-0.5116,-0.5418,-0.6063,-0.6431,-0.6498,-0.6614,-0.6684,-0.666,-0.6401,-0.6267,-0.6307,-0.6103,-0.6173,-0.6404,-0.6364,-0.6364,-0.6364,-0.6386,-0.616,-0.5693,-0.6072,-0.6099,-0.5811,-0.5994,-0.6239,-0.6389,-0.634,-0.6383,-0.645,-0.6492,-0.715,-0.8533,-0.8488,-0.8565,-0.8857,-0.9195,-0.9783,-1.0402,-1.0234,-1.0316,-1.08,-1.0666,-1.0704,-1.0981,-1.0886,-1.0576,-1.0331,-1.0269,-1.0215,-1.0298,-1.073,-1.1195,-1.1588,-1.2027,-1.2168,-1.168,-1.1582,-1.1386,-1.077,-1.0746,-1.0697,-1.0486,-1.0356,-1.0322,-1.0337,-1.0293,-1.0288,-1.0264,-1.0244,-1.0162,-1.0137,-1.0254,-1.0385,-1.0409,-1.0583,-1.0785,-1.0751,-1.0587,-1.0414,-1.0453,-1.0529,-1.0652,-1.0831,-1.1186,-1.1531,-1.1675,-1.1757,-1.1876,-1.204,-1.2332,-1.2439,-1.2669,-1.2851,-1.3008,-1.3038,-1.3318,-1.3473,-1.3903,-1.4313,-1.4847,-0.3263,-0.3285,-0.3389,-0.3743,-0.4208,-0.4085,-0.4324,-0.4813,-0.4752,-0.4733,-0.4757,-0.4918,-0.5031,-0.4988,-0.4857,-0.4766,-0.4891,-0.5043,-0.5257,-0.5607,-0.5717,-0.5809,-0.5836,-0.5771,-0.583,-0.5999,-0.5867,-0.5843,-0.5886,-0.5669,-0.554,-0.562,-0.5639,-0.5449,-0.5103,-0.5219,-0.5111,-0.479,-0.4879,-0.4951,-0.4992,-0.5202,-0.5462,-0.5755,-0.5913,-0.6431,-0.7266,-0.7381,-0.771,-0.8341,-0.8509,-0.8872,-0.9341,-0.939,-0.9385,-0.9515,-0.952,-0.9445,-0.946,-0.9511,-0.9476,-0.9266,-0.9235,-0.9215,-0.9274,-0.9649,-1.0084,-1.0487,-1.0863,-1.1,-1.0844,-1.0775,-1.0739,-1.0801,-1.0807,-1.0736,-1.0607,-1.0351,-1.0293,-1.0409,-1.0186,-0.9985,-0.9946,-0.9956,-0.9966,-0.9789,-0.9946,-1.0127,-1.0152,-1.0249,-1.0273,-1.0254,-1.0196,-1.021,-1.021,-1.0166,-1.0205,-1.0293,-1.0529,-1.0867,-1.0986,-1.1019,-1.1118,-1.1346,-1.1631,-1.184,-1.2075,-1.2193,-1.2276,-1.2353,-1.2361,-1.2733,-1.3276,-1.3797,-1.43,-0.2359,-0.2359,-0.2426,-0.2758,-0.3218,-0.3083,-0.3323,-0.3785,-0.3763,-0.3811,-0.3924,-0.3997,-0.4156,-0.4226,-0.4051,-0.4025,-0.4083,-0.3928,-0.4105,-0.4543,-0.4933,-0.5084,-0.5132,-0.5029,-0.5007,-0.5111,-0.5072,-0.5108,-0.5235,-0.4954,-0.4843,-0.4928,-0.4925,-0.4733,-0.4432,-0.4526,-0.4439,-0.4138,-0.4206,-0.4298,-0.4338,-0.4506,-0.4763,-0.5031,-0.5176,-0.5494,-0.5966,-0.6042,-0.6528,-0.7454,-0.7748,-0.8062,-0.8488,-0.8541,-0.8602,-0.8846,-0.8834,-0.8797,-0.8781,-0.891,-0.8784,-0.8732,-0.8712,-0.8732,-0.8773,-0.9015,-0.9236,-0.9472,-0.9725,-0.9825,-0.9773,-0.977,-0.9864,-1.0054,-1.0269,-1.0433,-1.0414,-1.0166,-1.003,-1.0108,-0.9965,-0.9773,-0.9753,-0.9753,-0.9794,-0.96,-0.9739,-0.9906,-0.9926,-1.0,-0.998,-0.998,-1.0015,-0.9995,-0.9926,-0.9847,-0.9768,-0.9818,-0.9898,-1.0225,-1.0457,-1.0365,-1.0399,-1.0706,-1.101,-1.1004,-1.1192,-1.1149,-1.1188,-1.1278,-1.1465,-1.197,-1.2515,-1.3167,-1.3714,-0.1479,-0.1524,-0.1637,-0.1944,-0.2405,-0.2448,-0.2734,-0.3146,-0.2929,-0.2908,-0.3003,-0.2898,-0.284,-0.2954,-0.3065,-0.3038,-0.2947,-0.2922,-0.2966,-0.3293,-0.3812,-0.4246,-0.4406,-0.4282,-0.4134,-0.3959,-0.3963,-0.4098,-0.4336,-0.4224,-0.4232,-0.418,-0.416,-0.3959,-0.3649,-0.3961,-0.3803,-0.3431,-0.3785,-0.3941,-0.3943,-0.4025,-0.4114,-0.416,-0.4224,-0.4439,-0.4848,-0.4874,-0.5329,-0.6489,-0.6964,-0.7297,-0.763,-0.7669,-0.8008,-0.8598,-0.8471,-0.8443,-0.8683,-0.8574,-0.8557,-0.8545,-0.8529,-0.8671,-0.8622,-0.861,-0.8725,-0.8835,-0.8897,-0.8851,-0.8822,-0.8859,-0.8862,-0.883,-0.9368,-0.962,-0.9658,-0.961,-0.9565,-0.959,-0.9619,-0.9594,-0.947,-0.9415,-0.935,-0.933,-0.9421,-0.9441,-0.9506,-0.9536,-0.9848,-0.9828,-0.9651,-0.9695,-0.96,-0.9545,-0.9466,-0.9441,-0.9492,-0.9666,-1.002,-0.9991,-0.9967,-1.0254,-1.0418,-1.0375,-1.0311,-1.037,-1.0363,-1.0453,-1.079,-1.1248,-1.1651,-1.2155,-1.277,-0.0045,-0.0269,-0.0314,-0.0829,-0.1497,-0.1231,-0.1409,-0.1897,-0.2032,-0.2077,-0.2215,-0.2619,-0.2751,-0.2925,-0.2683,-0.2503,-0.2256,-0.1967,-0.1834,-0.1901,-0.2076,-0.2784,-0.3473,-0.3715,-0.3721,-0.3632,-0.3544,-0.3699,-0.3763,-0.3415,-0.3263,-0.3263,-0.3263,-0.3015,-0.2611,-0.2653,-0.2431,-0.2032,-0.21,-0.2234,-0.2256,-0.2278,-0.252,-0.3161,-0.3208,-0.3603,-0.4312,-0.4405,-0.4874,-0.5918,-0.6207,-0.6535,-0.6885,-0.6954,-0.708,-0.7241,-0.7245,-0.7189,-0.7349,-0.7527,-0.7617,-0.7635,-0.7859,-0.797,-0.797,-0.7991,-0.8156,-0.8382,-0.8508,-0.8537,-0.8687,-0.8724,-0.8724,-0.8736,-0.8846,-0.8971,-0.8991,-0.8886,-0.8809,-0.8814,-0.8793,-0.8749,-0.8724,-0.8663,-0.8594,-0.8541,-0.8561,-0.8598,-0.8785,-0.8926,-0.9179,-0.9119,-0.9023,-0.9192,-0.9277,-0.9221,-0.9161,-0.9121,-0.9136,-0.9192,-0.9616,-0.9936,-0.9971,-1.0117,-1.0204,-1.0175,-0.9959,-0.9871,-0.9825,-0.9693,-0.9869,-1.0184,-1.0319,-1.0702,-1.1409,0.0494,0.0314,0.0291,-0.0045,-0.0537,-0.0246,-0.0359,-0.0718,-0.0897,-0.1053,-0.1276,-0.1632,-0.1922,-0.1985,-0.1831,-0.1631,-0.1431,-0.1208,-0.1119,-0.112,-0.1231,-0.17,-0.2323,-0.2588,-0.2587,-0.2609,-0.2678,-0.2678,-0.261,-0.2393,-0.2284,-0.2284,-0.2284,-0.2104,-0.1879,-0.1856,-0.1768,-0.1567,-0.1524,-0.1547,-0.1479,-0.1547,-0.1769,-0.2235,-0.23,-0.2676,-0.3298,-0.359,-0.4178,-0.4973,-0.5386,-0.5623,-0.5859,-0.6046,-0.6107,-0.6107,-0.611,-0.6173,-0.6401,-0.6605,-0.6777,-0.6964,-0.7196,-0.7265,-0.7283,-0.7283,-0.7423,-0.761,-0.7669,-0.7835,-0.8086,-0.8247,-0.8312,-0.8259,-0.8279,-0.8398,-0.8663,-0.8675,-0.8598,-0.8553,-0.8476,-0.8378,-0.8329,-0.8267,-0.8185,-0.8181,-0.8251,-0.8226,-0.823,-0.8349,-0.8451,-0.8451,-0.8476,-0.8622,-0.8659,-0.8598,-0.8606,-0.8586,-0.8598,-0.8683,-0.9136,-0.9607,-0.9677,-0.9732,-0.9882,-0.9836,-0.9435,-0.9138,-0.901,-0.8939,-0.8992,-0.9142,-0.9368,-0.9515,-1.0209,0.0582,0.0537,0.0492,0.0425,0.0358,0.038,0.0224,0.018,0.0,-0.0202,-0.0448,-0.047,-0.0805,-0.0694,-0.0962,-0.0738,-0.0649,-0.0671,-0.0694,-0.0716,-0.0806,-0.1074,-0.1343,-0.1477,-0.1432,-0.1432,-0.1344,-0.15,-0.1634,-0.1522,-0.1456,-0.1568,-0.1523,-0.1389,-0.1366,-0.1433,-0.1479,-0.1367,-0.1368,-0.1368,-0.1323,-0.1391,-0.1502,-0.1613,-0.1792,-0.1969,-0.2368,-0.2703,-0.3325,-0.4164,-0.4478,-0.4715,-0.4798,-0.5074,-0.5177,-0.5242,-0.5245,-0.54,-0.5728,-0.58,-0.6033,-0.6334,-0.6462,-0.6595,-0.6613,-0.6659,-0.674,-0.6894,-0.6729,-0.7,-0.7199,-0.7454,-0.7576,-0.76,-0.7604,-0.7908,-0.8329,-0.8529,-0.8574,-0.8553,-0.8435,-0.8398,-0.8353,-0.8271,-0.8131,-0.7821,-0.7838,-0.7773,-0.781,-0.7992,-0.8034,-0.8,-0.8024,-0.8032,-0.8004,-0.7931,-0.7983,-0.7987,-0.8,-0.814,-0.8618,-0.9007,-0.9128,-0.9274,-0.9521,-0.9187,-0.8486,-0.8277,-0.8237,-0.8121,-0.8117,-0.8389,-0.8693,-0.8761,-0.9192,0.1052,0.0806,0.0806,0.0649,0.0425,0.0291,0.0247,0.0202,-0.0112,-0.0224,-0.038,-0.0537,-0.0582,-0.0649,-0.0537,-0.0515,-0.0112,-0.0201,-0.0358,-0.047,-0.0492,-0.0537,-0.0716,-0.0962,-0.1211,-0.1212,-0.1323,-0.1368,-0.1346,-0.128,-0.1389,-0.1344,-0.1255,-0.121,-0.0895,-0.0896,-0.0762,-0.0583,-0.0584,-0.0674,-0.0741,-0.0763,-0.0943,-0.1188,-0.1547,-0.197,-0.2325,-0.2525,-0.2882,-0.3345,-0.3693,-0.3931,-0.4266,-0.4441,-0.4482,-0.4482,-0.4504,-0.457,-0.4703,-0.4935,-0.5103,-0.5276,-0.5529,-0.5765,-0.614,-0.6103,-0.6316,-0.6574,-0.6707,-0.6595,-0.6683,-0.6831,-0.687,-0.687,-0.6891,-0.6933,-0.7158,-0.752,-0.7769,-0.7769,-0.7693,-0.7621,-0.7642,-0.7538,-0.7478,-0.7437,-0.7367,-0.7297,-0.7395,-0.7551,-0.7533,-0.7474,-0.7693,-0.7721,-0.7676,-0.7586,-0.751,-0.7471,-0.7443,-0.7558,-0.8058,-0.8371,-0.8472,-0.8805,-0.9222,-0.8594,-0.7573,-0.7691,-0.7713,-0.7473,-0.7232,-0.7454,-0.7673,-0.7845,-0.8262,0.1832,0.1475,0.1452,0.1208,0.0851,0.074,0.0651,0.0517,0.0314,0.0179,0.0157,0.0201,0.0291,0.0291,0.0491,0.0737,0.0782,0.0559,0.038,0.0269,0.0067,-0.0112,-0.0202,-0.0495,-0.0745,-0.0641,-0.0701,-0.0747,-0.0732,-0.0747,-0.0695,-0.074,-0.0762,-0.0583,-0.0426,-0.0426,-0.0404,-0.0314,-0.027,-0.0315,-0.0315,-0.0405,-0.0517,-0.0875,-0.1278,-0.1679,-0.1789,-0.2058,-0.2281,-0.2505,-0.2703,-0.3055,-0.3566,-0.368,-0.366,-0.366,-0.3638,-0.3788,-0.3961,-0.413,-0.4349,-0.4548,-0.4735,-0.4913,-0.5132,-0.5221,-0.5308,-0.5497,-0.5561,-0.5604,-0.5792,-0.6003,-0.6024,-0.6043,-0.6043,-0.6046,-0.6152,-0.6667,-0.7119,-0.7101,-0.7048,-0.701,-0.695,-0.6935,-0.6896,-0.6914,-0.6704,-0.6634,-0.661,-0.6773,-0.6881,-0.6951,-0.7297,-0.7447,-0.7405,-0.728,-0.7097,-0.6995,-0.6907,-0.7066,-0.7415,-0.7626,-0.781,-0.8063,-0.8211,-0.7462,-0.6689,-0.6925,-0.6931,-0.6419,-0.6199,-0.6403,-0.6655,-0.6965,-0.7479,0.2631,0.221,0.221,0.1944,0.1544,0.1477,0.1344,0.1145,0.1078,0.1009,0.0965,0.1344,0.132,0.1478,0.1677,0.1922,0.1766,0.1432,0.1075,0.0963,0.0627,0.0493,0.0381,0.0247,0.0137,0.0307,0.0023,-0.0023,0.0046,0.0092,-0.0045,0.0,0.009,0.0,0.0,0.0,0.0,0.0067,0.0,0.0,0.0067,-0.0045,-0.0157,-0.0337,-0.0785,-0.1097,-0.1254,-0.1523,-0.1793,-0.1814,-0.1836,-0.2191,-0.2614,-0.2882,-0.2843,-0.2887,-0.2975,-0.3217,-0.3456,-0.3542,-0.3678,-0.4076,-0.4074,-0.414,-0.4204,-0.4312,-0.4401,-0.4425,-0.4535,-0.4615,-0.4715,-0.5014,-0.5158,-0.5158,-0.5156,-0.5156,-0.5309,-0.588,-0.6161,-0.6437,-0.6465,-0.6513,-0.6523,-0.6529,-0.645,-0.6346,-0.6136,-0.6014,-0.6014,-0.6076,-0.6267,-0.631,-0.6613,-0.6877,-0.6859,-0.6838,-0.6656,-0.6699,-0.6532,-0.6608,-0.681,-0.6956,-0.7082,-0.6955,-0.6803,-0.6325,-0.6073,-0.615,-0.5941,-0.5324,-0.5462,-0.5971,-0.6137,-0.616,-0.6813,0.2853,0.2743,0.2637,0.253,0.2438,0.2237,0.2082,0.2058,0.1885,0.1856,0.1792,0.1877,0.184,0.1814,0.1793,0.1792,0.1791,0.1613,0.1482,0.1394,0.1194,0.1128,0.1045,0.0958,0.0947,0.0817,0.0483,0.0341,0.0479,0.0586,0.0382,0.0292,0.0427,0.045,0.0315,0.0382,0.0516,0.0538,0.0538,0.0605,0.065,0.065,0.0538,0.0336,-0.0179,-0.0538,-0.0895,-0.1254,-0.1656,-0.2011,-0.1989,-0.2009,-0.2167,-0.2369,-0.2504,-0.2572,-0.2726,-0.2882,-0.2991,-0.304,-0.3043,-0.3111,-0.313,-0.3347,-0.3565,-0.3695,-0.3807,-0.4096,-0.4208,-0.4272,-0.436,-0.4375,-0.4441,-0.4443,-0.4443,-0.4441,-0.453,-0.4703,-0.4976,-0.5312,-0.5661,-0.5993,-0.5916,-0.59,-0.5924,-0.5844,-0.5728,-0.5631,-0.5647,-0.5733,-0.5862,-0.5862,-0.5843,-0.6087,-0.6267,-0.6249,-0.6209,-0.6422,-0.6337,-0.6181,-0.6325,-0.6346,-0.6345,-0.6301,-0.6352,-0.6268,-0.6008,-0.5665,-0.5421,-0.5157,-0.539,-0.5686,-0.5848,-0.6052,-0.6598,0.4168,0.3862,0.3561,0.3186,0.281,0.2458,0.231,0.2329,0.2168,0.2099,0.2168,0.226,0.2278,0.2249,0.2348,0.2349,0.2217,0.1947,0.188,0.1813,0.1619,0.1432,0.14,0.1356,0.1258,0.1069,0.0794,0.0625,0.0693,0.068,0.0609,0.0539,0.0629,0.0607,0.0517,0.0607,0.0741,0.083,0.083,0.0853,0.0897,0.0873,0.0716,0.0515,0.0314,0.0022,-0.0179,-0.0358,-0.0671,-0.0984,-0.1075,-0.1187,-0.1389,-0.1679,-0.1992,-0.2127,-0.2304,-0.2392,-0.2393,-0.235,-0.2307,-0.2239,-0.2262,-0.2461,-0.2767,-0.2943,-0.3164,-0.3498,-0.3592,-0.3571,-0.3549,-0.3617,-0.3573,-0.3573,-0.3595,-0.3638,-0.3636,-0.3656,-0.3931,-0.4271,-0.467,-0.4959,-0.5046,-0.5116,-0.527,-0.5296,-0.5255,-0.5226,-0.5216,-0.526,-0.5327,-0.5435,-0.5435,-0.572,-0.5879,-0.586,-0.5992,-0.6187,-0.6099,-0.5943,-0.5876,-0.5919,-0.5865,-0.5772,-0.5867,-0.6022,-0.5687,-0.5277,-0.5142,-0.5084,-0.5268,-0.5491,-0.5707,-0.604,-0.6523,0.5411,0.4865,0.4482,0.3951,0.3397,0.3005,0.2899,0.2854,0.2699,0.2643,0.2595,0.2739,0.2767,0.2719,0.2841,0.2936,0.2877,0.2432,0.238,0.236,0.2158,0.1887,0.1723,0.1558,0.1587,0.1577,0.1328,0.1079,0.0944,0.0926,0.0844,0.08,0.0798,0.079,0.0765,0.0853,0.0831,0.0921,0.0921,0.0921,0.0943,0.0829,0.0738,0.0627,0.0559,0.0492,0.0425,0.0291,0.0134,-0.009,-0.0179,-0.0269,-0.0607,-0.0942,-0.1277,-0.1524,-0.1726,-0.1816,-0.186,-0.186,-0.1883,-0.1838,-0.1704,-0.1882,-0.2081,-0.2325,-0.2436,-0.2769,-0.2883,-0.2953,-0.3062,-0.2978,-0.2955,-0.2955,-0.2976,-0.2932,-0.3064,-0.3127,-0.3211,-0.3537,-0.3807,-0.4071,-0.4286,-0.4576,-0.4818,-0.4794,-0.4755,-0.4602,-0.4596,-0.455,-0.4659,-0.4898,-0.5094,-0.5418,-0.5572,-0.5553,-0.5814,-0.6181,-0.5924,-0.5623,-0.5556,-0.5531,-0.5473,-0.5484,-0.5508,-0.5588,-0.524,-0.5141,-0.5213,-0.5249,-0.5219,-0.5346,-0.5653,-0.5878,-0.6208,0.5621,0.5224,0.5077,0.492,0.4811,0.4642,0.4622,0.4491,0.4113,0.3991,0.3694,0.3474,0.3263,0.3135,0.3001,0.2964,0.291,0.2852,0.2823,0.2854,0.2867,0.2815,0.2854,0.2695,0.2281,0.2054,0.1879,0.1719,0.1403,0.1337,0.1231,0.1088,0.1199,0.1235,0.0973,0.1101,0.1434,0.1591,0.1614,0.1682,0.1772,0.1614,0.1547,0.1412,0.112,0.0828,0.0806,0.0649,0.0425,0.0358,0.0336,0.0134,-0.018,-0.0292,-0.0517,-0.0942,-0.1455,-0.1967,-0.1857,-0.1725,-0.1638,-0.157,-0.1637,-0.1794,-0.186,-0.1948,-0.2126,-0.2481,-0.2526,-0.2615,-0.2771,-0.2904,-0.2928,-0.2819,-0.2709,-0.2773,-0.2839,-0.2636,-0.2745,-0.2855,-0.3164,-0.3476,-0.3717,-0.4052,-0.4342,-0.4298,-0.4228,-0.4069,-0.4011,-0.401,-0.4024,-0.4268,-0.4581,-0.4918,-0.5137,-0.514,-0.5378,-0.5919,-0.5685,-0.5299,-0.5255,-0.5253,-0.5375,-0.5389,-0.5372,-0.546,-0.5484,-0.5454,-0.5465,-0.5465,-0.5493,-0.5566,-0.5674,-0.5875,-0.609,0.6672,0.6191,0.5852,0.5623,0.5444,0.5284,0.5162,0.507,0.4923,0.4605,0.4284,0.4191,0.3946,0.3588,0.3195,0.3038,0.3058,0.304,0.3085,0.3176,0.3246,0.3224,0.307,0.286,0.2582,0.2292,0.2003,0.1739,0.1623,0.1567,0.1453,0.1399,0.1447,0.1419,0.1221,0.1336,0.146,0.1524,0.1569,0.1614,0.1659,0.1637,0.1591,0.1569,0.1299,0.121,0.1142,0.1075,0.0851,0.0738,0.0671,0.0515,0.0246,0.0135,0.0045,-0.0067,-0.0605,-0.1008,-0.1211,-0.1211,-0.1189,-0.11,-0.1122,-0.1167,-0.1456,-0.1745,-0.1924,-0.2188,-0.2124,-0.2215,-0.2326,-0.2304,-0.2305,-0.2284,-0.2329,-0.2306,-0.2326,-0.2299,-0.2276,-0.2388,-0.2544,-0.2855,-0.3143,-0.3412,-0.3653,-0.3668,-0.3601,-0.3484,-0.3531,-0.3635,-0.3635,-0.3662,-0.3991,-0.4351,-0.455,-0.4661,-0.4748,-0.514,-0.5294,-0.4995,-0.4954,-0.4995,-0.5161,-0.5245,-0.5207,-0.5385,-0.5648,-0.5658,-0.5546,-0.5672,-0.5826,-0.5846,-0.5881,-0.6152,-0.6362,0.7527,0.706,0.6614,0.6313,0.6074,0.5904,0.5756,0.5603,0.5508,0.5164,0.4762,0.4679,0.4467,0.408,0.3635,0.3496,0.343,0.3209,0.3219,0.3332,0.3254,0.3112,0.2924,0.2698,0.2423,0.218,0.1917,0.1752,0.1713,0.1688,0.1634,0.1638,0.1582,0.1507,0.1493,0.1461,0.1458,0.1434,0.1434,0.1434,0.1434,0.1434,0.1412,0.1412,0.1412,0.1412,0.1412,0.1367,0.121,0.1097,0.1008,0.0851,0.0582,0.0515,0.0448,0.0291,-0.0067,-0.0224,-0.0471,-0.0606,-0.0607,-0.0584,-0.0584,-0.0831,-0.1099,-0.1521,-0.1787,-0.181,-0.1789,-0.1768,-0.1814,-0.1902,-0.1927,-0.1904,-0.1771,-0.1682,-0.1658,-0.1811,-0.1964,-0.2165,-0.2276,-0.2322,-0.2589,-0.2792,-0.2943,-0.2999,-0.2965,-0.2929,-0.3081,-0.3291,-0.3387,-0.3423,-0.3793,-0.4109,-0.4222,-0.4334,-0.4379,-0.4489,-0.4666,-0.4797,-0.4818,-0.4886,-0.5034,-0.5053,-0.5072,-0.5222,-0.5447,-0.5542,-0.5609,-0.567,-0.5748,-0.5954,-0.6122,-0.6346,-0.6428,0.7756,0.7541,0.723,0.7083,0.7026,0.7089,0.6859,0.6391,0.6096,0.5778,0.5427,0.5054,0.4694,0.4477,0.4306,0.4116,0.3993,0.3562,0.343,0.3248,0.2989,0.2837,0.2662,0.249,0.2236,0.2169,0.1914,0.1807,0.1785,0.1765,0.1735,0.1703,0.1673,0.1589,0.1542,0.1507,0.1465,0.1438,0.1425,0.1395,0.1414,0.1412,0.1412,0.1412,0.1412,0.1412,0.1412,0.1412,0.1389,0.1299,0.1299,0.1187,0.0918,0.0873,0.0784,0.0604,0.0425,0.0291,0.0157,-0.0247,-0.0584,-0.0652,-0.0652,-0.0629,-0.0741,-0.0741,-0.0987,-0.1298,-0.1276,-0.1454,-0.1699,-0.1944,-0.168,-0.157,-0.1413,-0.1434,-0.1433,-0.1521,-0.1697,-0.1919,-0.1965,-0.1899,-0.2011,-0.2212,-0.2682,-0.2807,-0.2965,-0.295,-0.2923,-0.3081,-0.3203,-0.3368,-0.3731,-0.3994,-0.4091,-0.4136,-0.4136,-0.429,-0.4487,-0.4661,-0.477,-0.4857,-0.4818,-0.5009,-0.5072,-0.5142,-0.52,-0.5243,-0.5323,-0.549,-0.5652,-0.58,-0.5957,-0.6104,-0.6148,0.7838,0.7736,0.7502,0.7197,0.6912,0.7078,0.6876,0.6489,0.6432,0.624,0.59,0.5173,0.4867,0.4846,0.4509,0.4374,0.4249,0.366,0.3555,0.3337,0.3034,0.2745,0.2578,0.2437,0.2183,0.2183,0.1963,0.1797,0.1795,0.1797,0.179,0.176,0.1728,0.1664,0.1613,0.1564,0.1518,0.1455,0.1459,0.1429,0.1414,0.1412,0.1412,0.1412,0.1412,0.1412,0.1412,0.1412,0.1412,0.1412,0.1412,0.1299,0.121,0.1187,0.112,0.0962,0.0806,0.0716,0.0649,0.0246,0.0,-0.0067,-0.0202,-0.0382,-0.0382,-0.0382,-0.045,-0.0606,-0.0673,-0.0851,-0.0829,-0.1053,-0.11,-0.11,-0.11,-0.1121,-0.1208,-0.1252,-0.1386,-0.1587,-0.1432,-0.1277,-0.1455,-0.1656,-0.2169,-0.2632,-0.2808,-0.2947,-0.2862,-0.2916,-0.3082,-0.319,-0.3536,-0.3791,-0.3907,-0.3909,-0.3893,-0.4069,-0.4266,-0.4353,-0.4441,-0.4513,-0.4537,-0.4794,-0.5009,-0.5034,-0.5012,-0.4944,-0.5091,-0.5432,-0.5561,-0.5594,-0.573,-0.5852,-0.5879,0.7768,0.7762,0.7491,0.7211,0.6974,0.705,0.6842,0.6495,0.6601,0.6522,0.6148,0.543,0.5205,0.5245,0.4988,0.473,0.4589,0.4127,0.3898,0.3628,0.335,0.3022,0.2882,0.2769,0.2686,0.2518,0.2185,0.2047,0.2129,0.1908,0.1794,0.178,0.1757,0.173,0.1661,0.1594,0.1487,0.1394,0.1376,0.1399,0.1352,0.1321,0.1367,0.1367,0.1389,0.1389,0.1389,0.1412,0.1412,0.1412,0.1412,0.1412,0.1389,0.1412,0.1412,0.1321,0.121,0.1054,0.0941,0.0649,0.0425,0.0269,0.0157,-0.0022,-0.0067,-0.009,-0.0135,-0.0112,-0.0112,-0.0067,-0.0067,-0.0269,-0.0403,-0.0358,-0.065,-0.0717,-0.0873,-0.0962,-0.1097,-0.1231,-0.1098,-0.1076,-0.1233,-0.15,-0.1879,-0.2329,-0.2503,-0.2638,-0.2646,-0.2779,-0.3042,-0.3136,-0.328,-0.3503,-0.3672,-0.3664,-0.3654,-0.3563,-0.3759,-0.3871,-0.3959,-0.4074,-0.4296,-0.4554,-0.4729,-0.484,-0.4905,-0.4927,-0.5181,-0.5518,-0.5499,-0.5394,-0.5351,-0.5459,-0.5599,0.7521,0.7461,0.7219,0.723,0.7316,0.7176,0.6897,0.6609,0.6608,0.6465,0.6175,0.5893,0.5757,0.57,0.5414,0.5267,0.5034,0.4611,0.434,0.4179,0.3684,0.3544,0.3434,0.3297,0.3159,0.3296,0.2768,0.235,0.2569,0.2017,0.1824,0.1797,0.1781,0.1761,0.1679,0.152,0.134,0.1152,0.1152,0.1217,0.1252,0.1215,0.1277,0.1344,0.1367,0.1367,0.1389,0.1412,0.1412,0.1412,0.1412,0.1412,0.1412,0.1398,0.1396,0.1389,0.1399,0.1377,0.1325,0.0762,0.0562,0.0538,0.047,0.0336,0.0225,0.0202,0.018,0.018,0.018,0.0224,0.0291,0.0313,0.0224,0.009,-0.0224,-0.0515,-0.0694,-0.0962,-0.1142,-0.1254,-0.1164,-0.112,-0.1254,-0.1433,-0.1678,-0.1986,-0.2185,-0.2333,-0.2479,-0.2713,-0.302,-0.3197,-0.3287,-0.3377,-0.3549,-0.347,-0.3393,-0.3279,-0.3298,-0.3497,-0.3675,-0.3831,-0.4072,-0.4314,-0.4399,-0.4465,-0.4709,-0.4951,-0.5096,-0.5176,-0.5197,-0.5135,-0.507,-0.5094,-0.5253,0.741,0.7217,0.6947,0.6893,0.6945,0.6869,0.665,0.6384,0.6273,0.6166,0.6032,0.5839,0.5729,0.5622,0.5517,0.538,0.5215,0.4741,0.4489,0.4434,0.3933,0.3574,0.3493,0.3549,0.3467,0.3242,0.274,0.2433,0.2541,0.1961,0.1712,0.1684,0.1712,0.1787,0.1769,0.1655,0.1573,0.139,0.1331,0.1263,0.1191,0.1208,0.1235,0.1326,0.1325,0.1353,0.1396,0.1397,0.1374,0.1396,0.1396,0.1373,0.1404,0.1394,0.1429,0.1427,0.1463,0.1508,0.1462,0.1211,0.115,0.0998,0.0828,0.0672,0.0538,0.0515,0.0493,0.0427,0.0405,0.0427,0.0449,0.0314,0.0202,0.0112,-0.0157,-0.0537,-0.0806,-0.1142,-0.1367,-0.1434,-0.1412,-0.1099,-0.1054,-0.1366,-0.1634,-0.1924,-0.2164,-0.2464,-0.2645,-0.2836,-0.3091,-0.3298,-0.342,-0.3438,-0.345,-0.3465,-0.3485,-0.3461,-0.3325,-0.3279,-0.3456,-0.359,-0.3676,-0.3807,-0.3961,-0.4136,-0.4535,-0.4821,-0.4729,-0.4746,-0.4985,-0.5007,-0.4898,-0.4903,-0.4997,0.7136,0.6947,0.6625,0.6522,0.6547,0.6517,0.6361,0.6146,0.603,0.5973,0.5893,0.5675,0.5591,0.554,0.5409,0.5301,0.5272,0.4906,0.471,0.4655,0.4291,0.4127,0.3992,0.3801,0.3824,0.3434,0.2879,0.2516,0.2485,0.1822,0.1572,0.16,0.16,0.1654,0.1651,0.1642,0.1509,0.1328,0.1214,0.1126,0.1085,0.108,0.1132,0.1211,0.126,0.1284,0.1336,0.135,0.1327,0.135,0.1327,0.1304,0.132,0.1344,0.1362,0.137,0.1382,0.1415,0.1369,0.1405,0.1289,0.1198,0.1109,0.0964,0.0829,0.0762,0.0718,0.0651,0.0607,0.0651,0.0629,0.0472,0.0449,0.0359,-0.0112,-0.0492,-0.0828,-0.1142,-0.1682,-0.1727,-0.1592,-0.1256,-0.101,-0.1277,-0.1611,-0.1902,-0.2168,-0.246,-0.2771,-0.2972,-0.3104,-0.3278,-0.349,-0.3544,-0.3559,-0.3602,-0.3617,-0.3619,-0.3485,-0.3304,-0.317,-0.3303,-0.3325,-0.3391,-0.37,-0.4052,-0.4471,-0.469,-0.477,-0.4925,-0.519,-0.5079,-0.4797,-0.4864,-0.5021,0.6677,0.6625,0.6339,0.6203,0.6203,0.6228,0.6143,0.6003,0.6,0.5893,0.5791,0.565,0.5538,0.551,0.5352,0.5272,0.5242,0.5071,0.5014,0.4985,0.4734,0.468,0.4544,0.4436,0.4016,0.3652,0.3096,0.2403,0.2373,0.168,0.1431,0.1487,0.1431,0.1487,0.1515,0.1426,0.1297,0.1191,0.1112,0.1026,0.0965,0.0911,0.1009,0.1067,0.1126,0.1189,0.1204,0.1216,0.124,0.124,0.1215,0.1145,0.1135,0.1164,0.1179,0.1191,0.1221,0.124,0.1259,0.1301,0.1219,0.1151,0.1186,0.1084,0.0966,0.0853,0.0809,0.0787,0.0764,0.0876,0.0942,0.0941,0.0941,0.0515,0.0,-0.038,-0.0716,-0.1232,-0.1885,-0.2042,-0.1839,-0.1593,-0.1367,-0.1501,-0.1701,-0.2014,-0.2238,-0.2217,-0.255,-0.3041,-0.317,-0.3193,-0.3419,-0.3646,-0.3678,-0.368,-0.3772,-0.3796,-0.3641,-0.3461,-0.3284,-0.3216,-0.3372,-0.3527,-0.3683,-0.3948,-0.4298,-0.4666,-0.4966,-0.5145,-0.5255,-0.5285,-0.5041,-0.5215,-0.5371,0.6576,0.6337,0.6232,0.6203,0.6175,0.6087,0.603,0.5975,0.5811,0.5677,0.5654,0.5462,0.535,0.5234,0.5181,0.5099,0.5014,0.4958,0.4958,0.4901,0.4677,0.4486,0.4267,0.4019,0.3683,0.3153,0.2569,0.218,0.2014,0.1458,0.1234,0.1347,0.1319,0.1347,0.1319,0.1234,0.1168,0.1101,0.1026,0.0974,0.0925,0.0893,0.0971,0.1014,0.1072,0.1131,0.1172,0.1166,0.1191,0.1191,0.1191,0.1167,0.117,0.1209,0.1266,0.1273,0.1284,0.1285,0.1252,0.1242,0.1155,0.1003,0.1013,0.0994,0.0899,0.0877,0.0832,0.0809,0.0787,0.0853,0.0898,0.092,0.0829,0.0425,-0.0089,-0.0537,-0.0918,-0.1502,-0.211,-0.2155,-0.1953,-0.1817,-0.1614,-0.1659,-0.1883,-0.2171,-0.2326,-0.2305,-0.2462,-0.2976,-0.3133,-0.3151,-0.3481,-0.3746,-0.3744,-0.3724,-0.386,-0.3928,-0.3774,-0.375,-0.3812,-0.3746,-0.3661,-0.3683,-0.3838,-0.3926,-0.4034,-0.4447,-0.4901,-0.5031,-0.5145,-0.526,-0.5376,-0.5504,-0.5523,0.6389,0.6203,0.6203,0.6173,0.6091,0.5921,0.5839,0.5809,0.5677,0.5567,0.546,0.5352,0.5215,0.5071,0.4873,0.4649,0.4512,0.4124,0.4013,0.3984,0.4148,0.3735,0.3461,0.3322,0.2988,0.2459,0.2069,0.1792,0.1624,0.1373,0.115,0.1206,0.1206,0.1206,0.1178,0.1094,0.1038,0.103,0.099,0.0946,0.0932,0.0922,0.0938,0.097,0.103,0.1094,0.1161,0.1134,0.1108,0.1134,0.1135,0.1083,0.1063,0.112,0.1118,0.1112,0.1102,0.1116,0.1109,0.1131,0.1015,0.0928,0.087,0.087,0.0836,0.0787,0.0764,0.0742,0.0719,0.0719,0.0742,0.0719,0.0493,0.0246,-0.0268,-0.0761,-0.1277,-0.1817,-0.2042,-0.2133,-0.2065,-0.1929,-0.1885,-0.1929,-0.2062,-0.2373,-0.2615,-0.2726,-0.2817,-0.3129,-0.3109,-0.2998,-0.3485,-0.3904,-0.3858,-0.3856,-0.401,-0.408,-0.3924,-0.3968,-0.4186,-0.4142,-0.3924,-0.3902,-0.3992,-0.4056,-0.4142,-0.4425,-0.4794,-0.4903,-0.514,-0.5448,-0.5585,-0.5674,-0.5609,0.6203,0.6203,0.6203,0.6091,0.5948,0.5729,0.5622,0.5567,0.5538,0.5462,0.5327,0.5215,0.5046,0.4763,0.4315,0.3983,0.3734,0.3374,0.3209,0.2904,0.307,0.2904,0.2736,0.2597,0.2292,0.193,0.1651,0.1429,0.1206,0.1066,0.1066,0.1094,0.1009,0.1009,0.1038,0.0981,0.0953,0.0923,0.0919,0.091,0.09,0.0899,0.0874,0.0838,0.091,0.0965,0.1024,0.1016,0.0935,0.0989,0.099,0.0909,0.0911,0.093,0.0919,0.092,0.0972,0.0947,0.0965,0.0995,0.0943,0.0886,0.0856,0.0832,0.0795,0.0758,0.0757,0.0687,0.0643,0.0505,0.0459,0.0271,0.0022,-0.0269,-0.0694,-0.1142,-0.1591,-0.1975,-0.211,-0.2178,-0.2156,-0.2042,-0.2042,-0.2088,-0.2198,-0.2529,-0.2705,-0.2904,-0.3148,-0.3326,-0.3328,-0.3108,-0.3551,-0.4016,-0.406,-0.4102,-0.423,-0.423,-0.4142,-0.4274,-0.4602,-0.4427,-0.412,-0.4186,-0.4252,-0.4252,-0.4338,-0.4532,-0.4642,-0.4727,-0.5053,-0.5615,-0.5836,-0.5863,-0.5847,0.6203,0.6175,0.6087,0.5921,0.57,0.5647,0.5513,0.5352,0.5266,0.5268,0.5187,0.4763,0.44,0.4176,0.354,0.3181,0.2957,0.2708,0.2737,0.2654,0.257,0.2264,0.2068,0.1986,0.1679,0.1316,0.1093,0.1121,0.1009,0.0953,0.0953,0.0953,0.0897,0.0925,0.0953,0.0897,0.0897,0.0897,0.0896,0.0894,0.0888,0.0889,0.0886,0.0877,0.0895,0.0895,0.0938,0.094,0.0913,0.0942,0.0942,0.0902,0.0883,0.0882,0.0883,0.0872,0.0887,0.0895,0.0891,0.0928,0.0905,0.0863,0.084,0.0799,0.0783,0.0765,0.0708,0.0589,0.0446,0.0258,0.007,-0.0183,-0.045,-0.0787,-0.1097,-0.1501,-0.1885,-0.2042,-0.2201,-0.2201,-0.2201,-0.2201,-0.22,-0.2311,-0.2398,-0.2509,-0.264,-0.2839,-0.3213,-0.3456,-0.3744,-0.3658,-0.3794,-0.4106,-0.4216,-0.4348,-0.4495,-0.4602,-0.4561,-0.4757,-0.4978,-0.4888,-0.4733,-0.4556,-0.4511,-0.4535,-0.4471,-0.436,-0.4467,-0.4642,-0.5034,-0.5642,-0.5894,-0.5943,-0.6013,0.6203,0.6173,0.5982,0.5789,0.5622,0.5515,0.5409,0.5272,0.5158,0.5128,0.5101,0.4455,0.3897,0.3483,0.2793,0.2431,0.2264,0.1986,0.1846,0.1846,0.1958,0.1679,0.1484,0.1429,0.1261,0.0953,0.0897,0.0897,0.0897,0.0897,0.0897,0.0897,0.0897,0.0897,0.0897,0.0897,0.0897,0.0897,0.0897,0.0897,0.0897,0.0897,0.0897,0.0897,0.0897,0.0897,0.0897,0.0897,0.0897,0.0897,0.0895,0.0891,0.088,0.0889,0.0889,0.0884,0.0889,0.0897,0.0892,0.0854,0.0837,0.0798,0.05,0.0386,0.0226,0.0197,0.0099,0.0,-0.0269,-0.0464,-0.0483,-0.0666,-0.0911,-0.1206,-0.1385,-0.1658,-0.1994,-0.224,-0.2285,-0.2262,-0.2262,-0.2262,-0.2352,-0.2686,-0.2728,-0.2593,-0.2681,-0.3013,-0.3366,-0.3743,-0.4008,-0.4184,-0.4298,-0.4434,-0.4613,-0.4699,-0.476,-0.4847,-0.4934,-0.5024,-0.5157,-0.5328,-0.5347,-0.5038,-0.4842,-0.4847,-0.476,-0.4602,-0.4605,-0.4806,-0.5195,-0.5669,-0.5857,-0.6044,-0.6179,0.6178,0.6096,0.5902,0.5711,0.5542,0.5378,0.5301,0.5244,0.5128,0.4985,0.4794,0.4203,0.3539,0.2904,0.2155,0.1903,0.1651,0.1401,0.1093,0.1037,0.1037,0.1093,0.1093,0.0953,0.0925,0.0925,0.0897,0.0897,0.0897,0.0897,0.0897,0.0897,0.0897,0.0897,0.0897,0.0897,0.0897,0.0897,0.0897,0.0897,0.0897,0.0897,0.0897,0.0897,0.0897,0.0897,0.0897,0.0897,0.0897,0.0897,0.0896,0.0889,0.0888,0.0889,0.0887,0.0885,0.089,0.0896,0.0868,0.0726,0.0714,0.0595,0.0161,-0.0159,-0.0311,-0.0466,-0.0546,-0.0698,-0.0946,-0.1059,-0.1048,-0.119,-0.1455,-0.1635,-0.1777,-0.1891,-0.2181,-0.2432,-0.239,-0.2341,-0.2349,-0.2349,-0.2658,-0.2991,-0.299,-0.2855,-0.303,-0.3319,-0.3695,-0.4138,-0.4495,-0.4624,-0.4712,-0.4847,-0.4944,-0.5004,-0.5043,-0.5089,-0.5157,-0.5224,-0.5333,-0.5499,-0.5539,-0.5369,-0.5219,-0.5176,-0.5108,-0.4973,-0.5,-0.5004,-0.5347,-0.5734,-0.5838,-0.605,-0.6349,0.6066,0.5877,0.582,0.5629,0.5382,0.5301,0.5242,0.5128,0.5014,0.4625,0.4184,0.3847,0.3347,0.2823,0.1596,0.1149,0.1205,0.0925,0.0925,0.0897,0.0897,0.0897,0.0897,0.0897,0.0897,0.0897,0.0897,0.0897,0.0897,0.0897,0.0897,0.0897,0.0897,0.0897,0.0897,0.0897,0.0897,0.0897,0.0897,0.0897,0.0897,0.0897,0.0897,0.0897,0.0897,0.0897,0.0897,0.0897,0.0897,0.0897,0.0868,0.0831,0.0801,0.0775,0.0692,0.069,0.0694,0.0643,0.0532,0.0224,0.0138,0.0083,-0.0358,-0.0714,-0.0924,-0.1224,-0.1305,-0.135,-0.1544,-0.1561,-0.1605,-0.1873,-0.2125,-0.2233,-0.2379,-0.238,-0.2517,-0.2604,-0.2596,-0.2579,-0.2558,-0.2775,-0.3099,-0.3344,-0.3434,-0.3473,-0.3864,-0.4109,-0.4025,-0.4469,-0.4983,-0.5043,-0.5104,-0.5046,-0.5053,-0.5244,-0.5304,-0.5352,-0.5396,-0.5482,-0.5566,-0.5666,-0.5666,-0.5564,-0.552,-0.5499,-0.5407,-0.5342,-0.5296,-0.5342,-0.5558,-0.5817,-0.5881,-0.6032,-0.631]},{"header":{"parameterUnit":"m.s-1","parameterCategory":1,"la1":31.0,"la2":29.5877,"lo1":-88.7671,"lo2":-86.6584,"dy":0.0162,"dx":0.0185,"nx":115,"ny":88,"refTime":"2024-07-29T06:00:00:Z","depth":0,"parameterNumber":3,"parameterNumberName":"V-component_of_WINDS"},"data":[0.0,0.0,0.0,0.0,0.0,0.0,0.0,0.0,0.0,0.0,0.0,0.0,0.0,0.0,0.0,0.0,0.0,0.0,0.0,0.0,0.0,0.0,0.0,0.0,0.0,0.0,0.0,0.0,0.0,0.0,0.0,0.0,0.0,0.0,0.0,0.0,0.0,0.0,0.0,0.0,0.0,0.0,0.0,0.0,0.0,0.0,0.0,0.0,0.0,0.0,0.0,0.0,0.0,0.0,0.0,0.0,0.0,0.0,0.0,0.0,0.0,0.0,0.0,0.0,0.0,0.0,0.0,0.0,0.0,0.0,0.0,0.0,0.0,0.0,0.0,0.0,0.0,0.0,0.0,0.0,0.0,0.0,0.0,0.0,0.0,0.0,0.0,0.0,0.0,0.0,0.0,0.0,0.0,0.0,0.0,0.0,0.0,0.0,0.0,0.0,0.0,0.0,0.0,0.0,0.0,0.0,0.0,0.0,0.0,0.0,0.0,0.0,0.0,0.0,0.0,0.0,0.0,0.0,0.0,0.0,0.0,0.0,0.0,0.0,0.0,0.0,0.0,0.0,0.0,0.0,0.0,0.0,0.0,0.0,0.0,0.0,0.0,0.0,0.0,0.0,0.0,0.0,0.0,0.0,0.0,0.0,0.0,0.0,0.0,0.0,0.0,0.0,0.0,0.0,0.0,0.0,0.0,0.0,0.0,0.0,0.0,0.0,0.0,0.0,0.0,0.0,0.0,0.0,0.0,0.0,0.0,0.0,0.0,0.0,0.0,0.0,0.0,0.0,0.0,0.0,0.0,0.0,0.0,0.0,0.0,0.0,0.0,0.0,0.0,0.0,0.0,0.0,0.0,0.0,0.0,0.0,0.0,0.0,0.0,0.0,0.0,0.0,0.0,0.0,0.0,0.0,0.0,0.0,0.0,0.0,0.0,0.0,0.0,0.0,0.0,0.0,0.0,0.0,0.0,0.0,0.0,0.0,0.0,0.0,0.0,0.0,0.0,0.0,0.0,0.0,0.0,0.0,0.0,0.0,0.0,0.0,0.0,0.0,0.0,0.0,0.0,0.0,0.0,0.0,0.0,0.0,0.0,0.0,0.0,0.0,0.0,0.0,0.0,0.0,0.0,0.0,0.0,0.0,0.0,0.0,0.0,0.0,0.0,0.0,0.0,0.0,0.0,0.0,0.0,0.0,0.0,0.0,0.0,0.0,0.0,0.0,0.0,0.0,0.0,0.0,0.0,0.0,0.0,0.0,0.0,0.0,0.0,0.0,0.0,0.0,0.0,0.0,0.0,0.0,0.0,0.0,0.0,0.0,0.0,0.0,0.0,0.0,0.0,0.0,0.0,0.0,0.0,0.0,0.0,0.0,0.0,0.0,0.0,0.0,0.0,0.0,0.0,0.0,0.0,0.0,0.0,0.0,0.0,0.0,0.0,0.0,0.0,0.0,0.0,0.0,0.0,0.0,0.0,0.0,0.0,0.0,0.0,0.0,0.0,0.0,0.0,0.0,0.0,0.0,0.0,0.0,0.0,0.0,0.0,0.0,0.0,0.0,0.0,0.0,0.0,0.0,0.0,0.0,0.0,0.0,0.0,0.0,0.0,0.0,0.0,0.0,0.0,0.0,0.0,0.0,0.0,0.0,0.0,0.0,0.0,0.0,0.0,0.0,0.0,0.0,0.0,0.0,0.0,0.0,0.0,0.0,0.0,0.0,0.0,0.0,0.0,0.0,0.0,0.0,0.0,0.0,0.0,0.0,0.0,0.0,0.0,0.0,0.0,0.0,0.0,0.0,0.0,0.0,0.0,0.0,0.0,0.0,0.0,0.0,0.0,0.0,0.0,0.0,0.0,0.0,0.0,0.0,0.0,0.0,0.0,0.0,0.0,0.0,0.0,0.0,0.0,0.0,0.0,0.0,0.0,0.0,0.0,0.0,0.0,0.0,0.0,0.0,0.0,0.0,0.0,0.0,0.0,0.0,0.0,0.0,0.0,0.0,0.0,0.0,0.0,0.0,0.0,0.0,0.0,0.0,0.0,0.0,0.0,0.0,0.0,0.0,0.0,0.0,0.0,0.0,0.0,0.0,0.0,0.0,0.0,0.0,0.0,0.0,0.0,0.0,0.0,0.0,0.0,0.0,0.0,0.0,0.0,0.0,0.0,0.0,0.0,0.0,0.0,0.0,0.0,0.0,0.0,0.0,0.0,0.0,0.0,0.0,0.0,0.0,0.0,0.0,0.0,0.0,0.0,0.0,0.0,0.0,0.0,0.0,0.0,0.0,0.0,0.0,0.0,0.0,0.0,0.0,0.0,0.0,0.0,0.0,0.0,0.0,0.0,0.0,0.0,0.0,0.0,0.0,0.0,0.0,0.0,0.0,0.0,0.0,0.0,0.0,0.0,0.0,0.0,0.0,0.0,0.0,0.0,0.0,0.0,0.0,0.0,0.0,0.0,0.0,0.0,0.0,0.0,0.0,0.0,0.0,0.0,0.0,0.0,0.0,0.0,0.0,0.0,0.0,0.0,0.0,0.0,0.0,0.0,0.0,0.0,0.0,0.0,0.0,0.0,0.0,0.0,0.0,0.0,0.0,0.0,0.0,0.0,0.0,0.0,0.0,0.0,0.0,0.0,0.0,0.0,0.0,0.0,0.0,0.0,0.0,0.0,0.0,0.0,0.0,0.0,0.0,0.0,0.0,0.0,0.0,0.0,0.0,0.0,0.0,0.0,0.0,0.0,0.0,0.0,0.0,0.0,0.0,0.0,0.0,0.0,0.0,0.0,0.0,0.0,0.0,0.0,0.0,0.0,0.0,0.0,0.0,0.0,0.0,0.0,0.0,0.0,0.0,0.0,0.0,0.0,0.0,0.0,0.0,0.0,0.0,0.0,0.0,0.0,0.0,0.0,0.0,0.0,0.0,0.0,0.0,0.0,0.0,0.0,0.0,0.0,0.0,0.0,0.0,0.0,0.0,0.0,0.0,0.0,0.0,0.0,0.0,0.0,0.0,0.0,0.0,0.0,0.0,0.0,0.0,0.0,0.0,0.0,0.0,0.0,0.0,0.0,0.0,0.0,0.0,0.0,0.0,0.0,0.0,0.0,0.0,0.0,0.0,0.0,0.0,0.0,0.0,0.0,0.0,0.0,0.0,0.0,0.0,0.0,0.0,0.0,0.0,0.0,0.0,0.0,0.0,0.0,0.0,0.0,0.0,0.0,0.0,0.0,0.0,0.0,0.0,0.0,0.0,0.0,0.0,0.0,0.0,0.0,0.0,0.0,0.0,0.0,0.0,0.0,0.0,0.0,0.0,0.0,0.0,0.0,0.0,0.0,0.0,0.0,0.0,0.0,0.0,0.0,0.0,0.0,0.0,0.0,0.0,0.0,0.0,0.0,0.0,0.0,0.0,0.0,0.0,0.0,0.0,0.0,0.0,0.0,0.0,0.0,0.0,0.0,0.0,0.0,0.0,0.0,0.0,0.0,0.0,0.0,0.0,0.0,0.0,0.0,0.0,0.0,0.0,0.0,0.0,0.0,0.0,0.0,0.0,0.0,0.0,0.0,0.0,0.0,0.0,0.0,0.0,0.0,0.0,0.0,0.0,0.0,0.0,0.0,0.0,0.0,0.0,0.0,0.0,0.0,0.0,0.0,0.0,0.0,0.0,0.0,0.0,0.0,0.0,0.0,0.0,0.0,0.0,0.0,0.0,0.0,0.0,0.0,0.0,0.0,0.0,0.0,0.0,0.0,0.0,0.0,0.0,0.0,0.0,0.0,0.0,0.0,0.0,0.0,0.0,0.0,0.0,0.0,0.0,0.0,0.0,0.0,0.0,0.0,0.0,0.0,0.0,0.0,0.0,0.0,0.0,0.0,0.0,0.0,0.0,0.0,0.0,0.0,0.0,0.0,0.0,0.0,0.0,0.0,0.0,0.0,0.0,0.0,0.0,0.0,0.0,0.0,0.0,0.0,0.0,0.0,0.0,0.0,0.0,0.0,0.0,0.0,0.0,0.0,0.0,0.0,0.0,0.0,0.0,0.0,0.0,0.0,0.0,0.0,0.0,0.0,0.0,0.0,0.0,0.0,0.0,0.0,0.0,0.0,0.0,0.0,0.0,0.0,0.0,0.0,0.0,0.0,0.0,0.0,0.0,0.0,0.0,0.0,0.0,0.0,0.0,0.0,0.0,0.0,0.0,0.0,0.0,0.0,0.0,0.0,0.0,0.0,0.0,0.0,0.0,0.0,0.0,0.0,0.0,0.0,0.0,0.0,0.0,-0.6398,0.0,0.0,0.0,0.0,0.0,0.0,0.0,0.0,0.0,0.0,0.0,0.0,0.0,0.0,0.0,0.0,0.0,0.0,0.0,0.0,0.0,0.0,0.0,0.0,0.0,0.0,0.0,0.0,0.0,0.0,0.0,0.0,0.0,0.0,0.0,0.0,0.0,0.0,0.0,0.0,0.0,0.0,0.0,0.0,0.0,0.0,0.0,0.0,0.0,0.0,0.0,0.0,0.0,0.0,0.0,0.0,0.0,0.0,0.0,0.0,0.0,0.0,0.0,0.0,0.0,0.0,0.0,0.0,0.0,0.0,0.0,0.0,0.0,0.0,0.0,0.0,0.0,0.0,0.0,0.0,0.0,0.0,0.0,0.0,0.0,0.0,0.0,0.0,0.0,0.0,0.0,0.0,0.0,0.0,0.0,0.0,0.0,0.0,0.0,0.0,0.0,0.0,0.0,0.0,0.0,0.0,0.0,0.0,0.0,0.0,-0.3353,-0.3821,-0.4072,-0.5172,-0.7146,0.0,0.0,0.0,0.0,0.0,0.0,0.0,0.0,0.0,0.0,0.0,0.0,0.0,0.0,0.0,0.0,0.0,0.0,0.0,0.0,0.0,0.0,0.0,0.0,0.0,0.0,0.0,0.0,0.0,0.0,0.0,0.0,0.0,0.0,0.0,0.0,0.0,0.0,0.0,0.0,0.0,0.0,0.0,0.0,0.0,0.0,0.0,0.0,0.0,0.0,0.0,0.0,0.0,0.0,0.0,0.0,0.0,0.0,0.0,0.0,0.0,0.0,0.0,0.0,0.0,0.0,0.0,0.0,0.0,0.0,0.0,0.0,0.0,0.0,0.0,0.0,0.0,0.0,0.0,0.0,0.0,0.0,0.0,0.0,0.0,0.0,0.0,0.0,0.0,0.0,0.0,0.0,0.0,0.0,0.0,0.0,0.0,0.0,0.0,0.0,0.0,0.0,0.0,0.0,0.0,0.0,0.0,0.0,0.0,0.0,0.0,0.0,-0.2239,-0.4205,-0.7808,0.0,0.0,0.0,0.0,0.0,0.0,0.0,0.0,0.0,0.0,0.0,0.0,0.0,0.0,0.0,0.0,0.0,0.0,0.0,0.0,0.0,0.0,0.0,0.0,0.0,0.0,0.0,0.0,0.0,0.0,0.0,0.0,0.0,0.0,0.0,0.0,0.0,0.0,0.0,0.0,0.0,0.0,0.0,0.0,0.0,0.0,0.0,0.0,0.0,0.0,0.0,0.0,0.0,0.0,0.0,0.0,0.0,0.0,0.0,0.0,0.0,0.0,0.0,0.0,0.0,0.0,0.0,0.0,0.0,0.0,0.0,0.0,0.0,0.0,0.0,0.0,0.0,0.0,0.0,0.0,0.0,0.0,0.0,0.0,0.0,0.0,0.0,0.0,0.0,0.0,0.0,0.0,0.0,0.0,0.0,0.0,0.0,0.0,0.0,0.0,0.0,0.0,0.0,0.0,0.0,0.0,0.0,0.0,0.0,0.0,0.2118,-0.066,-0.2368,0.0,-0.7634,0.0,0.0,0.0,0.0,0.0,0.0,0.0,0.0,0.0,0.0,0.0,0.0,0.0,0.0,0.0,0.0,0.0,0.0,0.0,0.0,0.0,0.0,0.0,0.0,0.0,0.0,0.0,0.0,0.0,0.0,0.0,0.0,0.0,0.0,0.0,0.0,0.0,0.0,0.0,0.0,0.0,0.0,0.0,0.0,0.0,0.0,0.0,0.0,0.0,0.0,0.0,0.0,0.0,0.0,0.0,0.0,0.0,0.0,0.0,0.0,0.0,0.0,0.0,0.0,0.0,0.0,0.0,0.0,0.0,0.0,0.0,0.0,0.0,0.0,0.0,0.0,0.0,0.0,0.0,0.0,0.0,0.0,0.0,0.0,0.0,0.0,0.0,0.0,0.0,0.0,0.0,0.0,0.0,0.0,0.0,0.0,0.0,0.0,0.0,0.0,0.0,0.0,0.0,0.0,0.0,0.0,0.0,0.0,0.0,0.0,0.5338,0.0974,-0.3708,-0.6739,0.0,0.0,0.0,0.0,0.0,0.0,0.0,0.0,0.0,0.0,0.0,0.0,0.0,0.0,0.0,0.0,0.0,0.0,0.0,0.0,0.0,0.0,0.0,0.0,0.0,0.0,0.0,0.0,0.0,0.0,0.0,0.0,0.0,0.0,0.0,0.0,0.0,0.0,0.0,0.0,0.0,0.0,0.0,0.0,0.0,0.0,0.0,0.0,0.0,0.0,0.0,0.0,0.0,0.0,0.0,0.0,0.0,0.0,0.0,0.0,0.0,0.0,0.0,0.0,0.0,0.0,0.0,0.0,0.0,0.0,0.0,0.0,0.0,0.0,0.0,0.0,0.0,0.0,0.0,0.0,0.0,0.0,0.0,0.0,0.0,0.0,0.0,0.0,0.0,0.0,0.0,0.0,0.0,0.0,0.0,0.0,0.0,0.0,0.0,0.0,0.0,0.0,0.0,0.0,0.0,0.0,0.0,0.0,0.0,0.0,0.8987,0.6248,0.0178,-0.5659,-0.846,-0.7924,0.0,0.0,0.0,0.0,0.0,0.0,0.0,0.0,0.0,0.0,0.0,0.0,0.0,0.0,0.0,0.0,0.0,0.0,0.0,0.0,0.0,0.0,0.0,0.0,0.0,0.0,0.0,0.0,0.0,0.0,0.0,0.0,0.0,0.0,0.0,0.0,0.0,0.0,0.0,0.0,0.0,0.0,0.0,0.0,0.0,0.0,0.0,0.0,0.0,0.0,0.0,0.0,0.0,0.0,0.0,0.0,0.0,0.0,0.0,0.0,0.0,0.0,0.0,0.0,0.0,0.0,0.0,0.0,0.0,0.0,0.0,0.0,0.0,0.0,0.0,0.0,0.0,0.0,0.0,0.0,0.0,0.0,0.0,0.0,0.0,0.0,0.0,0.0,0.0,0.0,0.0,0.0,0.0,0.0,0.0,0.0,0.0,0.0,0.0,0.0,0.0,0.0,0.0,0.0,0.0,0.0,0.0,0.0,0.8299,0.7587,0.348,-0.4226,-0.8095,-0.9353,0.0,0.0,0.0,0.0,0.0,0.0,0.0,0.0,0.0,0.0,0.0,0.0,0.0,0.0,0.0,0.0,0.0,0.0,0.0,0.0,0.0,0.0,0.0,0.0,0.0,0.0,0.0,0.0,0.0,0.0,0.0,0.0,0.0,0.0,0.0,0.0,0.0,0.0,0.0,0.0,0.0,0.0,0.0,0.0,0.0,0.0,0.0,0.0,0.0,0.0,0.0,0.0,0.0,0.0,0.0,0.0,0.0,0.0,0.0,0.0,0.0,0.0,0.0,0.0,0.0,0.0,0.0,0.0,0.0,0.0,0.0,0.0,0.0,0.0,0.0,0.0,0.0,0.0,0.0,0.0,0.0,0.0,0.0,0.0,0.0,0.0,0.0,0.0,0.0,0.0,0.0,0.0,0.0,0.0,0.0,0.0,0.0,0.0,0.0,0.0,0.0,0.0,0.0,0.0,0.0,0.0,0.0,0.0,0.0,0.8016,0.2747,-0.1372,-0.4169,-0.7282,-0.8802,0.0,0.0,0.0,0.0,0.0,0.0,0.0,0.0,0.0,0.0,0.0,0.0,0.0,0.0,0.0,0.0,0.0,0.0,0.0,0.0,0.0,0.0,0.0,0.0,0.0,0.0,0.0,0.0,0.0,0.0,0.0,0.0,0.0,0.0,0.0,0.0,0.0,0.0,0.0,0.0,0.0,0.0,0.0,0.0,0.0,0.0,0.0,0.0,0.0,0.0,0.0,0.0,0.0,0.0,0.0,0.0,0.0,0.0,0.0,0.0,0.0,0.0,0.0,0.0,0.0,0.0,0.0,0.0,0.0,0.0,0.0,0.0,0.0,0.0,0.0,0.0,0.0,0.0,0.0,0.0,0.0,0.0,0.0,0.0,0.0,0.0,0.0,0.0,0.0,0.0,0.0,0.0,0.0,0.0,0.0,0.0,0.0,0.0,0.0,0.0,0.0,0.0,0.0,0.0,0.0,0.0,0.0,0.0,0.0,0.5679,0.0,-0.6367,-0.6178,-0.805,-0.8965,0.0,0.0,0.0,0.0,0.0,0.0,0.0,0.0,0.0,0.0,0.0,0.0,0.0,0.0,0.0,0.0,0.0,0.0,0.0,0.0,0.0,0.0,0.0,0.0,0.0,0.0,0.0,0.0,0.0,0.0,0.0,0.0,0.0,0.0,0.0,0.0,0.0,0.0,0.0,0.0,0.0,0.0,0.0,0.0,0.0,0.0,0.0,0.0,0.0,0.0,0.0,0.0,0.0,0.0,0.0,0.0,0.0,0.0,0.0,0.0,0.0,0.0,0.0,0.0,0.0,0.0,0.0,0.0,0.0,0.0,0.0,0.0,0.0,0.0,0.0,0.0,0.0,0.0,0.0,0.0,0.0,0.0,0.0,0.0,0.0,0.0,0.0,0.0,0.0,0.0,0.0,0.0,0.0,0.0,0.0,0.0,0.0,0.0,0.0,0.0,0.0,0.0,0.0,0.0,0.0,0.0,0.0,0.0,0.9342,0.117,-0.6872,-1.0741,-1.079,-1.0657,-0.9922,0.0,0.0,0.0,0.0,0.0,0.0,0.0,0.0,0.0,0.0,0.0,0.0,0.0,0.0,0.0,0.0,0.0,0.0,0.0,0.0,0.0,0.0,0.0,0.0,0.0,0.0,0.0,0.0,0.0,0.0,0.0,0.0,0.0,0.0,0.0,0.0,0.0,0.0,0.0,0.0,0.0,0.0,0.0,0.0,0.0,0.0,0.0,0.0,0.0,0.0,0.0,0.0,0.0,0.0,0.0,0.0,0.0,0.0,0.0,0.0,0.0,0.0,0.0,0.0,0.0,0.0,0.0,0.0,0.0,0.0,0.0,0.0,0.0,0.0,0.0,0.0,0.0,0.0,0.0,0.0,0.0,0.0,0.0,0.0,0.0,0.0,0.0,0.0,0.0,0.0,0.0,0.0,0.0,0.0,0.0,0.0,0.0,0.0,0.0,0.0,0.0,0.0,0.0,0.0,0.0,0.0,0.0,0.0,0.0,0.595,-0.496,-0.9472,-0.6855,-0.8833,-0.993,0.0,0.0,0.0,0.0,0.0,0.0,0.0,0.0,0.0,0.0,0.0,0.0,0.0,0.0,0.0,0.0,0.0,0.0,0.0,0.0,0.0,0.0,0.0,0.0,0.0,0.0,0.0,0.0,0.0,0.0,0.0,0.0,0.0,0.0,0.0,0.0,0.0,0.0,0.0,0.0,0.0,0.0,0.0,0.0,0.0,0.0,0.0,0.0,0.0,0.0,0.0,0.0,0.0,0.0,0.0,0.0,0.0,0.0,0.0,0.0,0.0,0.0,0.0,0.0,0.0,0.0,0.0,0.0,0.0,0.0,0.0,0.0,0.0,0.0,0.0,0.0,0.0,0.0,0.0,0.0,0.0,0.0,0.0,0.0,0.0,0.0,0.0,0.0,0.0,0.0,0.0,0.0,0.0,0.0,0.0,0.0,0.0,0.0,0.0,0.0,0.0,0.0,0.0,0.0,0.0,0.0,0.0,0.0,0.0,0.5349,-0.5251,-0.9982,-0.7503,-0.9257,-1.0282,-1.0448,0.0,0.0,0.0,0.0,0.0,0.0,0.0,0.0,0.0,0.0,0.0,0.0,0.0,0.0,0.0,0.0,0.0,0.0,0.0,0.0,0.0,0.0,0.0,0.0,0.0,0.0,0.0,0.0,0.0,0.0,0.0,0.0,0.0,0.0,0.0,0.0,0.0,0.0,0.0,0.0,0.0,0.0,0.0,0.0,0.0,0.0,0.0,0.0,0.0,0.0,0.0,0.0,0.0,0.0,0.0,0.0,0.0,0.0,0.0,0.0,0.0,0.0,0.0,0.0,0.0,0.0,0.0,0.0,0.0,0.0,0.0,0.0,0.0,0.0,0.0,0.0,0.0,0.0,0.0,0.0,0.0,0.0,0.0,0.0,0.0,0.0,0.0,0.0,0.0,0.0,0.0,0.0,0.0,0.0,0.0,0.0,0.0,0.0,0.0,0.0,0.0,0.0,0.0,0.0,0.0,0.0,0.0,0.0,0.1401,-0.6964,-1.1353,-1.16,-1.1314,-1.0935,0.0,0.0,0.0,0.0,0.0,0.0,0.0,0.0,0.0,0.0,0.0,0.0,0.0,0.0,0.0,0.0,0.0,0.0,0.0,0.0,0.0,0.0,0.0,0.0,0.0,0.0,0.0,0.0,0.0,0.0,0.0,0.0,0.0,0.0,0.0,0.0,0.0,0.0,0.0,0.0,0.0,0.0,0.0,0.0,0.0,0.0,0.0,0.0,0.0,0.0,0.0,0.0,0.0,0.0,0.0,0.0,0.0,0.0,0.0,0.0,0.0,0.0,0.0,0.0,0.0,0.0,0.0,0.0,0.0,0.0,0.0,0.0,0.0,0.0,0.0,0.0,0.0,0.0,0.0,0.0,0.0,0.0,0.0,0.0,0.0,0.0,0.0,0.0,0.0,0.0,0.0,0.0,0.0,0.0,0.0,0.0,0.0,0.0,0.0,0.0,0.0,0.0,0.0,0.0,0.0,0.0,0.0,0.0,0.0,0.12,-0.1221,-0.405,-0.7423,-0.9901,-1.1311,0.0,0.0,0.0,0.0,0.0,0.0,0.0,0.0,0.0,0.0,0.0,0.0,0.0,0.0,0.0,0.0,0.0,0.0,0.0,0.0,0.0,0.0,0.0,0.0,0.0,0.0,0.0,0.0,0.0,0.0,0.0,0.0,0.0,0.0,0.0,0.0,0.0,0.0,0.0,0.0,0.0,0.0,0.0,0.0,0.0,0.0,0.0,0.0,0.0,0.0,0.0,0.0,0.0,0.0,0.0,0.0,0.0,0.0,0.0,0.0,0.0,0.0,0.0,0.0,0.0,0.0,0.0,0.0,0.0,0.0,0.0,0.0,0.0,0.0,0.0,0.0,0.0,0.0,0.0,0.0,0.0,0.0,0.0,0.0,0.0,0.0,0.0,0.0,0.0,0.0,0.0,0.0,0.0,0.0,0.0,0.0,0.0,0.0,0.0,0.0,0.0,0.0,0.0,0.0,0.0,0.0,0.0,0.0,0.6295,0.114,0.1168,-0.1159,-0.6204,-0.8055,-0.9963,0.0,0.0,0.0,0.0,0.0,0.0,0.0,0.0,0.0,0.0,0.0,0.0,0.0,0.0,0.0,0.0,0.0,0.0,0.0,0.0,0.0,0.0,0.0,0.0,0.0,0.0,0.0,0.0,0.0,0.0,0.0,0.0,0.0,0.0,0.0,0.0,0.0,0.0,0.0,0.0,0.0,0.0,0.0,0.0,0.0,0.0,0.0,0.0,0.0,0.0,0.0,0.0,0.0,0.0,0.0,0.0,0.0,0.0,0.0,0.0,0.0,0.0,0.0,0.0,0.0,0.0,0.0,0.0,0.0,0.0,0.0,0.0,0.0,0.0,0.0,0.0,0.0,0.0,0.0,0.0,0.0,0.0,0.0,0.0,0.0,0.0,0.0,0.0,0.0,0.0,0.0,0.0,0.0,0.0,0.0,0.0,0.0,0.0,0.0,0.0,0.0,0.0,0.0,0.0,0.0,0.0,0.0,0.0,0.7358,0.1805,0.2449,-0.0048,-0.5941,-0.6041,-0.7851,0.0,0.0,0.0,0.0,0.0,0.0,0.0,0.0,0.0,0.0,0.0,0.0,0.0,0.0,0.0,0.0,0.0,0.0,0.0,0.0,0.0,0.0,0.0,0.0,0.0,0.0,0.0,0.0,0.0,0.0,0.0,0.0,0.0,0.0,0.0,0.0,0.0,0.0,0.0,0.0,0.0,0.0,0.0,0.0,0.0,0.0,0.0,0.0,0.0,0.0,0.0,0.0,0.0,0.0,0.0,0.0,0.0,0.0,0.0,0.0,0.0,0.0,0.0,0.0,0.0,0.0,0.0,0.0,0.0,0.0,0.0,0.0,0.0,0.0,0.0,0.0,0.0,0.0,0.0,0.0,0.0,0.0,0.0,0.0,0.0,0.0,0.0,0.0,0.0,0.0,0.0,0.0,0.0,0.0,0.0,0.0,0.0,0.0,0.0,0.0,0.0,0.0,0.0,0.0,0.0,0.0,0.0,0.0,1.1329,0.6065,0.9281,0.689,-0.1868,-0.4379,-0.7629,0.0,0.0,0.0,0.0,0.0,0.0,0.0,0.0,0.0,0.0,0.0,0.0,0.0,0.0,0.0,0.0,0.0,0.0,0.0,0.0,0.0,0.0,0.0,0.0,0.0,0.0,0.0,0.0,0.0,0.0,0.0,0.0,0.0,0.0,0.0,0.0,0.0,0.0,0.0,0.0,0.0,0.0,0.0,0.0,0.0,0.0,0.0,0.0,-0.8989,0.0,0.0,0.0,0.0,0.0,0.0,0.0,0.0,0.0,0.0,0.0,0.0,0.0,0.0,0.0,0.0,0.0,0.0,0.0,0.0,0.0,0.0,0.0,0.0,0.0,0.0,0.0,0.0,0.0,0.0,0.0,0.0,0.0,0.0,0.0,0.0,0.0,0.0,0.0,0.0,0.0,0.0,0.0,0.0,0.0,0.0,0.0,0.0,0.0,0.0,0.0,0.0,0.0,0.0,0.0,0.0,0.0,0.0,0.0,1.3574,1.0463,1.2675,1.0221,0.2674,-0.098,-0.5671,0.0,0.0,0.0,0.0,0.0,0.0,0.0,0.0,0.0,0.0,0.0,0.0,0.0,0.0,0.0,0.0,0.0,0.0,0.0,0.0,0.0,0.0,0.0,0.0,0.0,0.0,0.0,0.0,0.0,0.0,0.0,0.0,0.0,0.0,0.0,0.0,0.0,0.0,0.0,0.0,0.0,0.0,0.0,0.0,0.0,0.0,0.0,0.0,0.0,0.0,0.0,0.0,0.0,0.0,0.0,0.0,0.0,0.0,0.0,0.0,0.0,0.0,0.0,0.0,0.0,0.0,0.0,0.0,0.0,0.0,0.0,0.0,0.0,0.0,0.0,0.0,0.0,0.0,0.0,0.0,0.0,0.0,0.0,0.0,0.0,0.0,0.0,0.0,0.0,0.0,0.0,0.0,0.0,0.0,0.0,0.0,0.0,0.0,0.0,0.0,0.0,0.0,0.0,0.0,0.0,0.0,0.0,1.5361,1.4633,1.3848,1.3969,1.1103,0.5018,0.1887,-0.3592,-1.1662,0.0,0.0,0.0,0.0,0.0,0.0,0.0,0.0,0.0,0.0,0.0,0.0,0.0,0.0,0.0,0.0,0.0,0.0,0.0,0.0,0.0,0.0,0.0,0.0,0.0,0.0,0.0,0.0,0.0,0.0,0.0,0.0,0.0,0.0,0.0,0.0,0.0,0.0,-0.6763,-0.7817,0.0,0.0,0.0,0.0,0.0,0.0,0.0,0.0,-1.1142,0.0,0.0,0.0,0.0,0.0,0.0,0.0,0.0,0.0,0.0,0.0,0.0,0.0,0.0,0.0,0.0,0.0,0.0,0.0,0.0,0.0,0.0,0.0,0.0,0.0,0.0,0.0,0.0,0.0,0.0,0.0,0.0,0.0,0.0,0.0,0.0,0.0,0.0,0.0,0.0,0.0,0.0,0.0,0.0,0.0,0.0,0.0,0.0,0.0,0.0,0.0,0.0,0.0,0.0,0.0,0.0,1.6687,1.5119,1.4131,1.381,1.3506,0.9083,0.0434,0.0186,-0.3674,-1.1723,0.0,0.0,0.0,0.0,0.0,0.0,0.0,0.0,0.0,0.0,0.0,0.0,0.0,0.0,0.0,0.0,0.0,0.0,0.0,0.0,0.0,0.0,0.0,0.0,0.0,0.0,0.0,0.0,0.0,0.0,0.0,0.0,0.0,0.0,0.0,0.0,0.0,0.0,0.0,-0.7872,-0.8716,0.0,0.0,0.0,0.0,0.0,0.0,0.0,0.0,-1.1318,0.0,0.0,0.0,0.0,0.0,0.0,0.0,0.0,0.0,0.0,0.0,0.0,0.0,0.0,0.0,0.0,0.0,0.0,0.0,0.0,0.0,0.0,0.0,0.0,0.0,0.0,0.0,0.0,0.0,0.0,0.0,0.0,0.0,0.0,0.0,0.0,0.0,0.0,0.0,0.0,0.0,0.0,0.0,0.0,0.0,0.0,0.0,0.0,0.0,0.0,0.0,0.0,0.0,0.0,0.0,1.6688,1.5065,1.4142,1.4093,1.3507,1.1023,0.6497,0.2712,-0.1132,0.0,0.0,0.0,0.0,0.0,0.0,0.0,0.0,0.0,0.0,0.0,0.0,0.0,0.0,0.0,0.0,0.0,0.0,0.0,0.0,0.0,0.0,0.0,0.0,0.0,0.0,0.0,0.0,0.0,0.0,0.0,0.0,0.0,0.0,0.0,0.0,0.0,0.0,0.0,0.0,-0.8088,-0.8739,-0.9288,0.0,0.0,0.0,0.0,0.0,0.0,-1.132,-1.1497,0.0,0.0,0.0,0.0,0.0,0.0,0.0,0.0,0.0,0.0,0.0,0.0,0.0,0.0,0.0,0.0,0.0,0.0,0.0,0.0,0.0,0.0,0.0,0.0,0.0,0.0,0.0,0.0,0.0,0.0,0.0,0.0,0.0,0.0,0.0,0.0,0.0,0.0,0.0,0.0,0.0,0.0,0.0,0.0,0.0,0.0,0.0,0.0,0.0,0.0,0.0,0.0,0.0,0.0,0.0,1.6624,1.5163,1.4386,1.4373,1.3749,1.2497,1.0569,0.441,0.0358,0.0,0.0,0.0,0.0,0.0,0.0,0.0,0.0,0.0,0.0,0.0,0.0,0.0,0.0,0.0,0.0,0.0,0.0,0.0,0.0,0.0,0.0,0.0,0.0,0.0,0.0,0.0,0.0,0.0,0.0,0.0,0.0,0.0,0.0,0.0,0.0,0.0,0.0,0.0,0.0,0.0,-0.8899,-0.9607,-1.003,0.0,0.0,0.0,0.0,-1.1486,-1.156,0.0,0.0,0.0,0.0,0.0,0.0,0.0,0.0,0.0,0.0,0.0,0.0,0.0,0.0,0.0,0.0,0.0,0.0,0.0,0.0,0.0,0.0,0.0,0.0,0.0,0.0,0.0,0.0,0.0,0.0,0.0,0.0,0.0,0.0,0.0,0.0,0.0,0.0,0.0,0.0,0.0,0.0,0.0,0.0,0.0,0.0,0.0,0.0,0.0,0.0,0.0,0.0,0.0,0.0,0.0,0.0,1.635,1.5486,1.4807,1.4409,1.421,0.9915,0.1353,0.1048,-0.2772,0.0,0.0,0.0,0.0,0.0,0.0,0.0,0.0,0.0,0.0,0.0,0.0,0.0,0.0,0.0,0.0,0.0,0.0,0.0,0.0,0.0,0.0,0.0,0.0,0.0,0.0,0.0,0.0,0.0,0.0,0.0,0.0,0.0,0.0,0.0,0.0,0.0,0.0,0.0,0.0,0.0,-0.9171,-0.933,-0.9717,-1.0006,0.0,0.0,-1.1207,-1.125,-1.1005,0.0,0.0,0.0,0.0,0.0,0.0,0.0,0.0,0.0,0.0,0.0,0.0,0.0,0.0,0.0,0.0,0.0,0.0,0.0,0.0,0.0,0.0,0.0,0.0,0.0,0.0,0.0,0.0,0.0,0.0,0.0,0.0,0.0,0.0,0.0,0.0,0.0,0.0,0.0,0.0,0.0,0.0,0.0,0.0,0.0,0.0,0.0,0.0,0.0,0.0,0.0,0.0,0.0,0.0,0.0,1.5212,1.6264,1.5563,1.5042,1.4797,1.4407,1.1055,0.4502,0.2588,-0.15,0.0,0.0,0.0,0.0,0.0,0.0,0.0,0.0,0.0,0.0,0.0,0.0,0.0,0.0,0.0,0.0,0.0,0.0,0.0,0.0,0.0,0.0,0.0,0.0,0.0,0.0,0.0,0.0,0.0,0.0,0.0,0.0,0.0,0.0,0.0,0.0,0.0,0.0,0.0,0.0,0.0,0.0,-0.9489,-1.0069,0.0,0.0,0.0,-1.1407,-1.1436,0.0,0.0,0.0,0.0,0.0,0.0,0.0,0.0,0.0,0.0,0.0,0.0,0.0,0.0,0.0,0.0,0.0,0.0,0.0,0.0,0.0,0.0,0.0,0.0,0.0,0.0,0.0,0.0,0.0,0.0,0.0,0.0,0.0,0.0,0.0,0.0,0.0,0.0,0.0,0.0,0.0,0.0,0.0,0.0,0.0,0.0,0.0,0.0,0.0,0.0,0.0,0.0,0.0,0.0,0.0,0.0,0.0,1.5947,1.5608,1.5329,1.5144,1.4544,1.2081,0.7578,0.3753,0.0,0.0,0.0,0.0,0.0,0.0,0.0,0.0,0.0,0.0,0.0,0.0,0.0,0.0,0.0,0.0,0.0,0.0,0.0,0.0,0.0,0.0,0.0,0.0,0.0,0.0,0.0,-0.674,0.0,0.0,0.0,0.0,0.0,0.0,0.0,0.0,0.0,0.0,0.0,0.0,0.0,0.0,-0.953,-0.9808,-1.0548,-1.1002,0.0,0.0,-1.1621,-1.151,-1.151,-1.1447,0.0,0.0,0.0,0.0,0.0,0.0,0.0,0.0,0.0,0.0,0.0,0.0,0.0,0.0,0.0,0.0,0.0,0.0,0.0,0.0,0.0,0.0,0.0,0.0,0.0,0.0,0.0,0.0,0.0,0.0,0.0,0.0,0.0,0.0,0.0,0.0,0.0,0.0,0.0,0.0,0.0,0.0,0.0,0.0,0.0,0.0,0.0,0.0,0.0,0.0,0.0,0.0,0.0,0.0,1.4514,1.5087,1.5723,1.5787,1.5292,1.4695,1.1604,0.5869,0.2733,-0.1535,0.0,0.0,0.0,0.0,0.0,0.0,0.0,0.0,0.0,0.0,0.0,0.0,0.0,0.0,0.0,0.0,0.0,0.0,0.0,0.0,0.0,0.0,0.0,0.0,0.0,0.0,0.0,0.0,0.0,0.0,0.0,0.0,0.0,0.0,0.0,0.0,0.0,0.0,0.0,0.0,0.0,-1.0287,-1.027,-1.1003,-1.1299,0.0,-1.1188,-1.1664,-1.1292,-1.0986,-1.0772,-1.0759,0.0,0.0,0.0,0.0,0.0,0.0,0.0,0.0,0.0,0.0,0.0,0.0,0.0,0.0,0.0,0.0,0.0,0.0,0.0,0.0,0.0,0.0,0.0,0.0,0.0,0.0,0.0,0.0,0.0,0.0,0.0,0.0,0.0,0.0,0.0,0.0,0.0,0.0,0.0,0.0,0.0,0.0,0.0,0.0,0.0,0.0,0.0,0.0,0.0,0.0,0.0,0.0,0.0,1.4424,1.4861,1.5628,1.5725,1.5128,1.4239,1.1314,0.6182,0.2469,-0.1766,0.0,0.0,0.0,0.0,0.0,0.0,0.0,0.0,0.0,0.0,0.0,0.0,0.0,0.0,0.0,0.0,0.0,0.0,0.0,0.0,0.0,0.0,0.0,0.0,0.0,0.0,0.0,0.0,-0.7741,-0.7914,-0.786,0.0,0.0,0.0,0.0,0.0,0.0,0.0,0.0,0.0,0.0,-1.0885,-1.0638,-1.1247,0.0,0.0,-1.1932,-1.2459,-1.1905,-1.1981,-1.1994,-1.1615,-1.1314,0.0,0.0,0.0,0.0,0.0,0.0,0.0,0.0,0.0,0.0,0.0,0.0,0.0,0.0,0.0,0.0,0.0,0.0,0.0,0.0,0.0,0.0,0.0,0.0,0.0,0.0,0.0,0.0,0.0,0.0,0.0,0.0,0.0,0.0,0.0,0.0,0.0,0.0,0.0,0.0,0.0,0.0,0.0,0.0,0.0,0.0,0.0,0.0,0.0,0.0,0.0,0.0,1.4511,1.4796,1.5572,1.5668,1.5044,1.3784,1.1395,0.7726,0.2661,-0.1624,0.0,0.0,0.0,0.0,0.0,0.0,0.0,0.0,0.0,0.0,0.0,0.0,0.0,0.0,0.0,0.0,0.0,0.0,0.0,0.0,0.0,0.0,0.0,0.0,0.0,0.0,0.0,0.0,-0.7111,-0.6078,-0.4777,0.0,0.0,0.0,0.0,0.0,0.0,0.0,0.0,0.0,0.0,-1.1235,-1.1019,-1.146,-1.1744,-1.1496,-1.2325,-1.2851,-1.2549,-1.2577,-1.2515,-1.2154,0.0,0.0,0.0,0.0,0.0,0.0,0.0,0.0,0.0,0.0,0.0,0.0,0.0,0.0,0.0,0.0,0.0,0.0,0.0,0.0,0.0,0.0,0.0,0.0,0.0,0.0,0.0,1.4288,0.0,0.0,1.3862,0.0,0.0,0.0,0.0,0.0,0.0,0.0,0.0,0.0,0.0,0.0,0.0,0.0,0.0,0.0,0.0,0.0,0.0,0.0,0.0,0.0,0.0,1.4733,1.4805,1.5525,1.5646,1.5076,1.3426,1.1903,1.044,0.3298,-0.1138,-0.2234,0.0,0.0,0.0,0.0,0.0,0.0,0.0,0.0,0.0,0.0,0.0,0.0,0.0,0.0,0.0,0.0,0.0,0.0,0.0,0.0,0.0,0.0,0.0,0.0,0.0,0.0,-0.7815,-0.5123,-0.1649,0.0,0.0,0.0,0.0,0.0,0.0,0.0,0.0,0.0,-0.3666,-0.8147,-1.1367,-1.1407,-1.168,-1.1947,-1.1911,-1.2221,-1.2629,-1.3109,-1.2454,-1.1873,0.0,0.0,0.0,0.0,0.0,0.0,0.0,0.0,0.0,0.0,0.0,0.0,0.0,0.0,0.0,0.0,0.0,0.0,0.0,0.0,0.0,0.0,0.0,0.0,0.0,0.0,0.0,1.3321,1.0105,0.0,0.0,0.0,0.0,0.0,0.0,0.0,0.0,0.0,0.0,0.0,1.6039,1.6525,0.0,0.0,0.0,0.0,0.0,0.0,0.0,0.0,0.0,0.0,0.0,0.0,1.4735,1.4827,1.5497,1.5653,1.5263,1.3382,1.1923,1.0937,0.5286,-0.0094,-0.4988,0.0,0.0,0.0,0.0,0.0,0.0,0.0,0.0,0.0,0.0,0.0,0.0,0.0,0.0,0.0,0.0,0.0,0.0,0.0,0.0,0.0,0.0,0.0,0.0,0.0,-0.3686,0.0,0.0,0.0,0.0,0.0,0.0,0.0,0.0,0.0,0.0,0.0,0.0674,0.0445,-0.4253,-0.8816,-1.1888,-1.2838,-1.3145,0.0,0.0,0.0,0.0,0.0,0.0,0.0,0.0,0.0,0.0,0.0,0.0,0.0,0.0,-1.2343,-1.2335,-1.2462,-1.2605,-1.2658,0.0,0.0,0.0,0.0,0.0,0.0,0.0,0.0,0.0,0.0,0.0,0.0,0.0,0.0,1.1318,0.8301,1.3165,0.0,0.0,0.0,0.0,0.0,0.0,0.0,0.0,1.6906,1.7017,1.6798,1.7263,1.7486,0.0,1.7467,1.7211,0.0,0.0,0.0,0.0,0.0,0.0,0.0,0.0,1.5,1.5093,1.5545,1.5556,1.5015,1.3259,1.1794,1.0721,0.5956,0.0839,-0.4575,-0.7729,-0.9463,0.0,0.0,0.0,0.0,0.0,0.0,0.0,0.0,0.0,0.0,0.0,0.0,0.0,0.0,0.0,0.0,0.0,0.0,0.0,0.0,0.0,0.0,0.0,0.0128,0.0,0.0,0.0,0.0,0.0,0.0,0.0,0.0,0.0,1.3571,0.898,0.5933,0.5818,-0.0557,-0.6338,-0.94,0.0,0.0,0.0,0.0,0.0,0.0,0.0,-1.4363,-1.3796,-1.3298,-1.2901,-1.2804,-1.2839,-1.2881,-1.2837,0.0,0.0,-1.2584,-1.2689,-1.2725,-1.2694,-1.2722,-1.2703,-1.2578,-1.2535,-1.2433,0.0,0.0,0.0,0.0,0.0,0.0,0.0,0.0,0.587,0.8091,0.0,1.3429,0.0,0.0,0.0,0.0,0.0,1.8382,0.0,0.0,1.846,1.8149,1.7544,1.7511,1.7486,1.7486,1.7366,1.7375,1.7466,1.7195,0.0,0.0,0.0,0.0,0.0,0.0,1.5551,1.5609,1.574,1.5363,1.4482,1.3085,1.163,1.0022,0.5362,0.1596,-0.0972,-0.4325,-0.6064,-0.5928,-0.9117,0.0,0.0,0.0,0.0,0.0,0.0,0.0,0.0,0.0,0.0,0.0,0.0,0.0,0.0,0.0,0.0,0.0,0.0,0.0,0.0,0.2243,0.0,0.0,0.0,0.0,0.0,0.0,0.0,0.0,0.0,0.0,1.7963,1.4059,1.1436,1.1806,0.0,0.0,0.0,0.0,-1.3244,-1.394,-1.4202,-1.4652,-1.5558,-1.4916,-1.4376,-1.4665,0.0,0.0,-1.3012,-1.2925,-1.2876,-1.2735,-1.2705,-1.2705,-1.2681,-1.2542,-1.2498,-1.2868,-1.2635,-1.25,-1.2844,-1.2715,-1.2584,-1.3757,0.0,0.0,0.0,0.0,-0.6508,-0.5964,-0.4705,0.0511,0.3018,0.3732,0.9002,0.0,0.0,0.0,0.0,0.0,0.0,1.9287,1.9253,1.8745,1.8389,1.8207,1.7727,1.7486,1.7486,1.7459,1.7459,1.7511,1.7889,1.7473,1.6348,0.0,0.0,0.0,0.0,1.5968,1.6017,1.5884,1.5658,1.5414,1.3927,1.1969,0.9514,0.5139,0.2346,0.1414,-0.1168,-0.3799,-0.629,-0.4677,0.0,0.0,0.0,0.0,0.0,0.0,0.0,0.0,0.0,0.0,0.0,0.0,0.0,0.0,0.0,0.0,0.0,0.0,0.0,0.6092,0.6435,0.8165,0.0,0.0,0.0,0.0,0.0,0.0,0.0,0.0,0.0,1.8749,1.7709,1.5661,0.0,0.0,0.3721,-0.3887,-0.6437,-0.9249,-1.4089,-1.481,0.0,-1.5909,-1.565,-1.5254,-1.5028,-1.4449,-1.3871,-1.3324,-1.3257,-1.3176,-1.2895,-1.2754,-1.2705,-1.2696,-1.2759,-1.2777,-1.2686,-1.2782,-1.2858,-1.2701,-1.2696,-1.2871,-1.4482,-1.4195,-1.4189,-1.2531,-0.9962,-0.9912,-1.009,-0.9845,-0.2339,0.1291,0.2406,0.9971,1.5221,1.8455,1.8577,0.0,0.0,0.0,2.0042,2.0003,1.9283,1.8774,1.8472,1.7826,1.7486,1.7486,1.737,1.7494,1.7836,1.8125,1.7928,1.7296,0.0,0.0,1.6168,1.6318,1.6332,1.6197,1.5941,1.5671,1.5387,1.3657,1.1842,0.9968,0.6961,0.5328,0.5302,0.2657,0.0233,-0.1755,-0.0979,-0.1354,0.0,0.0,0.0,0.0,0.0,0.0,0.0,0.0,0.0,0.0,0.0,0.9315,0.9039,0.0,0.0,0.0,0.889,0.7059,0.8489,1.0021,0.0,0.0,0.0,0.0,0.0,0.0,0.0,1.8511,1.9114,1.951,1.9521,1.9621,1.8571,1.5566,1.2871,0.8032,-0.0636,0.0,-0.7897,-1.4255,-1.5314,-1.5599,-1.6176,-1.6057,-1.5714,-1.5193,-1.4703,-1.4165,-1.3586,-1.3443,-1.3324,-1.3074,-1.2953,-1.2929,-1.3031,-1.3161,-1.3079,-1.2613,-1.2876,-1.3035,-1.2671,-1.2754,-1.3022,-1.5119,-1.5119,-1.5085,-1.5079,-1.5114,-1.5091,-1.5085,-1.4289,-0.4195,0.1157,0.3382,1.3438,1.8438,1.9235,1.9013,0.0,1.9963,2.0497,2.0756,2.0743,2.0028,1.9333,1.8662,1.7988,1.7669,1.766,1.7355,1.7608,1.8354,1.8208,1.8282,1.8632,1.8878,1.8205,1.6776,1.6856,1.6739,1.6317,1.5963,1.5484,1.4775,1.2808,1.1583,1.1211,0.9996,0.9467,0.9719,0.6763,0.5187,0.5305,0.2375,0.0662,0.0628,0.0,0.0,0.0,0.0,0.0,0.0,0.0,0.0,0.0,0.0,0.0,0.0,0.0,0.0,1.3263,1.3286,0.0,0.9991,1.3091,0.0,0.0,0.0,1.7393,1.7439,1.86,1.9379,1.9371,0.0,0.0,2.0287,2.0241,2.0208,2.0279,1.5764,1.0377,0.4692,-0.137,-0.7652,-1.331,-1.5273,-1.5993,-1.6287,-1.6188,-1.584,-1.5289,-1.4949,-1.4559,-1.3894,-1.3634,-1.3452,-1.3309,-1.3261,-1.3338,-1.3586,-1.3663,-1.3478,-1.2788,-1.2944,-1.3122,-1.2847,-1.2871,-1.3157,-1.5119,-1.5119,-1.5119,-1.5119,-1.5119,-1.5119,-1.5119,-1.4863,-1.2285,-0.6015,0.2749,0.5405,1.1649,2.0302,2.0156,2.044,2.1026,2.1111,2.1294,2.1497,2.0771,2.034,2.0141,1.9445,1.9109,1.9101,1.9027,1.9043,1.9159,1.9644,1.9573,1.9057,2.003,1.9732,1.8147,1.7697,1.7366,1.7116,1.6298,1.549,1.4735,1.3677,1.2837,1.2246,1.1159,1.0417,1.0107,0.9511,0.7823,0.5055,0.6921,0.694,0.4404,0.6697,0.0,0.0,0.0,0.0,0.0,0.0,0.0,0.0,0.0,1.3711,1.2769,0.0,1.4194,0.0,1.3959,1.4123,1.4513,1.5394,0.0,0.0,1.87,1.9009,1.9501,1.9848,2.0065,2.0048,2.0066,2.0131,2.0295,1.9722,1.9548,2.0152,1.9124,1.604,0.9893,0.461,-0.1046,-0.7458,-1.2429,-1.538,-1.608,-1.6194,-1.6025,-1.5614,-1.5503,-1.5238,-1.4554,-1.441,-1.4265,-1.3897,-1.3808,-1.3855,-1.3907,-1.4145,-1.4163,-1.3724,-1.3409,-1.3189,-1.3103,-1.3185,-1.3586,-1.2562,-1.5079,-1.5119,-1.5119,-1.5119,-1.5119,-1.5119,-1.4711,-0.9361,-0.3281,0.3159,0.8545,1.4603,2.0707,2.0893,2.1095,2.1348,2.1472,2.1624,2.1748,2.1042,2.0693,2.0669,1.9937,1.9557,1.9512,1.9444,1.9505,1.9681,2.0003,2.0081,1.9872,2.0607,2.0496,1.957,1.8578,1.7896,1.7537,1.6481,1.5675,1.5097,1.4466,1.3912,1.3458,1.2571,1.1924,1.1559,1.1551,1.0403,0.805,0.9885,1.0032,0.7948,0.9601,1.0804,0.0,0.0,0.0,0.0,0.0,0.0,0.0,0.0,0.0,0.0,0.0,1.4555,1.4357,1.4747,1.5551,1.6876,1.7355,1.8153,1.9587,1.9758,1.9896,2.0266,2.0287,2.0287,2.0287,2.02,2.0166,2.0272,1.9878,1.95,1.9414,1.9648,1.7775,1.2068,0.6646,0.0897,-0.5413,-1.1357,-1.5355,-1.596,-1.6122,-1.6113,-1.582,-1.5709,-1.5503,-1.4971,-1.4783,-1.4606,-1.4387,-1.4287,-1.4316,-1.4449,-1.4651,-1.4702,-1.4322,-1.3836,-1.3522,-1.3553,-1.3624,-1.3972,-0.8925,-1.386,-1.3904,-1.3441,-1.2745,-1.3534,-1.3904,-1.3112,-0.1744,0.3617,0.5009,1.6315,2.1197,2.1055,2.1315,2.1394,2.134,2.1617,2.1751,2.1748,2.1133,2.0793,2.0677,2.0031,1.961,1.9397,1.9264,1.9425,1.9872,1.9829,2.0099,2.0644,2.0747,2.0763,2.062,1.9249,1.819,1.7511,1.6505,1.5876,1.5609,1.5145,1.48,1.4624,1.402,1.3598,1.337,1.3045,1.2635,1.209,1.1774,1.14,1.0908,1.0861,1.1116,0.0,1.1722,0.0,0.0,0.0,0.0,0.0,0.0,0.0,0.0,1.4885,1.4967,1.4896,1.5686,1.6728,1.7985,1.8793,1.9531,2.0193,2.0287,2.0287,2.0287,2.0287,2.0287,2.0287,2.0287,2.0272,2.0173,2.0111,1.9516,1.8553,1.8669,1.748,1.3144,0.6966,0.0694,-0.4771,-1.1058,-1.5304,-1.5583,-1.5838,-1.5917,-1.5661,-1.551,-1.542,-1.5105,-1.4812,-1.4615,-1.4643,-1.4513,-1.4547,-1.4868,-1.4856,-1.4772,-1.4445,-1.4039,-1.3784,-1.3873,-1.3829,-1.4045,-0.6413,-0.7463,-0.7487,-0.4504,-0.0227,-0.5288,-0.7467,-0.6952,0.0453,0.6307,1.1177,1.8183,2.1245,2.1166,2.1126,2.1206,2.1386,2.1379,2.1533,2.1789,2.1663,2.1274,2.071,2.044,2.0007,1.9413,1.9264,1.921,1.9196,1.972,1.9963,2.0012,2.0533,2.0518,1.998,0.0,0.0,0.0,1.6128,1.5848,1.5674,1.5476,1.5381,1.5374,1.5016,0.0,1.427,1.392,1.3501,1.2979,1.2897,0.0,0.0,0.0,0.0,0.0,0.0,0.0,0.0,0.0,0.0,0.0,1.4465,1.4935,1.5338,1.6411,1.7027,1.6884,1.7178,1.7695,1.8474,1.887,1.9313,1.9959,2.0208,2.0287,2.0287,2.0287,2.0287,2.0287,2.0279,2.0088,1.9549,1.8985,1.8514,1.8199,1.7846,1.7486,1.6988,0.8598,0.2222,0.0112,-0.8383,-1.4514,-1.4882,-1.5103,-1.5145,-1.4834,-1.4685,-1.471,-1.4867,-1.4532,-1.4306,-1.4475,-1.423,-1.3941,-1.3929,-1.3874,-1.3937,-1.3807,-1.3707,-1.367,-1.379,-1.3505,-1.34,0.1634,0.0,-0.1545,0.0109,0.0,0.2566,0.2768,0.3114,0.3504,0.8846,1.7471,2.0482,2.1768,2.1678,2.1561,2.1545,2.1653,2.1579,2.1648,2.1779,2.1431,2.1029,2.0578,2.0147,1.9698,1.9208,1.9248,1.9222,1.9088,1.9528,1.9817,1.9953,2.0304,2.0234,1.9783,1.8733,1.7576,1.6316,1.6199,1.606,1.5904,1.5876,1.5862,1.5891,1.5631,0.0,0.0,0.0,0.0,0.0,0.0,0.0,0.0,0.0,0.0,1.312,1.3283,1.3487,1.3731,1.3998,1.4458,1.5195,1.6225,1.673,1.6509,1.718,1.7667,1.7834,1.805,1.8444,1.9076,1.9306,1.9531,1.9849,1.999,2.0053,2.003,1.9859,1.9711,1.9673,1.9436,1.9123,1.8808,1.8453,1.8069,1.7754,1.7431,1.7193,1.6585,1.0766,0.4453,-0.1167,-0.8641,-1.4177,-1.4277,-1.439,-1.447,-1.4344,-1.4211,-1.4265,-1.4583,-1.4346,-1.4148,-1.4258,-1.4058,-1.3822,-1.3761,-1.3741,-1.372,-1.3677,-1.3518,-1.336,-1.34,-1.3335,-1.3417,0.9595,0.4213,0.4157,0.4438,0.5192,0.9265,1.1317,1.1627,0.0,0.0,0.0,2.231,2.2254,2.216,2.2104,2.2021,2.194,2.1936,2.1847,2.1697,2.1089,2.0608,2.0224,1.9586,1.9135,1.8799,1.8972,1.8961,1.883,1.9135,1.9476,1.9787,1.9919,1.984,1.9493,1.8241,1.7223,1.6532,1.6415,1.6309,1.6151,1.6143,1.6159,1.6173,1.6019,1.597,1.6039,1.5536,1.5067,1.4706,1.4357,1.3977,1.3527,1.3484,1.3685,1.417,1.4285,1.4514,1.5015,1.5261,1.5731,1.6484,1.7623,1.8101,1.7696,1.7777,1.8015,1.8464,1.869,1.9018,1.9515,1.9705,1.9795,1.978,1.9823,1.9811,1.9723,1.9407,1.9182,1.9038,1.8663,1.8207,1.81,1.8038,1.7777,1.7185,1.6985,1.6847,1.5772,1.2091,0.5379,-0.3897,-0.9253,-1.246,-1.346,-1.3692,-1.3818,-1.3864,-1.3706,-1.3787,-1.4075,-1.4039,-1.3923,-1.3927,-1.382,-1.3643,-1.3615,-1.3562,-1.3619,-1.3559,-1.3252,-1.2961,-1.2926,-1.3153,-1.337,1.1338,0.9833,0.9839,1.2893,1.7389,1.2907,1.0988,1.1475,1.7223,2.081,2.2363,2.2324,2.2192,2.2036,2.2254,2.2245,2.209,2.2301,2.2039,2.1372,2.1248,2.0535,1.9301,1.9008,1.8565,1.7979,1.7788,1.7711,1.7785,1.8294,1.8582,1.8716,1.9265,1.9277,1.8564,1.7594,1.714,1.7232,1.6633,1.6301,1.6274,1.61,1.6046,1.6109,1.6081,1.6095,1.6159,1.5935,1.5789,1.5761,1.5461,1.5176,1.5001,1.4868,1.4783,1.4738,1.4974,1.519,1.5262,1.5558,1.6234,1.7357,1.7495,1.7722,1.8303,1.8831,1.9174,1.9244,1.9251,1.9336,1.9431,1.9599,1.9744,1.9744,1.9876,1.984,1.9526,1.9375,1.9193,1.89,1.8706,1.8232,1.7687,1.7448,1.7115,1.6525,1.6448,1.6339,1.5577,1.2167,0.543,-0.2713,-0.5934,-0.828,-1.1739,-1.2842,-1.2975,-1.2902,-1.2957,-1.3057,-1.3422,-1.3294,-1.3228,-1.3391,-1.3195,-1.2926,-1.2763,-1.2613,-1.2725,-1.2743,-1.2637,-1.2578,-1.2566,-1.2617,-1.2635,1.6103,1.5438,1.543,1.6837,1.8902,1.6429,1.5333,1.5598,1.9467,2.1441,2.1739,2.1712,2.191,2.2271,2.2355,2.2145,2.1716,2.1812,2.1429,2.07,2.0295,1.9696,1.9002,1.8484,1.8063,1.7698,1.7692,1.7676,1.7763,1.8109,1.8389,1.8605,1.8821,1.8727,1.8376,1.763,1.7268,1.7393,1.6922,1.6678,1.6678,1.6594,1.6488,1.6377,1.6281,1.624,1.6303,1.6125,1.6033,1.6095,1.5955,1.5812,1.5624,1.5558,1.5448,1.5246,1.5374,1.5507,1.5566,1.6025,1.654,1.7115,1.7276,1.7636,1.8358,1.8804,1.9195,1.9483,1.938,1.9343,1.9501,1.9769,1.9932,1.9907,2.0168,2.0073,1.9544,1.921,1.8875,1.838,1.7948,1.7505,1.7066,1.6933,1.6724,1.628,1.6208,1.6208,1.6208,1.4377,0.958,0.0811,-0.3388,-0.7077,-1.1252,-1.2246,-1.233,-1.2478,-1.2401,-1.2484,-1.2793,-1.2788,-1.2877,-1.3005,-1.2925,-1.2898,-1.2774,-1.2774,-1.2733,-1.2627,-1.2632,-1.2638,-1.2591,-1.2562,-1.2538,1.9714,1.8991,1.9035,1.8715,1.8179,1.873,1.8935,1.8947,1.9538,2.0174,2.0756,2.0925,2.1356,2.1986,2.1994,2.17,2.1249,2.1181,2.0795,2.0074,1.9496,1.9081,1.8788,1.8202,1.7883,1.7828,1.7944,1.7999,1.8014,1.8185,1.8452,1.8751,1.8584,1.8483,1.8406,1.7843,1.7555,1.7566,1.7313,1.7146,1.7093,1.7085,1.6947,1.6707,1.6549,1.6455,1.6429,1.624,1.6179,1.6228,1.6187,1.6036,1.5765,1.5873,1.5824,1.5553,1.5651,1.5769,1.59,1.6315,1.6631,1.6757,1.6959,1.7409,1.8091,1.8415,1.8848,1.9395,1.9373,1.9409,1.9751,2.001,2.0195,2.0256,2.0315,2.0065,1.9476,1.8949,1.8407,1.7786,1.727,1.6933,1.6776,1.6707,1.6639,1.6473,1.6384,1.6384,1.6377,1.6377,1.2724,0.5888,-0.026,-0.4819,-0.9558,-1.1453,-1.1893,-1.2294,-1.218,-1.2228,-1.2413,-1.249,-1.2488,-1.2498,-1.2527,-1.2582,-1.2761,-1.281,-1.2819,-1.2823,-1.2925,-1.2882,-1.2649,-1.2393,-1.2468,1.9373,1.8705,1.865,1.8608,1.8536,1.8568,1.8574,1.8572,1.8639,1.9,1.9612,2.0069,2.039,2.0591,2.0734,2.074,2.0596,2.0766,2.0431,1.9773,1.968,1.9241,1.8589,1.84,1.8357,1.8385,1.831,1.8263,1.8288,1.8407,1.8588,1.8776,1.8776,1.867,1.8474,1.8201,1.807,1.8111,1.7864,1.7612,1.7372,1.7361,1.7232,1.696,1.6947,1.6836,1.6596,1.638,1.6315,1.6357,1.6157,1.58,1.5402,1.5788,1.5836,1.5335,1.5802,1.6166,1.6174,1.6199,1.6435,1.6804,1.647,1.6698,1.769,1.7812,1.8266,1.9148,1.9391,1.9664,2.0214,2.0345,2.0425,2.0553,2.0146,1.9608,1.9153,1.8508,1.7943,1.7564,1.733,1.7167,1.7093,1.6985,1.6933,1.6836,1.6815,1.6815,1.6828,1.6812,1.5412,0.9903,0.4799,-0.0147,-0.4754,-0.9417,-1.0318,-1.1231,-1.2039,-1.1693,-1.1429,-1.1705,-1.1948,-1.1982,-1.1555,-1.1628,-1.2005,-1.2114,-1.239,-1.2841,-1.2992,-1.3001,-1.251,-1.2073,-1.1976,1.8825,1.8491,1.8511,1.8539,1.8539,1.8509,1.8441,1.8383,1.8389,1.8561,1.8867,1.9148,1.9723,2.0504,2.0564,2.0401,2.0053,2.0112,1.9742,1.9039,1.9004,1.882,1.8521,1.8573,1.8593,1.8622,1.8593,1.8594,1.8605,1.865,1.8715,1.8798,1.8798,1.8761,1.8659,1.8566,1.8528,1.8544,1.844,1.828,1.8042,1.7766,1.7511,1.7268,1.7232,1.7117,1.6866,1.673,1.6578,1.6477,1.634,1.6136,1.5829,1.6074,1.6083,1.5783,1.6011,1.6208,1.6208,1.6208,1.6281,1.6487,1.6136,1.627,1.7035,1.7018,1.7517,1.8857,1.9494,1.9957,2.0371,2.0366,2.0321,2.035,1.9979,1.941,1.8808,1.8485,1.8094,1.7602,1.7429,1.7329,1.7203,1.7002,1.6892,1.6892,1.693,1.6972,1.696,1.6972,1.6238,1.4067,0.9895,0.5023,0.0381,-0.1915,-0.3531,-0.4251,-0.6234,-0.7926,-0.8183,-1.0493,-1.1668,-1.1463,-1.1002,-1.0988,-1.1948,-1.1757,-1.1796,-1.2452,-1.2768,-1.2786,-1.2943,-1.2689,-1.2581,1.8708,1.869,1.8699,1.8726,1.8717,1.8706,1.8632,1.8548,1.8559,1.8623,1.8696,1.8752,1.9263,2.0084,2.016,1.9913,1.9532,1.9508,1.9207,1.8676,1.8632,1.8641,1.8641,1.8734,1.878,1.8789,1.8789,1.8816,1.8833,1.8851,1.8878,1.8931,1.8948,1.8922,1.886,1.8869,1.8834,1.8807,1.8798,1.8724,1.8554,1.8248,1.7888,1.7557,1.7519,1.7372,1.713,1.7031,1.691,1.6727,1.663,1.6428,1.6104,1.626,1.6328,1.6262,1.6268,1.631,1.631,1.6303,1.6316,1.6309,1.6105,1.617,1.6612,1.6864,1.7505,1.8663,1.972,2.0368,2.0259,2.0209,2.0102,1.9963,1.9561,1.9007,1.8584,1.8381,1.8029,1.7588,1.7477,1.7448,1.7329,1.7167,1.7052,1.708,1.7085,1.7109,1.7109,1.7167,1.7142,1.711,1.4051,1.0278,0.5575,0.2529,0.2742,0.175,-0.1317,-0.3028,-0.3022,-0.605,-0.7471,-0.5036,-0.7565,-0.9358,-0.9366,-0.963,-1.1129,-1.2098,-1.2217,-1.2096,-1.3025,-1.297,-1.2639,1.9356,1.9333,1.9278,1.9243,1.926,1.9177,1.9161,1.9092,1.9188,1.9214,1.9136,1.9152,1.9147,1.9153,1.9217,1.909,1.9063,1.9073,1.9046,1.8955,1.8964,1.8972,1.8963,1.8983,1.8993,1.8966,1.8878,1.8886,1.8998,1.8998,1.908,1.926,1.9243,1.918,1.9031,1.9006,1.893,1.8869,1.8861,1.8807,1.878,1.8752,1.843,1.7886,1.7811,1.7692,1.744,1.7324,1.7284,1.7252,1.6952,1.6522,1.5975,1.628,1.6541,1.6575,1.6588,1.6575,1.6604,1.661,1.6628,1.6636,1.6507,1.6483,1.6799,1.766,1.8369,1.8711,2.0098,2.0703,2.0058,1.9906,1.9728,1.9387,1.8778,1.8422,1.8463,1.7885,1.7577,1.7518,1.7509,1.7527,1.7549,1.7569,1.7507,1.7507,1.7542,1.7531,1.7496,1.7531,1.7546,1.7592,1.6866,1.544,1.0417,0.761,0.4541,0.3822,0.423,0.1849,0.1954,0.1861,0.1605,0.0781,-0.2065,-0.4244,-0.5569,-0.7478,-0.974,-1.0673,-1.0262,-1.0541,-1.0944,-1.1733,-1.1819,1.9411,1.9411,1.9367,1.9352,1.9362,1.9326,1.928,1.9204,1.9231,1.9165,1.9099,1.9205,1.9236,1.9202,1.9323,1.9244,1.9023,1.9014,1.9014,1.9014,1.9014,1.9016,1.9017,1.9086,1.9102,1.9084,1.9107,1.914,1.9174,1.9182,1.9208,1.9214,1.9239,1.924,1.9255,1.9246,1.9263,1.932,1.9311,1.9255,1.9124,1.9041,1.8798,1.8481,1.8431,1.8313,1.806,1.7937,1.7726,1.7459,1.7279,1.7016,1.671,1.6827,1.6977,1.7031,1.6997,1.703,1.7085,1.7064,1.7068,1.7138,1.7081,1.706,1.7252,1.7964,1.8714,1.9328,2.0176,2.0467,1.9874,1.956,1.922,1.8605,1.7938,1.7541,1.7488,1.7318,1.7252,1.7457,1.7577,1.7638,1.7647,1.7602,1.7567,1.7643,1.7589,1.7542,1.7542,1.7574,1.7604,1.7638,1.7619,1.7082,1.5619,1.3705,1.1936,1.09,1.0037,0.7802,0.7005,0.4771,0.3882,0.3979,0.1962,0.0509,-0.1026,-0.1985,-0.4771,-0.457,-0.449,-0.6737,-0.773,-0.8493,-0.9819,1.9631,1.9631,1.9583,1.9552,1.953,1.9474,1.9402,1.9311,1.9335,1.9311,1.9259,1.9417,1.9497,1.9511,1.962,1.955,1.9289,1.9208,1.9171,1.9162,1.9173,1.9149,1.9168,1.9281,1.9299,1.928,1.9356,1.9389,1.9408,1.9401,1.936,1.9346,1.9329,1.9379,1.9482,1.947,1.9508,1.9615,1.9601,1.9533,1.94,1.9317,1.9206,1.9082,1.9059,1.886,1.85,1.8387,1.821,1.7853,1.7706,1.7503,1.7259,1.7331,1.7351,1.7268,1.7288,1.7292,1.7337,1.73,1.7356,1.7491,1.7502,1.7522,1.7569,1.8148,1.8755,1.9268,1.9841,1.9995,1.9394,1.9044,1.8664,1.8034,1.7477,1.7203,1.7252,1.7276,1.7393,1.7561,1.7673,1.7726,1.7726,1.7672,1.7686,1.7763,1.7647,1.7566,1.7557,1.7551,1.7562,1.7582,1.7592,1.761,1.6923,1.5919,1.5425,1.4676,1.4022,1.2366,1.0986,0.8426,0.7086,0.6957,0.6107,0.4796,0.3782,0.3043,0.2786,0.2774,0.0816,-0.1789,-0.336,-0.5222,-0.6815,2.0088,2.005,1.9944,1.9848,1.9789,1.9669,1.9568,1.9541,1.9653,1.9663,1.9667,1.9805,1.9832,1.9875,1.9868,1.987,1.9789,1.9601,1.9504,1.9492,1.9484,1.9481,1.9479,1.9555,1.9578,1.9555,1.9579,1.9577,1.9564,1.9588,1.9588,1.9588,1.9581,1.9612,1.9692,1.9629,1.9641,1.9698,1.9684,1.9638,1.959,1.9585,1.9571,1.956,1.9546,1.9252,1.867,1.8679,1.8633,1.8464,1.8243,1.7879,1.7572,1.7681,1.7645,1.741,1.7447,1.7424,1.732,1.738,1.7559,1.7715,1.7786,1.7828,1.7881,1.8399,1.877,1.8772,1.92,1.9285,1.8738,1.858,1.8311,1.7704,1.7536,1.7542,1.767,1.7758,1.7789,1.7769,1.7783,1.7819,1.7822,1.7833,1.7869,1.7872,1.7805,1.7718,1.7715,1.7657,1.7557,1.7544,1.762,1.7724,1.7701,1.761,1.7467,1.7207,1.6662,1.5691,1.518,1.3407,1.296,1.2632,1.0983,0.9632,0.8013,0.7252,0.6344,0.589,0.4135,0.3484,0.1676,-0.0297,-0.3788,2.0177,2.0174,2.0117,2.0074,2.0012,1.9967,1.9917,1.9855,1.9889,1.9904,1.9908,1.9909,1.9901,1.9912,1.9944,1.9946,1.9896,1.9858,1.9792,1.9716,1.9695,1.9688,1.9701,1.972,1.9682,1.9621,1.965,1.9648,1.9635,1.9688,1.9725,1.9682,1.9666,1.973,1.9822,1.9823,1.9851,1.9951,1.9939,1.9951,1.9931,1.9847,1.9777,1.9745,1.9647,1.9432,1.9178,1.9165,1.9024,1.8735,1.8616,1.8446,1.8235,1.8232,1.8223,1.8134,1.8142,1.8192,1.8173,1.8125,1.8154,1.8284,1.8322,1.8332,1.84,1.8988,1.9269,1.9164,1.9749,1.9896,1.9166,1.8948,1.8506,1.7582,1.7464,1.7519,1.7609,1.7749,1.7783,1.7715,1.7867,1.8013,1.8035,1.8007,1.7979,1.8076,1.799,1.79,1.7897,1.7842,1.7839,1.785,1.7884,1.7864,1.7864,1.7878,1.7856,1.7783,1.761,1.7392,1.7328,1.7296,1.7244,1.6742,1.5226,1.3955,1.2395,1.1495,1.0648,1.1295,1.1602,0.997,0.7511,0.4433,0.1016,2.0313,2.0313,2.0305,2.0262,2.0175,2.0176,2.0128,2.0056,2.006,2.0071,2.0069,2.0095,2.0092,2.0098,2.0134,2.0119,2.0067,2.0088,2.0063,1.9978,1.9876,1.9837,1.9845,1.9892,1.9897,1.9851,1.9881,1.9841,1.9798,1.987,1.9887,1.9857,1.9847,1.9904,1.9993,2.0002,2.0022,2.0116,2.0112,2.0112,2.0084,2.0017,1.9937,1.9901,1.9834,1.9728,1.959,1.9608,1.9441,1.9105,1.8998,1.8878,1.8679,1.8688,1.8659,1.8545,1.8573,1.8601,1.8565,1.8471,1.852,1.8567,1.8576,1.8567,1.8655,1.9114,1.9203,1.9207,1.9452,1.9599,1.9078,1.897,1.8601,1.7953,1.7786,1.7712,1.7724,1.7878,1.7955,1.7911,1.8024,1.814,1.8151,1.8151,1.8085,1.8199,1.8125,1.8057,1.8046,1.7994,1.8005,1.8005,1.7974,1.7985,1.8046,1.8089,1.8132,1.8083,1.7995,1.78,1.7664,1.7684,1.7653,1.7514,1.6439,1.6314,1.5056,1.5594,1.5434,1.6999,1.6838,1.4848,1.1696,0.922,0.6052,2.0503,2.051,2.0511,2.0425,2.0317,2.0302,2.0256,2.0146,2.0199,2.0212,2.0247,2.0302,2.0369,2.0373,2.0356,2.0331,2.0325,2.0308,2.0302,2.0222,2.0081,1.9974,1.9979,2.0036,2.0097,2.0132,2.0151,2.0144,2.0074,2.0088,2.0126,2.0097,2.0111,2.0132,2.018,2.0142,2.0152,2.0229,2.0175,2.0155,2.0165,2.0119,2.0111,2.0111,2.0088,2.0022,1.9906,1.992,1.9803,1.9464,1.9331,1.9197,1.9004,1.9041,1.8922,1.8651,1.8751,1.8743,1.8622,1.8651,1.8616,1.8643,1.8661,1.8595,1.865,1.8731,1.8764,1.868,1.8705,1.8662,1.8654,1.8625,1.8581,1.8564,1.8287,1.8189,1.8213,1.8216,1.8229,1.8227,1.8234,1.8236,1.8289,1.8329,1.8351,1.8361,1.8293,1.8282,1.826,1.8222,1.8044,1.8055,1.815,1.8138,1.8199,1.8239,1.8281,1.8282,1.8234,1.8131,1.7938,1.7932,1.7934,1.7805,1.7642,1.7701,1.7592,1.7387,1.7163,1.681,1.6735,1.6914,1.5321,1.2262,0.9601,2.0566,2.0565,2.0564,2.053,2.0453,2.049,2.0469,2.04,2.0407,2.0402,2.0427,2.0409,2.0382,2.0328,2.0381,2.0384,2.0393,2.0423,2.0445,2.0439,2.0393,2.0288,2.0212,2.0168,2.0197,2.0213,2.0229,2.0201,2.0179,2.0271,2.0316,2.0316,2.0316,2.0324,2.0351,2.0326,2.0353,2.0407,2.041,2.0396,2.0393,2.0391,2.0342,2.0243,2.0255,2.0179,2.0069,2.0079,1.992,1.9584,1.9536,1.9459,1.9307,1.9303,1.9257,1.9176,1.9185,1.9227,1.9146,1.9108,1.9093,1.9076,1.8974,1.8949,1.8949,1.894,1.8869,1.877,1.8724,1.8679,1.8577,1.8549,1.8549,1.8576,1.8545,1.8496,1.8486,1.8526,1.8573,1.8582,1.8592,1.8602,1.8603,1.8631,1.8642,1.8688,1.8678,1.8651,1.8574,1.8506,1.8361,1.8391,1.8449,1.8387,1.8355,1.8394,1.8424,1.8444,1.8426,1.8387,1.818,1.8018,1.7988,1.7928,1.7586,1.7535,1.7163,1.6842,1.6597,1.6414,1.6183,1.6102,1.5702,1.3636,1.131,2.057,2.0564,2.0555,2.0537,2.051,2.0536,2.0553,2.0554,2.0537,2.052,2.0497,2.0453,2.0427,2.0382,2.0416,2.0443,2.0458,2.0492,2.0497,2.0507,2.05,2.0457,2.0386,2.0344,2.0334,2.0331,2.0342,2.0342,2.0341,2.0407,2.0439,2.0439,2.0439,2.0449,2.0451,2.0443,2.0461,2.0487,2.051,2.0508,2.0513,2.0508,2.048,2.0405,2.0388,2.0323,2.0251,2.0231,2.0088,1.9855,1.9757,1.9691,1.9622,1.9545,1.9516,1.9516,1.9525,1.9505,1.9483,1.9456,1.9407,1.9331,1.9246,1.924,1.9223,1.9223,1.9149,1.9075,1.9041,1.8973,1.8878,1.8798,1.878,1.8825,1.8816,1.8752,1.8631,1.8604,1.8651,1.866,1.8706,1.8761,1.8762,1.8789,1.8825,1.8816,1.8807,1.8807,1.8816,1.8753,1.8707,1.8707,1.8706,1.865,1.8622,1.8651,1.8668,1.8678,1.8651,1.8622,1.8426,1.8163,1.787,1.774,1.7511,1.7167,1.6676,1.6317,1.6254,1.6003,1.5613,1.5367,1.5139,1.4722,1.2467,2.0509,2.051,2.0512,2.0503,2.0505,2.0504,2.0555,2.0585,2.0576,2.0546,2.0513,2.0512,2.0492,2.0506,2.0485,2.0504,2.0507,2.0507,2.0506,2.0505,2.0511,2.0499,2.0483,2.0474,2.0477,2.0477,2.0503,2.0492,2.0472,2.0481,2.0495,2.0497,2.049,2.05,2.0501,2.0487,2.0503,2.0521,2.0531,2.0531,2.0524,2.0529,2.0521,2.0493,2.0478,2.0452,2.039,2.0358,2.0276,2.013,1.9993,1.9928,1.9888,1.9799,1.9753,1.9736,1.9745,1.9723,1.9651,1.966,1.958,1.9495,1.9453,1.9429,1.9412,1.9407,1.9369,1.9335,1.9404,1.9297,1.9255,1.9168,1.911,1.9111,1.912,1.8975,1.8762,1.8661,1.8651,1.866,1.8725,1.8752,1.8762,1.8798,1.8869,1.9,1.8982,1.8999,1.8973,1.8886,1.8869,1.8904,1.8904,1.8922,1.8913,1.8912,1.8922,1.8931,1.8904,1.8834,1.8641,1.8315,1.7818,1.7488,1.7265,1.6703,1.596,1.5773,1.5739,1.5435,1.495,1.5057,1.5132,1.4617,1.3067,2.051,2.0511,2.0511,2.0507,2.0503,2.0545,2.0584,2.0595,2.0547,2.0526,2.0504,2.051,2.0509,2.0507,2.0491,2.0511,2.0498,2.0497,2.0505,2.0512,2.0512,2.051,2.0505,2.0505,2.0531,2.056,2.0524,2.0531,2.0542,2.0566,2.051,2.0513,2.0518,2.0511,2.0508,2.0518,2.0533,2.0568,2.0578,2.0575,2.0573,2.0572,2.0564,2.0522,2.0508,2.0462,2.0405,2.0381,2.0344,2.0263,2.0172,2.0108,2.0069,2.0031,2.0012,2.0012,2.0007,1.9992,1.9971,1.9885,1.9822,1.9777,1.9687,1.962,1.9547,1.9579,1.9511,1.9436,1.9411,1.9429,1.9409,1.9357,1.9333,1.9333,1.9326,1.9311,1.9208,1.909,1.899,1.899,1.9042,1.9102,1.9094,1.9135,1.9169,1.9185,1.9191,1.9197,1.9139,1.9046,1.9063,1.9097,1.9042,1.9051,1.9059,1.9074,1.9125,1.9151,1.9141,1.9064,1.8869,1.8582,1.8117,1.7565,1.7029,1.6334,1.5527,1.5053,1.4976,1.4627,1.4388,1.4473,1.4468,1.4153,1.4061,2.0426,2.0455,2.0446,2.0482,2.051,2.0543,2.0576,2.0589,2.0564,2.0536,2.0536,2.0517,2.0506,2.0506,2.0463,2.0465,2.0473,2.0481,2.0504,2.0516,2.0527,2.0547,2.0546,2.0609,2.0699,2.0996,2.0711,2.0748,2.0973,2.0748,2.0555,2.0553,2.0542,2.0558,2.0552,2.0552,2.0562,2.0583,2.0604,2.0603,2.0603,2.0601,2.0599,2.0558,2.0527,2.0478,2.0449,2.0434,2.042,2.0403,2.0358,2.0289,2.0225,2.0225,2.0238,2.0238,2.0242,2.0195,2.0142,2.0078,2.0031,1.9997,1.9914,1.989,1.9845,1.9832,1.9809,1.9737,1.9719,1.9707,1.9632,1.9558,1.9552,1.9536,1.9536,1.9545,1.9512,1.9363,1.9232,1.9249,1.93,1.9325,1.9357,1.9383,1.9407,1.939,1.9402,1.9405,1.9403,1.9326,1.9298,1.9294,1.9197,1.915,1.9166,1.9214,1.9303,1.9351,1.9372,1.9283,1.9131,1.8816,1.8455,1.7693,1.6835,1.6002,1.5248,1.4766,1.4449,1.446,1.4343,1.4049,1.3953,1.4085,1.3919,2.0328,2.0388,2.0388,2.0425,2.0479,2.0484,2.0513,2.0564,2.0567,2.0532,2.0563,2.0503,2.0485,2.0494,2.0449,2.0427,2.0441,2.0477,2.0509,2.0514,2.0537,2.0551,2.0553,2.0623,2.0966,2.1677,2.0986,2.1016,2.1191,2.1025,2.0605,2.0596,2.0595,2.0586,2.0596,2.0596,2.0586,2.0586,2.0566,2.0576,2.0576,2.0576,2.0576,2.0564,2.0551,2.0508,2.0499,2.05,2.0498,2.0476,2.0474,2.042,2.037,2.0344,2.0389,2.0382,2.036,2.0313,2.0244,2.0219,2.0215,2.0148,2.0139,2.0125,2.0102,2.0069,2.006,2.0065,2.004,1.9992,1.9928,1.9835,1.9768,1.9768,1.9758,1.9758,1.9728,1.9616,1.954,1.9451,1.9462,1.9467,1.9494,1.9513,1.956,1.9604,1.9609,1.9596,1.9596,1.9567,1.9506,1.9492,1.9412,1.9352,1.9368,1.9376,1.947,1.9455,1.9522,1.9466,1.9365,1.9178,1.8694,1.7433,1.6526,1.5803,1.5125,1.4576,1.4388,1.443,1.4368,1.4153,1.4114,1.4125,1.4007,2.0299,2.0323,2.0377,2.042,2.0411,2.0425,2.0451,2.0434,2.0509,2.0443,2.0478,2.0431,2.0513,2.0476,2.0498,2.0488,2.0469,2.0493,2.0542,2.0588,2.0629,2.0653,2.0814,2.0886,2.1151,2.1381,2.1069,2.0857,2.0912,2.0665,2.0602,2.0603,2.0601,2.0601,2.0603,2.0602,2.0579,2.0559,2.054,2.0538,2.0537,2.0527,2.053,2.0534,2.0536,2.053,2.0508,2.0499,2.047,2.0419,2.0421,2.0399,2.0403,2.04,2.0394,2.0395,2.0365,2.0344,2.0318,2.034,2.036,2.0359,2.0337,2.0272,2.0215,2.0182,2.0171,2.0134,2.0121,2.0098,2.0079,2.0046,2.0031,2.0041,2.0041,2.0031,2.0021,1.9971,1.9865,1.9737,1.966,1.9602,1.9656,1.9682,1.9684,1.9729,1.9732,1.9719,1.9695,1.967,1.9632,1.9632,1.9648,1.9604,1.9578,1.9594,1.9617,1.9548,1.9576,1.9605,1.9539,1.9532,1.8895,1.7732,1.6767,1.6067,1.535,1.4614,1.4404,1.4511,1.4416,1.4344,1.4521,1.4701,1.4775,2.004,2.0101,2.0196,2.0259,2.0314,2.0389,2.0672,2.1053,2.107,2.1077,2.107,2.1061,2.0803,2.0531,2.0412,2.0422,2.0447,2.0454,2.0706,2.0986,2.1159,2.1485,2.1722,2.1784,2.1731,2.1751,2.1391,2.1211,2.117,2.078,2.0675,2.0598,2.0596,2.0596,2.0599,2.0596,2.0582,2.0559,2.0559,2.0558,2.0547,2.0518,2.0505,2.0521,2.0535,2.0527,2.0517,2.0505,2.0507,2.0494,2.0509,2.0512,2.05,2.0478,2.045,2.0456,2.0417,2.0397,2.0407,2.0432,2.0446,2.0444,2.0451,2.0409,2.033,2.0296,2.0262,2.0227,2.024,2.0254,2.0258,2.0256,2.0264,2.0264,2.026,2.0242,2.0233,2.0219,2.0108,1.9988,1.9929,1.9889,1.9867,1.987,1.9839,1.9853,1.9873,1.9851,1.9813,1.9802,1.9794,1.9764,1.9764,1.9704,1.9688,1.9704,1.9674,1.9624,1.9641,1.9669,1.9679,1.9666,1.911,1.8168,1.7283,1.6546,1.5732,1.5059,1.4827,1.4713,1.498,1.519,1.5215,1.5285,1.5415,1.9933,1.9882,2.0012,2.0094,2.0165,2.0257,2.0795,2.1501,2.159,2.1724,2.1927,2.191,2.1561,2.1006,2.0704,2.0563,2.0473,2.055,2.1097,2.1551,2.1915,2.2411,2.2845,2.3004,2.2698,2.22,2.2109,2.1966,2.163,2.121,2.0911,2.0932,2.0883,2.0688,2.0621,2.0568,2.0589,2.0585,2.0585,2.0585,2.0564,2.053,2.0504,2.0508,2.051,2.0512,2.0503,2.0506,2.0527,2.0547,2.0566,2.0565,2.0596,2.0545,2.0507,2.051,2.0504,2.0496,2.0482,2.0492,2.049,2.0494,2.0505,2.048,2.0441,2.0405,2.0392,2.0349,2.0353,2.0363,2.0337,2.0379,2.0383,2.0383,2.037,2.0376,2.0347,2.0317,2.0275,2.019,2.0171,2.012,2.0055,2.0021,1.9974,1.997,1.9999,2.0035,2.0006,2.0007,1.9982,1.9924,1.9875,1.9789,1.9757,1.9772,1.9707,1.9605,1.9684,1.9773,1.9781,1.9778,1.9165,1.8664,1.8015,1.7263,1.6369,1.5765,1.5752,1.5801,1.5945,1.6037,1.6076,1.6151,1.6278,2.0442,1.9841,1.99,1.9919,1.9945,2.0006,2.0531,2.1359,2.1535,2.1935,2.268,2.2734,2.2677,2.231,2.1698,2.1092,2.0872,2.1127,2.1623,2.2052,2.2533,2.2923,2.3037,2.2987,2.3159,2.2906,2.2921,2.2473,2.2153,2.1863,2.1674,2.1672,2.1529,2.1331,2.0739,2.0586,2.0507,2.0505,2.0513,2.0507,2.0509,2.0513,2.0508,2.0508,2.0507,2.0511,2.0511,2.0507,2.0523,2.0514,2.0525,2.0537,2.0575,2.0603,2.0589,2.0545,2.0485,2.0423,2.0453,2.0494,2.0521,2.0516,2.0511,2.0508,2.0482,2.0464,2.0446,2.0387,2.0391,2.038,2.0359,2.0341,2.0347,2.0382,2.0407,2.0379,2.036,2.0367,2.0333,2.0318,2.0262,2.0231,2.0178,2.0143,2.0103,2.0112,2.0107,2.011,2.0052,1.9933,1.989,1.9759,1.994,1.9909,1.9864,1.9873,1.981,1.9666,1.9745,1.9862,1.9873,1.9864,1.9801,1.927,1.8656,1.8141,1.746,1.7039,1.6882,1.6758,1.6718,1.6818,1.6957,1.7064,1.7258,2.1488,2.0328,2.0408,2.0189,1.9883,2.034,2.1096,2.1961,2.2555,2.302,2.34,2.3467,2.3271,2.2815,2.2035,2.1791,2.1759,2.1801,2.2307,2.2965,2.3468,2.3885,2.4348,2.4393,2.4307,2.3806,2.3793,2.3745,2.3205,2.2768,2.2541,2.2466,2.2072,2.1653,2.1097,2.0728,2.0563,2.051,2.0506,2.0513,2.0509,2.0511,2.0505,2.0506,2.0506,2.0511,2.0505,2.0509,2.051,2.0504,2.0507,2.0511,2.0536,2.0556,2.0557,2.0547,2.0538,2.0522,2.0531,2.054,2.0551,2.0556,2.0555,2.0553,2.0505,2.0463,2.0447,2.0391,2.0427,2.0427,2.0415,2.0417,2.0427,2.0439,2.0444,2.0437,2.0415,2.0378,2.0371,2.0368,2.0349,2.0318,2.0275,2.0252,2.02,2.0157,1.9911,1.9635,1.9527,1.9379,1.9379,1.9404,1.9727,2.0041,2.0007,1.9991,1.9971,1.9873,1.9843,1.9941,1.9961,1.9941,1.9868,1.9836,1.9432,1.8937,1.8472,1.7876,1.7327,1.7328,1.7411,1.7599,1.7835,1.8321,1.8476,2.266,2.1333,2.122,2.0812,2.0343,2.1023,2.1862,2.2788,2.3393,2.3911,2.4214,2.421,2.3813,2.3139,2.263,2.2553,2.278,2.2477,2.3087,2.39,2.4511,2.4894,2.5173,2.5404,2.5167,2.4611,2.4701,2.4674,2.4501,2.414,2.3733,2.3419,2.2983,2.2244,2.1697,2.1219,2.0847,2.0507,2.0507,2.0507,2.0507,2.0507,2.0508,2.0508,2.0508,2.0508,2.0508,2.0511,2.0511,2.0508,2.0512,2.051,2.0519,2.0521,2.0522,2.0525,2.0517,2.0536,2.0551,2.0567,2.0596,2.0597,2.0597,2.0579,2.0537,2.0471,2.043,2.0428,2.0449,2.0471,2.0476,2.0459,2.0476,2.0478,2.05,2.0507,2.0499,2.0437,2.0394,2.0383,2.0371,2.0376,2.0353,2.0346,2.0296,2.0218,1.9838,1.931,1.9049,1.8905,1.8967,1.905,1.9289,1.9753,2.0078,2.0065,2.0065,2.0041,2.001,1.9979,1.9974,1.9967,1.9911,1.9896,1.9881,1.966,1.9153,1.8413,1.7789,1.819,1.8513,1.853,1.8773,1.9244,1.9423,2.3869,2.2953,2.2253,2.188,2.1786,2.1899,2.2524,2.334,2.357,2.4183,2.4864,2.4982,2.4575,2.401,2.3664,2.3341,2.2936,2.3659,2.4024,2.4463,2.5017,2.5389,2.5594,2.5572,2.5557,2.5425,2.5387,2.5444,2.5524,2.5241,2.4812,2.4355,2.3926,2.308,2.2398,2.1901,2.1287,2.0888,2.0703,2.0597,2.0547,2.0508,2.0508,2.0508,2.0508,2.0508,2.0508,2.0508,2.051,2.0506,2.0506,2.0512,2.0507,2.0509,2.0512,2.0509,2.0503,2.0525,2.0536,2.0555,2.0597,2.0595,2.0595,2.0596,2.0573,2.0582,2.0552,2.0496,2.0497,2.0476,2.0447,2.0425,2.0488,2.0516,2.0528,2.0507,2.0497,2.0461,2.0418,2.0398,2.0404,2.042,2.0419,2.0408,2.0371,2.0295,1.9838,1.9307,1.8718,1.8535,1.8643,1.8743,1.8863,1.9308,1.9996,2.0106,2.0106,2.0074,2.0031,1.9991,1.9965,1.9944,1.9974,1.9907,1.9881,1.9883,1.9838,1.923,1.8954,1.9384,1.9551,1.9273,1.9184,1.9435,1.9575,2.4304,2.3988,2.3704,2.3002,2.2088,2.262,2.312,2.3597,2.4108,2.4571,2.5057,2.5147,2.5039,2.4645,2.4183,2.4188,2.425,2.4128,2.4519,2.4924,2.5396,2.5576,2.5603,2.5597,2.56,2.56,2.5657,2.5699,2.567,2.5699,2.5592,2.5163,2.4715,2.4171,2.3441,2.272,2.2047,2.1484,2.12,2.1094,2.0547,2.0508,2.0508,2.0508,2.0508,2.0508,2.0508,2.0508,2.0508,2.0508,2.0508,2.0506,2.0511,2.0512,2.0507,2.0505,2.0511,2.0505,2.0507,2.0526,2.0547,2.0556,2.0575,2.0602,2.0602,2.0602,2.0601,2.0567,2.0546,2.0529,2.053,2.053,2.0556,2.0566,2.0556,2.0526,2.0492,2.047,2.0461,2.0446,2.0477,2.0507,2.0485,2.047,2.0422,2.0338,1.9822,1.9288,1.8728,1.8284,1.8416,1.8685,1.8851,1.9279,1.9983,2.0112,2.0145,2.011,2.0069,2.005,2.0031,2.0045,2.005,1.997,1.9907,1.9911,1.9916,1.9923,1.9866,1.9755,1.9719,1.9669,1.966,1.9676,1.9688,2.4542,2.4524,2.4597,2.3958,2.2989,2.3517,2.3863,2.403,2.4528,2.4882,2.5007,2.5143,2.5161,2.4943,2.4657,2.4618,2.4913,2.4825,2.4961,2.5219,2.5444,2.5535,2.5541,2.5544,2.5553,2.557,2.562,2.5651,2.5625,2.5681,2.565,2.5455,2.5124,2.4734,2.4132,2.354,2.2686,2.2007,2.1724,2.1351,2.063,2.0504,2.0511,2.0511,2.051,2.051,2.051,2.0508,2.0508,2.0508,2.0508,2.0508,2.051,2.0508,2.0508,2.0504,2.0521,2.0539,2.0516,2.0507,2.0503,2.0526,2.0536,2.0576,2.0596,2.0595,2.0595,2.0595,2.0595,2.0596,2.0586,2.0555,2.0543,2.0534,2.0546,2.0525,2.0509,2.0495,2.0498,2.049,2.0517,2.0528,2.052,2.0492,2.0451,2.0247,1.9675,1.9224,1.8829,1.8454,1.8304,1.8615,1.8966,1.9492,2.0057,2.0138,2.0209,2.0206,2.016,2.0149,2.0132,2.0139,2.0103,2.0026,1.9985,1.9969,1.9953,1.9947,1.9853,1.9731,1.9747,1.9786,1.9797,1.9768,1.9769,2.4599,2.4596,2.4668,2.4604,2.4405,2.462,2.4659,2.4667,2.4768,2.4887,2.5,2.5028,2.506,2.5063,2.4937,2.5048,2.5165,2.5187,2.5255,2.5312,2.5408,2.5418,2.5443,2.5471,2.5498,2.5461,2.5534,2.5576,2.5515,2.5634,2.5687,2.5699,2.5475,2.5183,2.4395,2.3584,2.2714,2.1982,2.1982,2.143,2.0851,2.0609,2.0507,2.0503,2.0511,2.0511,2.051,2.0508,2.0508,2.0508,2.0508,2.0508,2.0508,2.0636,2.0617,2.051,2.0656,2.0667,2.0563,2.0542,2.0588,2.053,2.0522,2.0534,2.0585,2.0595,2.0595,2.0605,2.0605,2.0575,2.0545,2.0515,2.0516,2.0517,2.0536,2.0531,2.0516,2.0505,2.0505,2.0509,2.0504,2.0507,2.0509,2.0497,2.0468,2.0166,1.9556,1.9175,1.8989,1.8711,1.8545,1.8852,1.9253,1.9525,2.0,2.0192,2.0275,2.0274,2.0251,2.0217,2.0196,2.0177,2.0129,2.0079,2.005,2.0036,2.0,1.9951,1.9885,1.9834,1.9828,1.9855,1.9871,1.9875,1.9864,2.4622,2.4659,2.4736,2.4751,2.4727,2.4768,2.4818,2.4908,2.4926,2.4963,2.5005,2.5041,2.5066,2.5101,2.5144,2.5174,2.5208,2.5272,2.5298,2.5308,2.5371,2.5434,2.5455,2.5457,2.5478,2.5488,2.5537,2.5558,2.5518,2.5638,2.5685,2.5697,2.5685,2.5553,2.5299,2.4837,2.4402,2.3572,2.2989,2.2249,2.1393,2.0863,2.0568,2.0573,2.0553,2.0649,2.0607,2.0627,2.0618,2.0617,2.0617,2.0599,2.0734,2.092,2.1094,2.1075,2.1249,2.1911,2.1581,2.1333,2.1062,2.0777,2.0511,2.0516,2.054,2.0521,2.0551,2.0601,2.0601,2.0581,2.0581,2.0574,2.0565,2.0556,2.0556,2.052,2.0511,2.0505,2.0511,2.0507,2.0508,2.0537,2.0539,2.0501,2.0472,2.0447,1.9961,1.9887,1.9755,1.9265,1.8978,1.932,1.9646,1.9752,1.9948,2.0163,2.0279,2.0273,2.0276,2.0274,2.0244,2.0231,2.0205,2.0171,2.0142,2.0106,2.004,1.9983,1.9985,1.9961,1.9903,1.9897,1.9924,1.9943,1.995,2.4682,2.4736,2.4834,2.4882,2.4865,2.4863,2.4934,2.4998,2.4996,2.4999,2.5028,2.5079,2.5088,2.5119,2.5177,2.521,2.5207,2.524,2.5258,2.5268,2.5303,2.534,2.5381,2.543,2.5397,2.5443,2.5512,2.554,2.5514,2.5648,2.5694,2.5702,2.5702,2.566,2.5611,2.5474,2.5121,2.4319,2.365,2.2922,2.2092,2.1496,2.1151,2.0922,2.0978,2.1368,2.1081,2.0953,2.0944,2.0943,2.0944,2.0946,2.1209,2.1589,2.1881,2.2008,2.2203,2.2729,2.238,2.18,2.1465,2.1099,2.0732,2.0534,2.053,2.0542,2.0554,2.0576,2.0596,2.0585,2.0576,2.058,2.0571,2.0553,2.0537,2.0512,2.0511,2.0505,2.0507,2.0513,2.0514,2.0538,2.0561,2.0517,2.0474,2.0459,2.0412,2.0399,2.0359,1.9887,1.9461,1.972,1.9921,1.9971,2.0058,2.0169,2.0256,2.0265,2.0279,2.0289,2.0301,2.028,2.0276,2.0265,2.0211,2.0143,2.0064,2.0014,1.9965,1.9938,1.9891,1.9909,1.9979,1.9973,1.9954,2.4811,2.4834,2.496,2.4994,2.4994,2.4977,2.4988,2.5002,2.4993,2.5028,2.5082,2.5095,2.5109,2.5115,2.518,2.5207,2.5203,2.5208,2.5209,2.5205,2.5234,2.5253,2.5288,2.5317,2.5358,2.5383,2.5447,2.5541,2.5525,2.5638,2.5693,2.5699,2.5693,2.5699,2.5697,2.5615,2.5279,2.4786,2.4252,2.3493,2.2675,2.2569,2.1998,2.1722,2.1944,2.2214,2.2057,2.1841,2.184,2.183,2.1822,2.1845,2.2119,2.2685,2.2978,2.3212,2.3298,2.317,2.3052,2.2482,2.189,2.1512,2.0894,2.0684,2.0573,2.0578,2.058,2.059,2.0601,2.0567,2.0545,2.0535,2.0525,2.0521,2.0518,2.0504,2.0505,2.051,2.0509,2.0504,2.0504,2.0524,2.0521,2.0502,2.0476,2.0448,2.0434,2.0447,2.0398,2.035,2.0014,2.002,2.0161,2.0161,2.0215,2.0225,2.0227,2.0233,2.0261,2.0273,2.0303,2.0304,2.0288,2.0262,2.0244,2.0194,2.0112,2.001,1.9918,1.9892,1.9873,1.9896,1.9939,1.9894,1.9873,2.4868,2.495,2.4996,2.4994,2.5,2.4992,2.4996,2.5009,2.5047,2.5088,2.5114,2.5156,2.517,2.5164,2.5185,2.5202,2.5209,2.521,2.521,2.5212,2.5234,2.5279,2.5327,2.5377,2.5398,2.545,2.5515,2.5561,2.5595,2.5671,2.5693,2.5697,2.5699,2.5697,2.5699,2.5693,2.5481,2.521,2.4744,2.4111,2.3536,2.3391,2.2802,2.2663,2.2846,2.3029,2.2841,2.2724,2.2723,2.2723,2.2723,2.2734,2.2792,2.3553,2.4156,2.4811,2.4498,2.4018,2.3893,2.3219,2.25,2.1881,2.1099,2.0699,2.0596,2.0597,2.0598,2.0599,2.06,2.0578,2.0566,2.0556,2.053,2.0503,2.0508,2.051,2.0507,2.0511,2.0507,2.0502,2.0513,2.0506,2.0513,2.0509,2.049,2.0442,2.0415,2.0427,2.0418,2.037,2.0356,2.0324,2.026,2.0212,2.0203,2.0216,2.0211,2.0208,2.0237,2.0232,2.02,2.0212,2.0248,2.0244,2.0215,2.0198,2.0167,2.006,1.9934,1.9901,1.9892,1.9892,1.9892,1.9847,1.9831,2.4927,2.4994,2.4994,2.4991,2.5011,2.5022,2.5041,2.5038,2.5088,2.5113,2.5146,2.518,2.5208,2.5208,2.5217,2.5239,2.5264,2.5321,2.5338,2.5333,2.5297,2.5371,2.543,2.5448,2.548,2.5536,2.558,2.5621,2.5642,2.5666,2.5697,2.5694,2.5694,2.5694,2.5696,2.5699,2.5702,2.5497,2.5205,2.4767,2.4396,2.4142,2.3878,2.3388,2.3601,2.3871,2.3634,2.3606,2.3607,2.3606,2.3625,2.3618,2.3755,2.4437,2.4975,2.5474,2.5249,2.4936,2.477,2.4104,2.324,2.2373,2.1545,2.0988,2.0696,2.06,2.0601,2.0602,2.0603,2.0603,2.0602,2.0593,2.0551,2.0506,2.0506,2.0503,2.0507,2.0506,2.0504,2.0505,2.0511,2.0505,2.0509,2.0505,2.0482,2.0429,2.038,2.0365,2.0363,2.0327,2.035,2.0366,2.0279,2.0202,2.0201,2.0192,2.0162,2.0168,2.0188,2.018,2.0126,2.0135,2.0188,2.0193,2.0185,2.0162,2.0135,2.0065,1.997,1.9943,1.9873,1.9811,1.9804,1.9788,1.9807,2.4994,2.4994,2.4994,2.5011,2.5015,2.5066,2.5101,2.5113,2.5109,2.5156,2.5195,2.5208,2.5223,2.5238,2.5279,2.5323,2.5361,2.5412,2.5443,2.5489,2.546,2.5489,2.5498,2.5513,2.5552,2.5591,2.5621,2.5654,2.5685,2.5701,2.5701,2.5699,2.5693,2.5693,2.5702,2.5694,2.5695,2.5638,2.553,2.5277,2.4984,2.4974,2.5024,2.3989,2.4514,2.5265,2.4696,2.4491,2.4484,2.4501,2.4511,2.4505,2.4563,2.5071,2.5511,2.556,2.544,2.5519,2.5255,2.4648,2.4005,2.3186,2.2405,2.1781,2.1431,2.1051,2.1021,2.0995,2.1035,2.1029,2.103,2.0711,2.0537,2.0516,2.0506,2.0505,2.0505,2.0511,2.0507,2.051,2.0512,2.0504,2.0504,2.0509,2.0478,2.041,2.0378,2.0341,2.0304,2.0286,2.0295,2.034,2.0267,2.019,2.0182,2.0163,2.0117,2.0117,2.0135,2.0107,2.0035,2.0074,2.0139,2.0126,2.0112,2.0112,2.0084,2.0031,2.0006,1.9976,1.9896,1.9744,1.9701,1.9713,1.9738,2.4994,2.5,2.4992,2.5022,2.5063,2.5085,2.5125,2.518,2.5178,2.5187,2.5214,2.5238,2.5274,2.5292,2.5389,2.5446,2.5464,2.5501,2.5508,2.5517,2.5525,2.5554,2.5561,2.5587,2.5619,2.565,2.568,2.5669,2.5693,2.5695,2.5695,2.5695,2.5697,2.5696,2.5695,2.5697,2.5697,2.5697,2.5658,2.5609,2.5434,2.5443,2.5375,2.5112,2.5619,2.5619,2.5285,2.5324,2.5345,2.5383,2.5383,2.5052,2.4506,2.5268,2.5278,2.4975,2.5404,2.5629,2.5502,2.5012,2.4397,2.3969,2.3334,2.2877,2.2408,2.1901,2.1619,2.1584,2.1538,2.1532,2.1387,2.0976,2.061,2.06,2.0508,2.0502,2.0509,2.0504,2.0507,2.0507,2.0507,2.0507,2.0498,2.0485,2.0456,2.0432,2.0396,2.036,2.0284,2.0244,2.0203,2.0229,2.0223,2.0182,2.0159,2.0131,2.0069,2.0035,2.0054,2.0009,1.9965,1.9977,2.0004,2.0035,2.0036,2.004,2.0064,2.0079,2.0045,2.0006,1.9911,1.9757,1.9663,1.9669,1.9668,2.4994,2.4991,2.5037,2.5073,2.5101,2.5134,2.5177,2.5207,2.521,2.5206,2.5212,2.5264,2.5317,2.5387,2.5502,2.5539,2.5554,2.5597,2.5598,2.5598,2.5589,2.5609,2.5641,2.5654,2.5662,2.5695,2.5697,2.5697,2.5697,2.5697,2.5697,2.5697,2.5697,2.5697,2.5697,2.5697,2.5697,2.5697,2.5697,2.5697,2.5697,2.5697,2.5697,2.5697,2.5697,2.5697,2.5697,2.5697,2.5687,2.5678,2.5639,2.5521,2.519,2.5463,2.5453,2.5307,2.5453,2.5697,2.5541,2.5249,2.4742,2.4372,2.4116,2.36,2.3065,2.2626,2.2744,2.2695,2.244,2.2378,2.2153,2.1787,2.1397,2.1235,2.0784,2.049,2.047,2.0454,2.0449,2.0451,2.0451,2.0451,2.0441,2.04,2.0375,2.0383,2.0361,2.0315,2.0249,2.0193,2.0152,2.0116,2.0112,2.0103,2.0082,2.0053,2.0018,1.9997,1.9976,1.9963,1.994,1.9884,1.9869,1.993,1.9978,1.9997,2.0018,2.0035,2.0044,2.0017,1.9909,1.977,1.9694,1.9617,1.9596,2.501,2.503,2.5066,2.5111,2.5128,2.5164,2.521,2.5212,2.5206,2.5205,2.5252,2.5288,2.5379,2.5489,2.5593,2.5603,2.5621,2.5655,2.568,2.5682,2.5682,2.567,2.567,2.5695,2.5696,2.5696,2.5697,2.5697,2.5697,2.5697,2.5697,2.5697,2.5697,2.5697,2.5697,2.5697,2.5697,2.5697,2.5697,2.5697,2.5697,2.5697,2.5697,2.5697,2.5697,2.5697,2.5697,2.5697,2.5697,2.5697,2.5668,2.5453,2.5424,2.5463,2.5404,2.5356,2.5492,2.5658,2.5649,2.5585,2.5156,2.4807,2.4619,2.4296,2.3777,2.3726,2.3832,2.3691,2.3438,2.3091,2.2857,2.2234,2.1836,2.1677,2.1107,2.0577,2.0539,2.055,2.0575,2.0551,2.0422,2.0422,2.0364,2.0318,2.0308,2.0318,2.0273,2.0237,2.0182,2.0116,2.0069,2.003,2.0009,1.9997,2.0014,1.9978,1.9949,1.9947,1.994,1.9932,1.9903,1.9828,1.9806,1.9863,1.9913,1.9925,1.9932,1.9946,1.9959,1.9978,1.9869,1.9751,1.971,1.9636,1.9541,2.5027,2.5082,2.5086,2.5129,2.5183,2.521,2.5203,2.5206,2.5209,2.5264,2.534,2.5364,2.5425,2.5518,2.5634,2.5668,2.5665,2.5696,2.5696,2.5697,2.5697,2.5697,2.5697,2.5697,2.5697,2.5697,2.5697,2.5697,2.5697,2.5697,2.5697,2.5697,2.5697,2.5697,2.5697,2.5697,2.5697,2.5697,2.5697,2.5697,2.5697,2.5697,2.5697,2.5697,2.5697,2.5697,2.5697,2.5697,2.5697,2.5697,2.5669,2.5377,2.53,2.5379,2.5371,2.5293,2.5449,2.5636,2.5668,2.5643,2.5283,2.5342,2.5212,2.5185,2.4895,2.4921,2.4907,2.4719,2.4375,2.3816,2.3314,2.1961,2.134,2.1702,2.1509,2.1097,2.0874,2.1021,2.114,2.0817,2.0466,2.0388,2.0282,2.0253,2.0248,2.0212,2.0111,2.0082,2.0119,2.0055,1.9984,1.9949,1.9913,1.9958,1.9986,1.9917,1.9881,1.9888,1.9876,1.9853,1.9819,1.976,1.976,1.981,1.9822,1.9828,1.9833,1.985,1.9853,1.985,1.9791,1.9716,1.9697,1.9652,1.9564]}]]